<?xml version="1.0" encoding="UTF-8" standalone="no" ?>
<gpx xmlns="http://www.topografix.com/GPX/1/1" xmlns:xsi="http://www.w3.org/2001/XMLSchema-instance" xsi:schemaLocation="http://www.topografix.com/GPX/1/1 http://www.topografix.com/GPX/1/1/gpx.xsd" version="1.1" creator="VisuGPX - https://www.visugpx.com">
  <metadata>
    <name>roc powerade 2012</name>
    <desc><![CDATA[randonnée roc noire 2012 au roc d\\\'azur]]></desc>
  </metadata>
  <trk>
    <name><![CDATA[roc d'azur ( rando powerade)]]></name>
    <cmt><![CDATA[Superbe j'y retourne l'année prochaine et je suis super bien passé je suis ravi un peu de pluie sur la milieu sinon que du BONHEUR]]></cmt>
    <trkseg>
      <trkpt lat="43.42007" lon="6.73779">
        <ele>1</ele>
        <time>2012-10-13T08:40:14Z</time>
      </trkpt>
      <trkpt lat="43.42007" lon="6.73779">
        <ele>50</ele>
        <time>2012-10-13T08:40:15Z</time>
      </trkpt>
      <trkpt lat="43.42" lon="6.73764">
        <ele>52</ele>
        <time>2012-10-13T08:50:27Z</time>
      </trkpt>
      <trkpt lat="43.41989" lon="6.73745">
        <ele>51</ele>
        <time>2012-10-13T08:50:47Z</time>
      </trkpt>
      <trkpt lat="43.41976" lon="6.73727">
        <ele>52</ele>
        <time>2012-10-13T08:51:00Z</time>
      </trkpt>
      <trkpt lat="43.41956" lon="6.73718">
        <ele>49</ele>
        <time>2012-10-13T08:51:08Z</time>
      </trkpt>
      <trkpt lat="43.41943" lon="6.73716">
        <ele>50</ele>
        <time>2012-10-13T08:51:15Z</time>
      </trkpt>
      <trkpt lat="43.4193" lon="6.73717">
        <ele>50</ele>
        <time>2012-10-13T08:51:23Z</time>
      </trkpt>
      <trkpt lat="43.41905" lon="6.73724">
        <ele>51</ele>
        <time>2012-10-13T08:51:37Z</time>
      </trkpt>
      <trkpt lat="43.41895" lon="6.73724">
        <ele>53</ele>
        <time>2012-10-13T08:51:42Z</time>
      </trkpt>
      <trkpt lat="43.41885" lon="6.73723">
        <ele>54</ele>
        <time>2012-10-13T08:51:46Z</time>
      </trkpt>
      <trkpt lat="43.41863" lon="6.73722">
        <ele>50</ele>
        <time>2012-10-13T08:51:57Z</time>
      </trkpt>
      <trkpt lat="43.4184" lon="6.73718">
        <ele>52</ele>
        <time>2012-10-13T08:52:13Z</time>
      </trkpt>
      <trkpt lat="43.4184" lon="6.73718">
        <ele>2</ele>
        <time>2012-10-13T08:52:22Z</time>
      </trkpt>
      <trkpt lat="43.41819" lon="6.73714">
        <ele>48</ele>
        <time>2012-10-13T09:01:22Z</time>
      </trkpt>
      <trkpt lat="43.41819" lon="6.73714">
        <ele>1</ele>
        <time>2012-10-13T09:01:22Z</time>
      </trkpt>
      <trkpt lat="43.41787" lon="6.73705">
        <ele>47</ele>
        <time>2012-10-13T09:01:31Z</time>
      </trkpt>
      <trkpt lat="43.41761" lon="6.73699">
        <ele>49</ele>
        <time>2012-10-13T09:01:38Z</time>
      </trkpt>
      <trkpt lat="43.4173" lon="6.73691">
        <ele>47</ele>
        <time>2012-10-13T09:01:46Z</time>
      </trkpt>
      <trkpt lat="43.41703" lon="6.73685">
        <ele>49</ele>
        <time>2012-10-13T09:01:53Z</time>
      </trkpt>
      <trkpt lat="43.41676" lon="6.73671">
        <ele>53</ele>
        <time>2012-10-13T09:02:00Z</time>
      </trkpt>
      <trkpt lat="43.41665" lon="6.73659">
        <ele>53</ele>
        <time>2012-10-13T09:02:04Z</time>
      </trkpt>
      <trkpt lat="43.41639" lon="6.73626">
        <ele>51</ele>
        <time>2012-10-13T09:02:12Z</time>
      </trkpt>
      <trkpt lat="43.41627" lon="6.73598">
        <ele>53</ele>
        <time>2012-10-13T09:02:18Z</time>
      </trkpt>
      <trkpt lat="43.41615" lon="6.73563">
        <ele>53</ele>
        <time>2012-10-13T09:02:25Z</time>
      </trkpt>
      <trkpt lat="43.4161" lon="6.73532">
        <ele>55</ele>
        <time>2012-10-13T09:02:31Z</time>
      </trkpt>
      <trkpt lat="43.41615" lon="6.73501">
        <ele>57</ele>
        <time>2012-10-13T09:02:40Z</time>
      </trkpt>
      <trkpt lat="43.41635" lon="6.73485">
        <ele>53</ele>
        <time>2012-10-13T09:02:46Z</time>
      </trkpt>
      <trkpt lat="43.41659" lon="6.73478">
        <ele>53</ele>
        <time>2012-10-13T09:02:52Z</time>
      </trkpt>
      <trkpt lat="43.41686" lon="6.73473">
        <ele>53</ele>
        <time>2012-10-13T09:02:59Z</time>
      </trkpt>
      <trkpt lat="43.41697" lon="6.73471">
        <ele>52</ele>
        <time>2012-10-13T09:03:02Z</time>
      </trkpt>
      <trkpt lat="43.41724" lon="6.73465">
        <ele>49</ele>
        <time>2012-10-13T09:03:09Z</time>
      </trkpt>
      <trkpt lat="43.41747" lon="6.7346">
        <ele>46</ele>
        <time>2012-10-13T09:03:15Z</time>
      </trkpt>
      <trkpt lat="43.41769" lon="6.73454">
        <ele>49</ele>
        <time>2012-10-13T09:03:21Z</time>
      </trkpt>
      <trkpt lat="43.41795" lon="6.73442">
        <ele>49</ele>
        <time>2012-10-13T09:03:28Z</time>
      </trkpt>
      <trkpt lat="43.4182" lon="6.73411">
        <ele>47</ele>
        <time>2012-10-13T09:03:37Z</time>
      </trkpt>
      <trkpt lat="43.41829" lon="6.73384">
        <ele>50</ele>
        <time>2012-10-13T09:03:43Z</time>
      </trkpt>
      <trkpt lat="43.41835" lon="6.73348">
        <ele>51</ele>
        <time>2012-10-13T09:03:50Z</time>
      </trkpt>
      <trkpt lat="43.41834" lon="6.73311">
        <ele>48</ele>
        <time>2012-10-13T09:03:57Z</time>
      </trkpt>
      <trkpt lat="43.41825" lon="6.73276">
        <ele>50</ele>
        <time>2012-10-13T09:04:04Z</time>
      </trkpt>
      <trkpt lat="43.41813" lon="6.7325">
        <ele>50</ele>
        <time>2012-10-13T09:04:10Z</time>
      </trkpt>
      <trkpt lat="43.41801" lon="6.73222">
        <ele>52</ele>
        <time>2012-10-13T09:04:17Z</time>
      </trkpt>
      <trkpt lat="43.41795" lon="6.7321">
        <ele>52</ele>
        <time>2012-10-13T09:04:20Z</time>
      </trkpt>
      <trkpt lat="43.4179" lon="6.73196">
        <ele>52</ele>
        <time>2012-10-13T09:04:23Z</time>
      </trkpt>
      <trkpt lat="43.41784" lon="6.73178">
        <ele>52</ele>
        <time>2012-10-13T09:04:26Z</time>
      </trkpt>
      <trkpt lat="43.41773" lon="6.73147">
        <ele>53</ele>
        <time>2012-10-13T09:04:32Z</time>
      </trkpt>
      <trkpt lat="43.41757" lon="6.73112">
        <ele>52</ele>
        <time>2012-10-13T09:04:40Z</time>
      </trkpt>
      <trkpt lat="43.41749" lon="6.73091">
        <ele>53</ele>
        <time>2012-10-13T09:04:45Z</time>
      </trkpt>
      <trkpt lat="43.4174" lon="6.73062">
        <ele>52</ele>
        <time>2012-10-13T09:04:52Z</time>
      </trkpt>
      <trkpt lat="43.41726" lon="6.73029">
        <ele>53</ele>
        <time>2012-10-13T09:05:00Z</time>
      </trkpt>
      <trkpt lat="43.41712" lon="6.72996">
        <ele>54</ele>
        <time>2012-10-13T09:05:08Z</time>
      </trkpt>
      <trkpt lat="43.41703" lon="6.72975">
        <ele>55</ele>
        <time>2012-10-13T09:05:13Z</time>
      </trkpt>
      <trkpt lat="43.41688" lon="6.7294">
        <ele>52</ele>
        <time>2012-10-13T09:05:21Z</time>
      </trkpt>
      <trkpt lat="43.41678" lon="6.72914">
        <ele>53</ele>
        <time>2012-10-13T09:05:27Z</time>
      </trkpt>
      <trkpt lat="43.41668" lon="6.72887">
        <ele>54</ele>
        <time>2012-10-13T09:05:34Z</time>
      </trkpt>
      <trkpt lat="43.4166" lon="6.72851">
        <ele>54</ele>
        <time>2012-10-13T09:05:43Z</time>
      </trkpt>
      <trkpt lat="43.41645" lon="6.72829">
        <ele>54</ele>
        <time>2012-10-13T09:05:50Z</time>
      </trkpt>
      <trkpt lat="43.4162" lon="6.72813">
        <ele>53</ele>
        <time>2012-10-13T09:05:59Z</time>
      </trkpt>
      <trkpt lat="43.41603" lon="6.72812">
        <ele>52</ele>
        <time>2012-10-13T09:06:04Z</time>
      </trkpt>
      <trkpt lat="43.41583" lon="6.7282">
        <ele>53</ele>
        <time>2012-10-13T09:06:10Z</time>
      </trkpt>
      <trkpt lat="43.4156" lon="6.72836">
        <ele>54</ele>
        <time>2012-10-13T09:06:17Z</time>
      </trkpt>
      <trkpt lat="43.41539" lon="6.72845">
        <ele>53</ele>
        <time>2012-10-13T09:06:23Z</time>
      </trkpt>
      <trkpt lat="43.41518" lon="6.72857">
        <ele>54</ele>
        <time>2012-10-13T09:06:28Z</time>
      </trkpt>
      <trkpt lat="43.41506" lon="6.72873">
        <ele>54</ele>
        <time>2012-10-13T09:06:32Z</time>
      </trkpt>
      <trkpt lat="43.41487" lon="6.72906">
        <ele>60</ele>
        <time>2012-10-13T09:06:39Z</time>
      </trkpt>
      <trkpt lat="43.41474" lon="6.72926">
        <ele>59</ele>
        <time>2012-10-13T09:06:44Z</time>
      </trkpt>
      <trkpt lat="43.41453" lon="6.72946">
        <ele>57</ele>
        <time>2012-10-13T09:06:51Z</time>
      </trkpt>
      <trkpt lat="43.41437" lon="6.72972">
        <ele>59</ele>
        <time>2012-10-13T09:06:57Z</time>
      </trkpt>
      <trkpt lat="43.41409" lon="6.73011">
        <ele>55</ele>
        <time>2012-10-13T09:07:04Z</time>
      </trkpt>
      <trkpt lat="43.41393" lon="6.73034">
        <ele>55</ele>
        <time>2012-10-13T09:07:09Z</time>
      </trkpt>
      <trkpt lat="43.41378" lon="6.73061">
        <ele>52</ele>
        <time>2012-10-13T09:07:16Z</time>
      </trkpt>
      <trkpt lat="43.41357" lon="6.73095">
        <ele>57</ele>
        <time>2012-10-13T09:07:24Z</time>
      </trkpt>
      <trkpt lat="43.41341" lon="6.73121">
        <ele>55</ele>
        <time>2012-10-13T09:07:30Z</time>
      </trkpt>
      <trkpt lat="43.41331" lon="6.73159">
        <ele>55</ele>
        <time>2012-10-13T09:07:36Z</time>
      </trkpt>
      <trkpt lat="43.41301" lon="6.73177">
        <ele>51</ele>
        <time>2012-10-13T09:07:43Z</time>
      </trkpt>
      <trkpt lat="43.41287" lon="6.73192">
        <ele>52</ele>
        <time>2012-10-13T09:07:52Z</time>
      </trkpt>
      <trkpt lat="43.41275" lon="6.73198">
        <ele>56</ele>
        <time>2012-10-13T09:08:02Z</time>
      </trkpt>
      <trkpt lat="43.4125" lon="6.7319">
        <ele>55</ele>
        <time>2012-10-13T09:08:18Z</time>
      </trkpt>
      <trkpt lat="43.41228" lon="6.73189">
        <ele>52</ele>
        <time>2012-10-13T09:08:30Z</time>
      </trkpt>
      <trkpt lat="43.41206" lon="6.73162">
        <ele>53</ele>
        <time>2012-10-13T09:08:39Z</time>
      </trkpt>
      <trkpt lat="43.41198" lon="6.73148">
        <ele>53</ele>
        <time>2012-10-13T09:08:44Z</time>
      </trkpt>
      <trkpt lat="43.41182" lon="6.73118">
        <ele>53</ele>
        <time>2012-10-13T09:08:56Z</time>
      </trkpt>
      <trkpt lat="43.41188" lon="6.73088">
        <ele>52</ele>
        <time>2012-10-13T09:09:02Z</time>
      </trkpt>
      <trkpt lat="43.41211" lon="6.73054">
        <ele>51</ele>
        <time>2012-10-13T09:09:10Z</time>
      </trkpt>
      <trkpt lat="43.4122" lon="6.73043">
        <ele>51</ele>
        <time>2012-10-13T09:09:13Z</time>
      </trkpt>
      <trkpt lat="43.41246" lon="6.7301">
        <ele>52</ele>
        <time>2012-10-13T09:09:20Z</time>
      </trkpt>
      <trkpt lat="43.41256" lon="6.72991">
        <ele>52</ele>
        <time>2012-10-13T09:09:23Z</time>
      </trkpt>
      <trkpt lat="43.41249" lon="6.72956">
        <ele>52</ele>
        <time>2012-10-13T09:09:29Z</time>
      </trkpt>
      <trkpt lat="43.41246" lon="6.7292">
        <ele>50</ele>
        <time>2012-10-13T09:09:34Z</time>
      </trkpt>
      <trkpt lat="43.41241" lon="6.72886">
        <ele>54</ele>
        <time>2012-10-13T09:09:39Z</time>
      </trkpt>
      <trkpt lat="43.4122" lon="6.72858">
        <ele>54</ele>
        <time>2012-10-13T09:09:45Z</time>
      </trkpt>
      <trkpt lat="43.41208" lon="6.72847">
        <ele>54</ele>
        <time>2012-10-13T09:09:48Z</time>
      </trkpt>
      <trkpt lat="43.41195" lon="6.72839">
        <ele>54</ele>
        <time>2012-10-13T09:09:51Z</time>
      </trkpt>
      <trkpt lat="43.41179" lon="6.72812">
        <ele>53</ele>
        <time>2012-10-13T09:09:58Z</time>
      </trkpt>
      <trkpt lat="43.41178" lon="6.72778">
        <ele>55</ele>
        <time>2012-10-13T09:10:04Z</time>
      </trkpt>
      <trkpt lat="43.41187" lon="6.7275">
        <ele>56</ele>
        <time>2012-10-13T09:10:09Z</time>
      </trkpt>
      <trkpt lat="43.41201" lon="6.72714">
        <ele>54</ele>
        <time>2012-10-13T09:10:14Z</time>
      </trkpt>
      <trkpt lat="43.41191" lon="6.72687">
        <ele>54</ele>
        <time>2012-10-13T09:10:20Z</time>
      </trkpt>
      <trkpt lat="43.41172" lon="6.72657">
        <ele>55</ele>
        <time>2012-10-13T09:10:27Z</time>
      </trkpt>
      <trkpt lat="43.41149" lon="6.72631">
        <ele>62</ele>
        <time>2012-10-13T09:10:34Z</time>
      </trkpt>
      <trkpt lat="43.41135" lon="6.72608">
        <ele>58</ele>
        <time>2012-10-13T09:10:39Z</time>
      </trkpt>
      <trkpt lat="43.41137" lon="6.72586">
        <ele>56</ele>
        <time>2012-10-13T09:10:44Z</time>
      </trkpt>
      <trkpt lat="43.41139" lon="6.72569">
        <ele>55</ele>
        <time>2012-10-13T09:10:53Z</time>
      </trkpt>
      <trkpt lat="43.41144" lon="6.72533">
        <ele>68</ele>
        <time>2012-10-13T09:11:09Z</time>
      </trkpt>
      <trkpt lat="43.4115" lon="6.72501">
        <ele>56</ele>
        <time>2012-10-13T09:11:23Z</time>
      </trkpt>
      <trkpt lat="43.41157" lon="6.72465">
        <ele>54</ele>
        <time>2012-10-13T09:11:32Z</time>
      </trkpt>
      <trkpt lat="43.41174" lon="6.7245">
        <ele>54</ele>
        <time>2012-10-13T09:11:42Z</time>
      </trkpt>
      <trkpt lat="43.41186" lon="6.72453">
        <ele>55</ele>
        <time>2012-10-13T09:11:58Z</time>
      </trkpt>
      <trkpt lat="43.41181" lon="6.72483">
        <ele>59</ele>
        <time>2012-10-13T09:12:26Z</time>
      </trkpt>
      <trkpt lat="43.41181" lon="6.72483">
        <ele>4</ele>
        <time>2012-10-13T09:12:33Z</time>
      </trkpt>
      <trkpt lat="43.41181" lon="6.72483">
        <ele>4</ele>
        <time>2012-10-13T09:13:17Z</time>
      </trkpt>
      <trkpt lat="43.41157" lon="6.72499">
        <ele>53</ele>
        <time>2012-10-13T09:13:17Z</time>
      </trkpt>
      <trkpt lat="43.4114" lon="6.72491">
        <ele>56</ele>
        <time>2012-10-13T09:13:25Z</time>
      </trkpt>
      <trkpt lat="43.41116" lon="6.72477">
        <ele>58</ele>
        <time>2012-10-13T09:13:35Z</time>
      </trkpt>
      <trkpt lat="43.41098" lon="6.72464">
        <ele>58</ele>
        <time>2012-10-13T09:13:41Z</time>
      </trkpt>
      <trkpt lat="43.41081" lon="6.72451">
        <ele>57</ele>
        <time>2012-10-13T09:13:46Z</time>
      </trkpt>
      <trkpt lat="43.41054" lon="6.72428">
        <ele>55</ele>
        <time>2012-10-13T09:13:52Z</time>
      </trkpt>
      <trkpt lat="43.41035" lon="6.72419">
        <ele>54</ele>
        <time>2012-10-13T09:13:55Z</time>
      </trkpt>
      <trkpt lat="43.41007" lon="6.72411">
        <ele>52</ele>
        <time>2012-10-13T09:13:59Z</time>
      </trkpt>
      <trkpt lat="43.40987" lon="6.72407">
        <ele>51</ele>
        <time>2012-10-13T09:14:02Z</time>
      </trkpt>
      <trkpt lat="43.40959" lon="6.72408">
        <ele>51</ele>
        <time>2012-10-13T09:14:07Z</time>
      </trkpt>
      <trkpt lat="43.40925" lon="6.72416">
        <ele>49</ele>
        <time>2012-10-13T09:14:13Z</time>
      </trkpt>
      <trkpt lat="43.40905" lon="6.72383">
        <ele>53</ele>
        <time>2012-10-13T09:14:19Z</time>
      </trkpt>
      <trkpt lat="43.40883" lon="6.72344">
        <ele>51</ele>
        <time>2012-10-13T09:14:25Z</time>
      </trkpt>
      <trkpt lat="43.40843" lon="6.7233">
        <ele>51</ele>
        <time>2012-10-13T09:14:32Z</time>
      </trkpt>
      <trkpt lat="43.40806" lon="6.72323">
        <ele>54</ele>
        <time>2012-10-13T09:14:38Z</time>
      </trkpt>
      <trkpt lat="43.40768" lon="6.72308">
        <ele>51</ele>
        <time>2012-10-13T09:14:44Z</time>
      </trkpt>
      <trkpt lat="43.40738" lon="6.72291">
        <ele>49</ele>
        <time>2012-10-13T09:14:49Z</time>
      </trkpt>
      <trkpt lat="43.40738" lon="6.72243">
        <ele>53</ele>
        <time>2012-10-13T09:14:55Z</time>
      </trkpt>
      <trkpt lat="43.40754" lon="6.72208">
        <ele>54</ele>
        <time>2012-10-13T09:15:00Z</time>
      </trkpt>
      <trkpt lat="43.40775" lon="6.72168">
        <ele>56</ele>
        <time>2012-10-13T09:15:06Z</time>
      </trkpt>
      <trkpt lat="43.40793" lon="6.7212">
        <ele>55</ele>
        <time>2012-10-13T09:15:12Z</time>
      </trkpt>
      <trkpt lat="43.40796" lon="6.72056">
        <ele>52</ele>
        <time>2012-10-13T09:15:19Z</time>
      </trkpt>
      <trkpt lat="43.40803" lon="6.72011">
        <ele>53</ele>
        <time>2012-10-13T09:15:24Z</time>
      </trkpt>
      <trkpt lat="43.40808" lon="6.71984">
        <ele>52</ele>
        <time>2012-10-13T09:15:27Z</time>
      </trkpt>
      <trkpt lat="43.40824" lon="6.71933">
        <ele>52</ele>
        <time>2012-10-13T09:15:33Z</time>
      </trkpt>
      <trkpt lat="43.40842" lon="6.71885">
        <ele>52</ele>
        <time>2012-10-13T09:15:39Z</time>
      </trkpt>
      <trkpt lat="43.40863" lon="6.71836">
        <ele>48</ele>
        <time>2012-10-13T09:15:45Z</time>
      </trkpt>
      <trkpt lat="43.40875" lon="6.71816">
        <ele>50</ele>
        <time>2012-10-13T09:15:48Z</time>
      </trkpt>
      <trkpt lat="43.40898" lon="6.71777">
        <ele>53</ele>
        <time>2012-10-13T09:15:54Z</time>
      </trkpt>
      <trkpt lat="43.40907" lon="6.71727">
        <ele>53</ele>
        <time>2012-10-13T09:16:00Z</time>
      </trkpt>
      <trkpt lat="43.40917" lon="6.71676">
        <ele>54</ele>
        <time>2012-10-13T09:16:06Z</time>
      </trkpt>
      <trkpt lat="43.40925" lon="6.71636">
        <ele>54</ele>
        <time>2012-10-13T09:16:11Z</time>
      </trkpt>
      <trkpt lat="43.40929" lon="6.71611">
        <ele>54</ele>
        <time>2012-10-13T09:16:14Z</time>
      </trkpt>
      <trkpt lat="43.40939" lon="6.71562">
        <ele>54</ele>
        <time>2012-10-13T09:16:20Z</time>
      </trkpt>
      <trkpt lat="43.40947" lon="6.71509">
        <ele>49</ele>
        <time>2012-10-13T09:16:26Z</time>
      </trkpt>
      <trkpt lat="43.40961" lon="6.7147">
        <ele>54</ele>
        <time>2012-10-13T09:16:32Z</time>
      </trkpt>
      <trkpt lat="43.40991" lon="6.71447">
        <ele>47</ele>
        <time>2012-10-13T09:16:38Z</time>
      </trkpt>
      <trkpt lat="43.41016" lon="6.71424">
        <ele>53</ele>
        <time>2012-10-13T09:16:43Z</time>
      </trkpt>
      <trkpt lat="43.4103" lon="6.7141">
        <ele>55</ele>
        <time>2012-10-13T09:16:46Z</time>
      </trkpt>
      <trkpt lat="43.41057" lon="6.7138">
        <ele>51</ele>
        <time>2012-10-13T09:16:52Z</time>
      </trkpt>
      <trkpt lat="43.41085" lon="6.71339">
        <ele>50</ele>
        <time>2012-10-13T09:16:58Z</time>
      </trkpt>
      <trkpt lat="43.41105" lon="6.71301">
        <ele>54</ele>
        <time>2012-10-13T09:17:04Z</time>
      </trkpt>
      <trkpt lat="43.41123" lon="6.71275">
        <ele>50</ele>
        <time>2012-10-13T09:17:09Z</time>
      </trkpt>
      <trkpt lat="43.4114" lon="6.71271">
        <ele>52</ele>
        <time>2012-10-13T09:17:12Z</time>
      </trkpt>
      <trkpt lat="43.41157" lon="6.71264">
        <ele>55</ele>
        <time>2012-10-13T09:17:15Z</time>
      </trkpt>
      <trkpt lat="43.41182" lon="6.7124">
        <ele>52</ele>
        <time>2012-10-13T09:17:21Z</time>
      </trkpt>
      <trkpt lat="43.41219" lon="6.71201">
        <ele>55</ele>
        <time>2012-10-13T09:17:29Z</time>
      </trkpt>
      <trkpt lat="43.41231" lon="6.71185">
        <ele>54</ele>
        <time>2012-10-13T09:17:32Z</time>
      </trkpt>
      <trkpt lat="43.41241" lon="6.71166">
        <ele>50</ele>
        <time>2012-10-13T09:17:35Z</time>
      </trkpt>
      <trkpt lat="43.41258" lon="6.71125">
        <ele>51</ele>
        <time>2012-10-13T09:17:41Z</time>
      </trkpt>
      <trkpt lat="43.41269" lon="6.71091">
        <ele>53</ele>
        <time>2012-10-13T09:17:46Z</time>
      </trkpt>
      <trkpt lat="43.41285" lon="6.71058">
        <ele>54</ele>
        <time>2012-10-13T09:17:52Z</time>
      </trkpt>
      <trkpt lat="43.41305" lon="6.71026">
        <ele>58</ele>
        <time>2012-10-13T09:17:58Z</time>
      </trkpt>
      <trkpt lat="43.41325" lon="6.70997">
        <ele>57</ele>
        <time>2012-10-13T09:18:03Z</time>
      </trkpt>
      <trkpt lat="43.41346" lon="6.70969">
        <ele>55</ele>
        <time>2012-10-13T09:18:08Z</time>
      </trkpt>
      <trkpt lat="43.41364" lon="6.7094">
        <ele>60</ele>
        <time>2012-10-13T09:18:13Z</time>
      </trkpt>
      <trkpt lat="43.41388" lon="6.70907">
        <ele>57</ele>
        <time>2012-10-13T09:18:19Z</time>
      </trkpt>
      <trkpt lat="43.414" lon="6.70889">
        <ele>57</ele>
        <time>2012-10-13T09:18:22Z</time>
      </trkpt>
      <trkpt lat="43.41411" lon="6.70868">
        <ele>58</ele>
        <time>2012-10-13T09:18:25Z</time>
      </trkpt>
      <trkpt lat="43.41428" lon="6.7082">
        <ele>53</ele>
        <time>2012-10-13T09:18:31Z</time>
      </trkpt>
      <trkpt lat="43.41431" lon="6.70794">
        <ele>52</ele>
        <time>2012-10-13T09:18:34Z</time>
      </trkpt>
      <trkpt lat="43.41439" lon="6.70747">
        <ele>50</ele>
        <time>2012-10-13T09:18:40Z</time>
      </trkpt>
      <trkpt lat="43.41446" lon="6.70729">
        <ele>52</ele>
        <time>2012-10-13T09:18:43Z</time>
      </trkpt>
      <trkpt lat="43.41456" lon="6.70692">
        <ele>54</ele>
        <time>2012-10-13T09:18:49Z</time>
      </trkpt>
      <trkpt lat="43.41447" lon="6.70656">
        <ele>53</ele>
        <time>2012-10-13T09:18:55Z</time>
      </trkpt>
      <trkpt lat="43.41431" lon="6.70645">
        <ele>53</ele>
        <time>2012-10-13T09:19:01Z</time>
      </trkpt>
      <trkpt lat="43.41403" lon="6.70639">
        <ele>55</ele>
        <time>2012-10-13T09:19:07Z</time>
      </trkpt>
      <trkpt lat="43.41403" lon="6.70639">
        <ele>3</ele>
        <time>2012-10-13T09:19:14Z</time>
      </trkpt>
      <trkpt lat="43.41403" lon="6.70639">
        <ele>3</ele>
        <time>2012-10-13T09:19:20Z</time>
      </trkpt>
      <trkpt lat="43.41372" lon="6.70659">
        <ele>53</ele>
        <time>2012-10-13T09:19:20Z</time>
      </trkpt>
      <trkpt lat="43.41347" lon="6.70653">
        <ele>51</ele>
        <time>2012-10-13T09:19:26Z</time>
      </trkpt>
      <trkpt lat="43.41329" lon="6.70632">
        <ele>51</ele>
        <time>2012-10-13T09:19:31Z</time>
      </trkpt>
      <trkpt lat="43.41315" lon="6.70616">
        <ele>55</ele>
        <time>2012-10-13T09:19:38Z</time>
      </trkpt>
      <trkpt lat="43.41285" lon="6.70581">
        <ele>57</ele>
        <time>2012-10-13T09:19:52Z</time>
      </trkpt>
      <trkpt lat="43.41284" lon="6.7054">
        <ele>60</ele>
        <time>2012-10-13T09:20:01Z</time>
      </trkpt>
      <trkpt lat="43.41287" lon="6.70505">
        <ele>56</ele>
        <time>2012-10-13T09:20:06Z</time>
      </trkpt>
      <trkpt lat="43.41298" lon="6.70462">
        <ele>54</ele>
        <time>2012-10-13T09:20:12Z</time>
      </trkpt>
      <trkpt lat="43.41313" lon="6.7042">
        <ele>55</ele>
        <time>2012-10-13T09:20:18Z</time>
      </trkpt>
      <trkpt lat="43.41319" lon="6.70401">
        <ele>54</ele>
        <time>2012-10-13T09:20:21Z</time>
      </trkpt>
      <trkpt lat="43.41328" lon="6.70374">
        <ele>53</ele>
        <time>2012-10-13T09:20:26Z</time>
      </trkpt>
      <trkpt lat="43.41338" lon="6.70337">
        <ele>52</ele>
        <time>2012-10-13T09:20:33Z</time>
      </trkpt>
      <trkpt lat="43.41341" lon="6.70295">
        <ele>54</ele>
        <time>2012-10-13T09:20:40Z</time>
      </trkpt>
      <trkpt lat="43.41338" lon="6.70269">
        <ele>53</ele>
        <time>2012-10-13T09:20:46Z</time>
      </trkpt>
      <trkpt lat="43.41332" lon="6.7024">
        <ele>56</ele>
        <time>2012-10-13T09:20:54Z</time>
      </trkpt>
      <trkpt lat="43.41326" lon="6.70212">
        <ele>54</ele>
        <time>2012-10-13T09:21:00Z</time>
      </trkpt>
      <trkpt lat="43.41318" lon="6.70178">
        <ele>56</ele>
        <time>2012-10-13T09:21:07Z</time>
      </trkpt>
      <trkpt lat="43.41313" lon="6.70164">
        <ele>58</ele>
        <time>2012-10-13T09:21:10Z</time>
      </trkpt>
      <trkpt lat="43.41299" lon="6.70129">
        <ele>58</ele>
        <time>2012-10-13T09:21:19Z</time>
      </trkpt>
      <trkpt lat="43.41286" lon="6.70103">
        <ele>55</ele>
        <time>2012-10-13T09:21:25Z</time>
      </trkpt>
      <trkpt lat="43.41282" lon="6.70087">
        <ele>54</ele>
        <time>2012-10-13T09:21:31Z</time>
      </trkpt>
      <trkpt lat="43.41279" lon="6.70014">
        <ele>52</ele>
        <time>2012-10-13T09:21:42Z</time>
      </trkpt>
      <trkpt lat="43.41271" lon="6.69971">
        <ele>52</ele>
        <time>2012-10-13T09:21:48Z</time>
      </trkpt>
      <trkpt lat="43.41267" lon="6.69953">
        <ele>52</ele>
        <time>2012-10-13T09:21:51Z</time>
      </trkpt>
      <trkpt lat="43.41261" lon="6.6992">
        <ele>53</ele>
        <time>2012-10-13T09:21:56Z</time>
      </trkpt>
      <trkpt lat="43.41257" lon="6.69899">
        <ele>54</ele>
        <time>2012-10-13T09:21:59Z</time>
      </trkpt>
      <trkpt lat="43.41245" lon="6.69858">
        <ele>54</ele>
        <time>2012-10-13T09:22:05Z</time>
      </trkpt>
      <trkpt lat="43.41228" lon="6.69827">
        <ele>56</ele>
        <time>2012-10-13T09:22:11Z</time>
      </trkpt>
      <trkpt lat="43.41217" lon="6.69799">
        <ele>53</ele>
        <time>2012-10-13T09:22:16Z</time>
      </trkpt>
      <trkpt lat="43.41207" lon="6.69768">
        <ele>60</ele>
        <time>2012-10-13T09:22:22Z</time>
      </trkpt>
      <trkpt lat="43.41193" lon="6.69735">
        <ele>57</ele>
        <time>2012-10-13T09:22:28Z</time>
      </trkpt>
      <trkpt lat="43.41179" lon="6.69707">
        <ele>58</ele>
        <time>2012-10-13T09:22:33Z</time>
      </trkpt>
      <trkpt lat="43.41159" lon="6.69687">
        <ele>58</ele>
        <time>2012-10-13T09:22:39Z</time>
      </trkpt>
      <trkpt lat="43.41133" lon="6.69706">
        <ele>62</ele>
        <time>2012-10-13T09:22:45Z</time>
      </trkpt>
      <trkpt lat="43.41127" lon="6.69725">
        <ele>63</ele>
        <time>2012-10-13T09:22:49Z</time>
      </trkpt>
      <trkpt lat="43.41113" lon="6.69754">
        <ele>60</ele>
        <time>2012-10-13T09:22:57Z</time>
      </trkpt>
      <trkpt lat="43.41095" lon="6.69772">
        <ele>60</ele>
        <time>2012-10-13T09:23:05Z</time>
      </trkpt>
      <trkpt lat="43.41086" lon="6.69789">
        <ele>62</ele>
        <time>2012-10-13T09:23:09Z</time>
      </trkpt>
      <trkpt lat="43.41077" lon="6.6981">
        <ele>61</ele>
        <time>2012-10-13T09:23:14Z</time>
      </trkpt>
      <trkpt lat="43.41066" lon="6.69839">
        <ele>65</ele>
        <time>2012-10-13T09:23:22Z</time>
      </trkpt>
      <trkpt lat="43.41056" lon="6.69872">
        <ele>65</ele>
        <time>2012-10-13T09:23:31Z</time>
      </trkpt>
      <trkpt lat="43.41041" lon="6.69894">
        <ele>70</ele>
        <time>2012-10-13T09:23:39Z</time>
      </trkpt>
      <trkpt lat="43.4105" lon="6.69924">
        <ele>75</ele>
        <time>2012-10-13T09:23:47Z</time>
      </trkpt>
      <trkpt lat="43.41036" lon="6.69953">
        <ele>78</ele>
        <time>2012-10-13T09:23:57Z</time>
      </trkpt>
      <trkpt lat="43.41036" lon="6.69953">
        <ele>33</ele>
        <time>2012-10-13T09:24:11Z</time>
      </trkpt>
      <trkpt lat="43.41036" lon="6.69953">
        <ele>33</ele>
        <time>2012-10-13T09:24:29Z</time>
      </trkpt>
      <trkpt lat="43.41038" lon="6.70008">
        <ele>88</ele>
        <time>2012-10-13T09:24:29Z</time>
      </trkpt>
      <trkpt lat="43.41037" lon="6.70042">
        <ele>93</ele>
        <time>2012-10-13T09:24:43Z</time>
      </trkpt>
      <trkpt lat="43.41042" lon="6.7007">
        <ele>98</ele>
        <time>2012-10-13T09:24:58Z</time>
      </trkpt>
      <trkpt lat="43.41042" lon="6.7007">
        <ele>46</ele>
        <time>2012-10-13T09:25:10Z</time>
      </trkpt>
      <trkpt lat="43.41042" lon="6.7007">
        <ele>46</ele>
        <time>2012-10-13T09:25:27Z</time>
      </trkpt>
      <trkpt lat="43.4104" lon="6.70109">
        <ele>102</ele>
        <time>2012-10-13T09:25:27Z</time>
      </trkpt>
      <trkpt lat="43.41028" lon="6.70125">
        <ele>100</ele>
        <time>2012-10-13T09:25:45Z</time>
      </trkpt>
      <trkpt lat="43.41013" lon="6.70142">
        <ele>98</ele>
        <time>2012-10-13T09:25:57Z</time>
      </trkpt>
      <trkpt lat="43.41013" lon="6.70142">
        <ele>51</ele>
        <time>2012-10-13T09:26:15Z</time>
      </trkpt>
      <trkpt lat="43.41013" lon="6.70142">
        <ele>51</ele>
        <time>2012-10-13T09:26:25Z</time>
      </trkpt>
      <trkpt lat="43.40966" lon="6.70142">
        <ele>102</ele>
        <time>2012-10-13T09:26:25Z</time>
      </trkpt>
      <trkpt lat="43.4095" lon="6.70157">
        <ele>105</ele>
        <time>2012-10-13T09:26:31Z</time>
      </trkpt>
      <trkpt lat="43.40929" lon="6.70172">
        <ele>108</ele>
        <time>2012-10-13T09:26:41Z</time>
      </trkpt>
      <trkpt lat="43.40929" lon="6.70172">
        <ele>57</ele>
        <time>2012-10-13T09:26:51Z</time>
      </trkpt>
      <trkpt lat="43.40929" lon="6.70172">
        <ele>57</ele>
        <time>2012-10-13T09:27:26Z</time>
      </trkpt>
      <trkpt lat="43.40905" lon="6.70165">
        <ele>107</ele>
        <time>2012-10-13T09:27:26Z</time>
      </trkpt>
      <trkpt lat="43.40886" lon="6.70191">
        <ele>112</ele>
        <time>2012-10-13T09:27:35Z</time>
      </trkpt>
      <trkpt lat="43.40866" lon="6.70227">
        <ele>113</ele>
        <time>2012-10-13T09:27:44Z</time>
      </trkpt>
      <trkpt lat="43.40867" lon="6.70239">
        <ele>112</ele>
        <time>2012-10-13T09:27:51Z</time>
      </trkpt>
      <trkpt lat="43.40832" lon="6.70241">
        <ele>108</ele>
        <time>2012-10-13T09:28:01Z</time>
      </trkpt>
      <trkpt lat="43.40802" lon="6.70241">
        <ele>104</ele>
        <time>2012-10-13T09:28:08Z</time>
      </trkpt>
      <trkpt lat="43.40779" lon="6.7023">
        <ele>101</ele>
        <time>2012-10-13T09:28:14Z</time>
      </trkpt>
      <trkpt lat="43.40763" lon="6.70214">
        <ele>106</ele>
        <time>2012-10-13T09:28:19Z</time>
      </trkpt>
      <trkpt lat="43.40749" lon="6.70201">
        <ele>107</ele>
        <time>2012-10-13T09:28:24Z</time>
      </trkpt>
      <trkpt lat="43.40736" lon="6.70191">
        <ele>112</ele>
        <time>2012-10-13T09:28:30Z</time>
      </trkpt>
      <trkpt lat="43.40727" lon="6.70183">
        <ele>112</ele>
        <time>2012-10-13T09:28:36Z</time>
      </trkpt>
      <trkpt lat="43.4071" lon="6.70175">
        <ele>111</ele>
        <time>2012-10-13T09:28:44Z</time>
      </trkpt>
      <trkpt lat="43.40684" lon="6.70161">
        <ele>110</ele>
        <time>2012-10-13T09:28:54Z</time>
      </trkpt>
      <trkpt lat="43.40659" lon="6.70153">
        <ele>114</ele>
        <time>2012-10-13T09:29:03Z</time>
      </trkpt>
      <trkpt lat="43.40645" lon="6.70146">
        <ele>115</ele>
        <time>2012-10-13T09:29:08Z</time>
      </trkpt>
      <trkpt lat="43.4063" lon="6.70138">
        <ele>119</ele>
        <time>2012-10-13T09:29:13Z</time>
      </trkpt>
      <trkpt lat="43.40618" lon="6.70131">
        <ele>119</ele>
        <time>2012-10-13T09:29:16Z</time>
      </trkpt>
      <trkpt lat="43.40606" lon="6.70123">
        <ele>115</ele>
        <time>2012-10-13T09:29:19Z</time>
      </trkpt>
      <trkpt lat="43.40581" lon="6.70112">
        <ele>113</ele>
        <time>2012-10-13T09:29:25Z</time>
      </trkpt>
      <trkpt lat="43.40554" lon="6.70109">
        <ele>116</ele>
        <time>2012-10-13T09:29:31Z</time>
      </trkpt>
      <trkpt lat="43.40524" lon="6.70101">
        <ele>113</ele>
        <time>2012-10-13T09:29:38Z</time>
      </trkpt>
      <trkpt lat="43.40512" lon="6.70099">
        <ele>115</ele>
        <time>2012-10-13T09:29:41Z</time>
      </trkpt>
      <trkpt lat="43.40494" lon="6.70097">
        <ele>116</ele>
        <time>2012-10-13T09:29:49Z</time>
      </trkpt>
      <trkpt lat="43.40471" lon="6.70104">
        <ele>114</ele>
        <time>2012-10-13T09:30:01Z</time>
      </trkpt>
      <trkpt lat="43.40444" lon="6.70099">
        <ele>121</ele>
        <time>2012-10-13T09:30:17Z</time>
      </trkpt>
      <trkpt lat="43.40427" lon="6.70087">
        <ele>121</ele>
        <time>2012-10-13T09:30:27Z</time>
      </trkpt>
      <trkpt lat="43.40415" lon="6.70079">
        <ele>122</ele>
        <time>2012-10-13T09:30:33Z</time>
      </trkpt>
      <trkpt lat="43.40402" lon="6.70072">
        <ele>123</ele>
        <time>2012-10-13T09:30:40Z</time>
      </trkpt>
      <trkpt lat="43.4037" lon="6.70059">
        <ele>128</ele>
        <time>2012-10-13T09:30:55Z</time>
      </trkpt>
      <trkpt lat="43.40339" lon="6.70041">
        <ele>130</ele>
        <time>2012-10-13T09:31:05Z</time>
      </trkpt>
      <trkpt lat="43.40316" lon="6.70027">
        <ele>126</ele>
        <time>2012-10-13T09:31:11Z</time>
      </trkpt>
      <trkpt lat="43.40296" lon="6.70008">
        <ele>128</ele>
        <time>2012-10-13T09:31:17Z</time>
      </trkpt>
      <trkpt lat="43.4027" lon="6.69976">
        <ele>126</ele>
        <time>2012-10-13T09:31:24Z</time>
      </trkpt>
      <trkpt lat="43.40244" lon="6.69951">
        <ele>123</ele>
        <time>2012-10-13T09:31:29Z</time>
      </trkpt>
      <trkpt lat="43.40227" lon="6.69944">
        <ele>122</ele>
        <time>2012-10-13T09:31:32Z</time>
      </trkpt>
      <trkpt lat="43.40182" lon="6.69978">
        <ele>122</ele>
        <time>2012-10-13T09:31:39Z</time>
      </trkpt>
      <trkpt lat="43.40142" lon="6.70021">
        <ele>117</ele>
        <time>2012-10-13T09:31:44Z</time>
      </trkpt>
      <trkpt lat="43.40112" lon="6.70056">
        <ele>119</ele>
        <time>2012-10-13T09:31:50Z</time>
      </trkpt>
      <trkpt lat="43.40102" lon="6.70071">
        <ele>115</ele>
        <time>2012-10-13T09:31:55Z</time>
      </trkpt>
      <trkpt lat="43.40087" lon="6.70102">
        <ele>120</ele>
        <time>2012-10-13T09:32:05Z</time>
      </trkpt>
      <trkpt lat="43.4007" lon="6.70124">
        <ele>117</ele>
        <time>2012-10-13T09:32:14Z</time>
      </trkpt>
      <trkpt lat="43.40052" lon="6.70128">
        <ele>118</ele>
        <time>2012-10-13T09:32:21Z</time>
      </trkpt>
      <trkpt lat="43.4004" lon="6.70118">
        <ele>122</ele>
        <time>2012-10-13T09:32:28Z</time>
      </trkpt>
      <trkpt lat="43.40021" lon="6.70108">
        <ele>130</ele>
        <time>2012-10-13T09:32:39Z</time>
      </trkpt>
      <trkpt lat="43.40007" lon="6.70106">
        <ele>132</ele>
        <time>2012-10-13T09:32:47Z</time>
      </trkpt>
      <trkpt lat="43.39984" lon="6.70112">
        <ele>127</ele>
        <time>2012-10-13T09:32:58Z</time>
      </trkpt>
      <trkpt lat="43.39974" lon="6.70117">
        <ele>129</ele>
        <time>2012-10-13T09:33:04Z</time>
      </trkpt>
      <trkpt lat="43.39949" lon="6.70125">
        <ele>129</ele>
        <time>2012-10-13T09:33:21Z</time>
      </trkpt>
      <trkpt lat="43.39927" lon="6.70133">
        <ele>139</ele>
        <time>2012-10-13T09:33:38Z</time>
      </trkpt>
      <trkpt lat="43.39906" lon="6.70137">
        <ele>144</ele>
        <time>2012-10-13T09:33:51Z</time>
      </trkpt>
      <trkpt lat="43.39881" lon="6.70152">
        <ele>147</ele>
        <time>2012-10-13T09:34:02Z</time>
      </trkpt>
      <trkpt lat="43.39861" lon="6.70174">
        <ele>150</ele>
        <time>2012-10-13T09:34:13Z</time>
      </trkpt>
      <trkpt lat="43.39861" lon="6.70174">
        <ele>101</ele>
        <time>2012-10-13T09:34:24Z</time>
      </trkpt>
      <trkpt lat="43.39861" lon="6.70174">
        <ele>101</ele>
        <time>2012-10-13T09:34:57Z</time>
      </trkpt>
      <trkpt lat="43.39837" lon="6.70186">
        <ele>152</ele>
        <time>2012-10-13T09:34:57Z</time>
      </trkpt>
      <trkpt lat="43.39815" lon="6.70184">
        <ele>149</ele>
        <time>2012-10-13T09:35:06Z</time>
      </trkpt>
      <trkpt lat="43.39805" lon="6.70183">
        <ele>150</ele>
        <time>2012-10-13T09:35:09Z</time>
      </trkpt>
      <trkpt lat="43.39795" lon="6.70182">
        <ele>154</ele>
        <time>2012-10-13T09:35:12Z</time>
      </trkpt>
      <trkpt lat="43.39783" lon="6.70181">
        <ele>153</ele>
        <time>2012-10-13T09:35:16Z</time>
      </trkpt>
      <trkpt lat="43.39755" lon="6.70175">
        <ele>151</ele>
        <time>2012-10-13T09:35:25Z</time>
      </trkpt>
      <trkpt lat="43.39731" lon="6.70169">
        <ele>151</ele>
        <time>2012-10-13T09:35:31Z</time>
      </trkpt>
      <trkpt lat="43.39702" lon="6.7016">
        <ele>148</ele>
        <time>2012-10-13T09:35:37Z</time>
      </trkpt>
      <trkpt lat="43.3968" lon="6.70149">
        <ele>148</ele>
        <time>2012-10-13T09:35:42Z</time>
      </trkpt>
      <trkpt lat="43.39664" lon="6.70133">
        <ele>150</ele>
        <time>2012-10-13T09:35:47Z</time>
      </trkpt>
      <trkpt lat="43.39651" lon="6.70118">
        <ele>147</ele>
        <time>2012-10-13T09:35:53Z</time>
      </trkpt>
      <trkpt lat="43.39638" lon="6.70089">
        <ele>158</ele>
        <time>2012-10-13T09:36:04Z</time>
      </trkpt>
      <trkpt lat="43.39623" lon="6.70064">
        <ele>154</ele>
        <time>2012-10-13T09:36:14Z</time>
      </trkpt>
      <trkpt lat="43.39599" lon="6.70061">
        <ele>160</ele>
        <time>2012-10-13T09:36:23Z</time>
      </trkpt>
      <trkpt lat="43.39567" lon="6.70076">
        <ele>160</ele>
        <time>2012-10-13T09:36:34Z</time>
      </trkpt>
      <trkpt lat="43.39544" lon="6.70087">
        <ele>165</ele>
        <time>2012-10-13T09:36:39Z</time>
      </trkpt>
      <trkpt lat="43.39515" lon="6.70103">
        <ele>167</ele>
        <time>2012-10-13T09:36:44Z</time>
      </trkpt>
      <trkpt lat="43.39475" lon="6.70106">
        <ele>161</ele>
        <time>2012-10-13T09:36:50Z</time>
      </trkpt>
      <trkpt lat="43.39454" lon="6.70103">
        <ele>154</ele>
        <time>2012-10-13T09:36:54Z</time>
      </trkpt>
      <trkpt lat="43.39416" lon="6.70095">
        <ele>152</ele>
        <time>2012-10-13T09:37:00Z</time>
      </trkpt>
      <trkpt lat="43.39382" lon="6.70084">
        <ele>150</ele>
        <time>2012-10-13T09:37:06Z</time>
      </trkpt>
      <trkpt lat="43.39355" lon="6.70064">
        <ele>151</ele>
        <time>2012-10-13T09:37:12Z</time>
      </trkpt>
      <trkpt lat="43.39328" lon="6.70029">
        <ele>148</ele>
        <time>2012-10-13T09:37:18Z</time>
      </trkpt>
      <trkpt lat="43.39316" lon="6.70015">
        <ele>149</ele>
        <time>2012-10-13T09:37:21Z</time>
      </trkpt>
      <trkpt lat="43.39298" lon="6.69992">
        <ele>152</ele>
        <time>2012-10-13T09:37:26Z</time>
      </trkpt>
      <trkpt lat="43.39278" lon="6.69964">
        <ele>153</ele>
        <time>2012-10-13T09:37:33Z</time>
      </trkpt>
      <trkpt lat="43.39265" lon="6.69944">
        <ele>153</ele>
        <time>2012-10-13T09:37:38Z</time>
      </trkpt>
      <trkpt lat="43.39246" lon="6.69933">
        <ele>150</ele>
        <time>2012-10-13T09:37:43Z</time>
      </trkpt>
      <trkpt lat="43.39218" lon="6.69916">
        <ele>151</ele>
        <time>2012-10-13T09:37:49Z</time>
      </trkpt>
      <trkpt lat="43.39193" lon="6.69885">
        <ele>154</ele>
        <time>2012-10-13T09:37:54Z</time>
      </trkpt>
      <trkpt lat="43.39175" lon="6.69866">
        <ele>154</ele>
        <time>2012-10-13T09:38:00Z</time>
      </trkpt>
      <trkpt lat="43.39158" lon="6.69859">
        <ele>157</ele>
        <time>2012-10-13T09:38:07Z</time>
      </trkpt>
      <trkpt lat="43.39136" lon="6.6984">
        <ele>157</ele>
        <time>2012-10-13T09:38:20Z</time>
      </trkpt>
      <trkpt lat="43.39133" lon="6.69806">
        <ele>159</ele>
        <time>2012-10-13T09:38:33Z</time>
      </trkpt>
      <trkpt lat="43.3913" lon="6.69785">
        <ele>162</ele>
        <time>2012-10-13T09:38:41Z</time>
      </trkpt>
      <trkpt lat="43.39131" lon="6.69752">
        <ele>163</ele>
        <time>2012-10-13T09:38:54Z</time>
      </trkpt>
      <trkpt lat="43.39132" lon="6.69733">
        <ele>166</ele>
        <time>2012-10-13T09:39:02Z</time>
      </trkpt>
      <trkpt lat="43.39128" lon="6.69696">
        <ele>166</ele>
        <time>2012-10-13T09:39:16Z</time>
      </trkpt>
      <trkpt lat="43.39124" lon="6.69677">
        <ele>168</ele>
        <time>2012-10-13T09:39:24Z</time>
      </trkpt>
      <trkpt lat="43.39114" lon="6.69647">
        <ele>171</ele>
        <time>2012-10-13T09:39:37Z</time>
      </trkpt>
      <trkpt lat="43.3911" lon="6.6962">
        <ele>172</ele>
        <time>2012-10-13T09:39:48Z</time>
      </trkpt>
      <trkpt lat="43.39106" lon="6.69603">
        <ele>176</ele>
        <time>2012-10-13T09:39:57Z</time>
      </trkpt>
      <trkpt lat="43.39101" lon="6.69587">
        <ele>181</ele>
        <time>2012-10-13T09:40:08Z</time>
      </trkpt>
      <trkpt lat="43.39095" lon="6.69564">
        <ele>181</ele>
        <time>2012-10-13T09:40:21Z</time>
      </trkpt>
      <trkpt lat="43.39086" lon="6.69539">
        <ele>187</ele>
        <time>2012-10-13T09:40:33Z</time>
      </trkpt>
      <trkpt lat="43.39077" lon="6.69527">
        <ele>187</ele>
        <time>2012-10-13T09:40:41Z</time>
      </trkpt>
      <trkpt lat="43.39055" lon="6.69516">
        <ele>190</ele>
        <time>2012-10-13T09:40:54Z</time>
      </trkpt>
      <trkpt lat="43.39031" lon="6.69499">
        <ele>199</ele>
        <time>2012-10-13T09:41:08Z</time>
      </trkpt>
      <trkpt lat="43.39008" lon="6.6948">
        <ele>205</ele>
        <time>2012-10-13T09:41:20Z</time>
      </trkpt>
      <trkpt lat="43.38994" lon="6.69472">
        <ele>206</ele>
        <time>2012-10-13T09:41:28Z</time>
      </trkpt>
      <trkpt lat="43.38973" lon="6.6945">
        <ele>208</ele>
        <time>2012-10-13T09:41:43Z</time>
      </trkpt>
      <trkpt lat="43.38961" lon="6.69416">
        <ele>209</ele>
        <time>2012-10-13T09:41:53Z</time>
      </trkpt>
      <trkpt lat="43.38955" lon="6.69392">
        <ele>213</ele>
        <time>2012-10-13T09:42:02Z</time>
      </trkpt>
      <trkpt lat="43.3895" lon="6.69374">
        <ele>217</ele>
        <time>2012-10-13T09:42:12Z</time>
      </trkpt>
      <trkpt lat="43.38941" lon="6.6935">
        <ele>219</ele>
        <time>2012-10-13T09:42:27Z</time>
      </trkpt>
      <trkpt lat="43.38926" lon="6.69322">
        <ele>222</ele>
        <time>2012-10-13T09:42:40Z</time>
      </trkpt>
      <trkpt lat="43.38914" lon="6.69306">
        <ele>225</ele>
        <time>2012-10-13T09:42:50Z</time>
      </trkpt>
      <trkpt lat="43.38888" lon="6.69294">
        <ele>229</ele>
        <time>2012-10-13T09:43:08Z</time>
      </trkpt>
      <trkpt lat="43.38864" lon="6.69285">
        <ele>232</ele>
        <time>2012-10-13T09:43:22Z</time>
      </trkpt>
      <trkpt lat="43.38864" lon="6.69285">
        <ele>185</ele>
        <time>2012-10-13T09:43:35Z</time>
      </trkpt>
      <trkpt lat="43.38864" lon="6.69285">
        <ele>185</ele>
        <time>2012-10-13T09:43:41Z</time>
      </trkpt>
      <trkpt lat="43.3884" lon="6.69271">
        <ele>244</ele>
        <time>2012-10-13T09:43:41Z</time>
      </trkpt>
      <trkpt lat="43.3882" lon="6.69254">
        <ele>246</ele>
        <time>2012-10-13T09:43:53Z</time>
      </trkpt>
      <trkpt lat="43.38807" lon="6.69232">
        <ele>247</ele>
        <time>2012-10-13T09:44:05Z</time>
      </trkpt>
      <trkpt lat="43.3879" lon="6.69206">
        <ele>249</ele>
        <time>2012-10-13T09:44:19Z</time>
      </trkpt>
      <trkpt lat="43.38778" lon="6.69195">
        <ele>248</ele>
        <time>2012-10-13T09:44:26Z</time>
      </trkpt>
      <trkpt lat="43.38769" lon="6.69187">
        <ele>245</ele>
        <time>2012-10-13T09:44:31Z</time>
      </trkpt>
      <trkpt lat="43.38755" lon="6.69168">
        <ele>253</ele>
        <time>2012-10-13T09:44:42Z</time>
      </trkpt>
      <trkpt lat="43.38738" lon="6.69151">
        <ele>258</ele>
        <time>2012-10-13T09:44:54Z</time>
      </trkpt>
      <trkpt lat="43.3872" lon="6.69129">
        <ele>254</ele>
        <time>2012-10-13T09:45:09Z</time>
      </trkpt>
      <trkpt lat="43.38732" lon="6.69101">
        <ele>259</ele>
        <time>2012-10-13T09:45:19Z</time>
      </trkpt>
      <trkpt lat="43.38745" lon="6.69097">
        <ele>258</ele>
        <time>2012-10-13T09:45:28Z</time>
      </trkpt>
      <trkpt lat="43.3876" lon="6.6911">
        <ele>262</ele>
        <time>2012-10-13T09:45:40Z</time>
      </trkpt>
      <trkpt lat="43.38778" lon="6.69117">
        <ele>264</ele>
        <time>2012-10-13T09:45:50Z</time>
      </trkpt>
      <trkpt lat="43.38778" lon="6.69117">
        <ele>217</ele>
        <time>2012-10-13T09:45:58Z</time>
      </trkpt>
      <trkpt lat="43.38778" lon="6.69117">
        <ele>217</ele>
        <time>2012-10-13T09:51:45Z</time>
      </trkpt>
      <trkpt lat="43.38803" lon="6.69126">
        <ele>274</ele>
        <time>2012-10-13T09:51:45Z</time>
      </trkpt>
      <trkpt lat="43.38828" lon="6.69132">
        <ele>277</ele>
        <time>2012-10-13T09:51:59Z</time>
      </trkpt>
      <trkpt lat="43.38884" lon="6.69091">
        <ele>263</ele>
        <time>2012-10-13T09:52:13Z</time>
      </trkpt>
      <trkpt lat="43.3891" lon="6.69071">
        <ele>265</ele>
        <time>2012-10-13T09:52:18Z</time>
      </trkpt>
      <trkpt lat="43.38925" lon="6.69061">
        <ele>265</ele>
        <time>2012-10-13T09:52:21Z</time>
      </trkpt>
      <trkpt lat="43.38957" lon="6.69046">
        <ele>261</ele>
        <time>2012-10-13T09:52:27Z</time>
      </trkpt>
      <trkpt lat="43.38983" lon="6.69038">
        <ele>258</ele>
        <time>2012-10-13T09:52:34Z</time>
      </trkpt>
      <trkpt lat="43.39011" lon="6.69031">
        <ele>249</ele>
        <time>2012-10-13T09:52:41Z</time>
      </trkpt>
      <trkpt lat="43.39032" lon="6.69023">
        <ele>248</ele>
        <time>2012-10-13T09:52:46Z</time>
      </trkpt>
      <trkpt lat="43.39047" lon="6.69016">
        <ele>242</ele>
        <time>2012-10-13T09:52:52Z</time>
      </trkpt>
      <trkpt lat="43.39074" lon="6.68997">
        <ele>240</ele>
        <time>2012-10-13T09:53:02Z</time>
      </trkpt>
      <trkpt lat="43.39101" lon="6.68974">
        <ele>228</ele>
        <time>2012-10-13T09:53:13Z</time>
      </trkpt>
      <trkpt lat="43.39123" lon="6.68959">
        <ele>222</ele>
        <time>2012-10-13T09:53:21Z</time>
      </trkpt>
      <trkpt lat="43.39163" lon="6.68942">
        <ele>218</ele>
        <time>2012-10-13T09:53:33Z</time>
      </trkpt>
      <trkpt lat="43.39184" lon="6.68924">
        <ele>211</ele>
        <time>2012-10-13T09:53:39Z</time>
      </trkpt>
      <trkpt lat="43.39212" lon="6.6892">
        <ele>209</ele>
        <time>2012-10-13T09:53:44Z</time>
      </trkpt>
      <trkpt lat="43.39242" lon="6.68913">
        <ele>208</ele>
        <time>2012-10-13T09:53:49Z</time>
      </trkpt>
      <trkpt lat="43.39268" lon="6.68917">
        <ele>207</ele>
        <time>2012-10-13T09:53:55Z</time>
      </trkpt>
      <trkpt lat="43.39287" lon="6.68917">
        <ele>199</ele>
        <time>2012-10-13T09:54:01Z</time>
      </trkpt>
      <trkpt lat="43.39305" lon="6.68906">
        <ele>196</ele>
        <time>2012-10-13T09:54:06Z</time>
      </trkpt>
      <trkpt lat="43.39315" lon="6.68899">
        <ele>195</ele>
        <time>2012-10-13T09:54:09Z</time>
      </trkpt>
      <trkpt lat="43.39342" lon="6.68883">
        <ele>193</ele>
        <time>2012-10-13T09:54:16Z</time>
      </trkpt>
      <trkpt lat="43.39384" lon="6.68901">
        <ele>194</ele>
        <time>2012-10-13T09:54:24Z</time>
      </trkpt>
      <trkpt lat="43.39401" lon="6.6891">
        <ele>191</ele>
        <time>2012-10-13T09:54:27Z</time>
      </trkpt>
      <trkpt lat="43.39418" lon="6.68918">
        <ele>188</ele>
        <time>2012-10-13T09:54:30Z</time>
      </trkpt>
      <trkpt lat="43.39448" lon="6.68925">
        <ele>182</ele>
        <time>2012-10-13T09:54:36Z</time>
      </trkpt>
      <trkpt lat="43.39471" lon="6.6891">
        <ele>178</ele>
        <time>2012-10-13T09:54:41Z</time>
      </trkpt>
      <trkpt lat="43.39491" lon="6.68892">
        <ele>178</ele>
        <time>2012-10-13T09:54:47Z</time>
      </trkpt>
      <trkpt lat="43.39506" lon="6.68883">
        <ele>177</ele>
        <time>2012-10-13T09:54:51Z</time>
      </trkpt>
      <trkpt lat="43.39517" lon="6.68872">
        <ele>177</ele>
        <time>2012-10-13T09:54:54Z</time>
      </trkpt>
      <trkpt lat="43.39536" lon="6.6884">
        <ele>162</ele>
        <time>2012-10-13T09:55:01Z</time>
      </trkpt>
      <trkpt lat="43.39536" lon="6.6882">
        <ele>154</ele>
        <time>2012-10-13T09:55:07Z</time>
      </trkpt>
      <trkpt lat="43.39525" lon="6.68797">
        <ele>147</ele>
        <time>2012-10-13T09:55:12Z</time>
      </trkpt>
      <trkpt lat="43.39508" lon="6.68768">
        <ele>151</ele>
        <time>2012-10-13T09:55:18Z</time>
      </trkpt>
      <trkpt lat="43.39497" lon="6.68755">
        <ele>148</ele>
        <time>2012-10-13T09:55:21Z</time>
      </trkpt>
      <trkpt lat="43.39477" lon="6.68726">
        <ele>149</ele>
        <time>2012-10-13T09:55:28Z</time>
      </trkpt>
      <trkpt lat="43.3947" lon="6.68708">
        <ele>152</ele>
        <time>2012-10-13T09:55:31Z</time>
      </trkpt>
      <trkpt lat="43.39466" lon="6.68692">
        <ele>152</ele>
        <time>2012-10-13T09:55:35Z</time>
      </trkpt>
      <trkpt lat="43.39472" lon="6.6863">
        <ele>144</ele>
        <time>2012-10-13T09:55:44Z</time>
      </trkpt>
      <trkpt lat="43.39481" lon="6.68578">
        <ele>144</ele>
        <time>2012-10-13T09:55:49Z</time>
      </trkpt>
      <trkpt lat="43.39485" lon="6.68536">
        <ele>139</ele>
        <time>2012-10-13T09:55:55Z</time>
      </trkpt>
      <trkpt lat="43.39476" lon="6.68526">
        <ele>143</ele>
        <time>2012-10-13T09:56:00Z</time>
      </trkpt>
      <trkpt lat="43.39454" lon="6.68517">
        <ele>140</ele>
        <time>2012-10-13T09:56:07Z</time>
      </trkpt>
      <trkpt lat="43.39438" lon="6.68506">
        <ele>137</ele>
        <time>2012-10-13T09:56:10Z</time>
      </trkpt>
      <trkpt lat="43.39418" lon="6.68479">
        <ele>134</ele>
        <time>2012-10-13T09:56:14Z</time>
      </trkpt>
      <trkpt lat="43.39396" lon="6.68447">
        <ele>130</ele>
        <time>2012-10-13T09:56:19Z</time>
      </trkpt>
      <trkpt lat="43.39389" lon="6.68429">
        <ele>128</ele>
        <time>2012-10-13T09:56:22Z</time>
      </trkpt>
      <trkpt lat="43.39384" lon="6.68412">
        <ele>131</ele>
        <time>2012-10-13T09:56:25Z</time>
      </trkpt>
      <trkpt lat="43.39376" lon="6.68392">
        <ele>125</ele>
        <time>2012-10-13T09:56:34Z</time>
      </trkpt>
      <trkpt lat="43.3935" lon="6.68344">
        <ele>126</ele>
        <time>2012-10-13T09:56:48Z</time>
      </trkpt>
      <trkpt lat="43.39335" lon="6.68332">
        <ele>121</ele>
        <time>2012-10-13T09:56:53Z</time>
      </trkpt>
      <trkpt lat="43.39315" lon="6.68333">
        <ele>120</ele>
        <time>2012-10-13T09:56:59Z</time>
      </trkpt>
      <trkpt lat="43.39312" lon="6.68312">
        <ele>119</ele>
        <time>2012-10-13T09:57:07Z</time>
      </trkpt>
      <trkpt lat="43.39316" lon="6.68277">
        <ele>113</ele>
        <time>2012-10-13T09:57:15Z</time>
      </trkpt>
      <trkpt lat="43.39303" lon="6.68262">
        <ele>114</ele>
        <time>2012-10-13T09:57:20Z</time>
      </trkpt>
      <trkpt lat="43.39295" lon="6.68257">
        <ele>114</ele>
        <time>2012-10-13T09:57:26Z</time>
      </trkpt>
      <trkpt lat="43.39295" lon="6.68257">
        <ele>74</ele>
        <time>2012-10-13T09:57:33Z</time>
      </trkpt>
      <trkpt lat="43.39295" lon="6.68257">
        <ele>74</ele>
        <time>2012-10-13T09:57:43Z</time>
      </trkpt>
      <trkpt lat="43.39276" lon="6.68233">
        <ele>124</ele>
        <time>2012-10-13T09:57:43Z</time>
      </trkpt>
      <trkpt lat="43.39286" lon="6.68167">
        <ele>122</ele>
        <time>2012-10-13T09:58:00Z</time>
      </trkpt>
      <trkpt lat="43.39291" lon="6.68156">
        <ele>120</ele>
        <time>2012-10-13T09:58:03Z</time>
      </trkpt>
      <trkpt lat="43.39298" lon="6.68142">
        <ele>120</ele>
        <time>2012-10-13T09:58:07Z</time>
      </trkpt>
      <trkpt lat="43.39307" lon="6.68123">
        <ele>124</ele>
        <time>2012-10-13T09:58:13Z</time>
      </trkpt>
      <trkpt lat="43.39321" lon="6.68093">
        <ele>123</ele>
        <time>2012-10-13T09:58:23Z</time>
      </trkpt>
      <trkpt lat="43.39326" lon="6.68073">
        <ele>126</ele>
        <time>2012-10-13T09:58:32Z</time>
      </trkpt>
      <trkpt lat="43.39326" lon="6.68073">
        <ele>75</ele>
        <time>2012-10-13T09:58:51Z</time>
      </trkpt>
      <trkpt lat="43.39326" lon="6.68073">
        <ele>75</ele>
        <time>2012-10-13T09:59:05Z</time>
      </trkpt>
      <trkpt lat="43.39339" lon="6.68004">
        <ele>125</ele>
        <time>2012-10-13T09:59:05Z</time>
      </trkpt>
      <trkpt lat="43.39333" lon="6.67962">
        <ele>128</ele>
        <time>2012-10-13T09:59:11Z</time>
      </trkpt>
      <trkpt lat="43.39319" lon="6.67934">
        <ele>123</ele>
        <time>2012-10-13T09:59:18Z</time>
      </trkpt>
      <trkpt lat="43.39313" lon="6.67907">
        <ele>118</ele>
        <time>2012-10-13T09:59:24Z</time>
      </trkpt>
      <trkpt lat="43.39303" lon="6.6788">
        <ele>117</ele>
        <time>2012-10-13T09:59:34Z</time>
      </trkpt>
      <trkpt lat="43.39314" lon="6.67853">
        <ele>112</ele>
        <time>2012-10-13T09:59:45Z</time>
      </trkpt>
      <trkpt lat="43.39318" lon="6.67846">
        <ele>109</ele>
        <time>2012-10-13T09:59:49Z</time>
      </trkpt>
      <trkpt lat="43.3932" lon="6.67816">
        <ele>105</ele>
        <time>2012-10-13T10:00:05Z</time>
      </trkpt>
      <trkpt lat="43.39313" lon="6.67798">
        <ele>101</ele>
        <time>2012-10-13T10:00:16Z</time>
      </trkpt>
      <trkpt lat="43.39313" lon="6.67798">
        <ele>44</ele>
        <time>2012-10-13T10:00:28Z</time>
      </trkpt>
      <trkpt lat="43.39313" lon="6.67798">
        <ele>44</ele>
        <time>2012-10-13T10:00:45Z</time>
      </trkpt>
      <trkpt lat="43.3933" lon="6.67765">
        <ele>87</ele>
        <time>2012-10-13T10:00:45Z</time>
      </trkpt>
      <trkpt lat="43.3933" lon="6.67765">
        <ele>40</ele>
        <time>2012-10-13T10:01:05Z</time>
      </trkpt>
      <trkpt lat="43.3933" lon="6.67765">
        <ele>40</ele>
        <time>2012-10-13T10:01:20Z</time>
      </trkpt>
      <trkpt lat="43.39326" lon="6.67726">
        <ele>83</ele>
        <time>2012-10-13T10:01:20Z</time>
      </trkpt>
      <trkpt lat="43.39311" lon="6.67711">
        <ele>88</ele>
        <time>2012-10-13T10:01:29Z</time>
      </trkpt>
      <trkpt lat="43.39302" lon="6.67702">
        <ele>91</ele>
        <time>2012-10-13T10:01:36Z</time>
      </trkpt>
      <trkpt lat="43.39292" lon="6.67692">
        <ele>86</ele>
        <time>2012-10-13T10:01:48Z</time>
      </trkpt>
      <trkpt lat="43.39283" lon="6.67677">
        <ele>80</ele>
        <time>2012-10-13T10:02:07Z</time>
      </trkpt>
      <trkpt lat="43.3926" lon="6.67662">
        <ele>70</ele>
        <time>2012-10-13T10:02:26Z</time>
      </trkpt>
      <trkpt lat="43.3924" lon="6.67666">
        <ele>73</ele>
        <time>2012-10-13T10:02:43Z</time>
      </trkpt>
      <trkpt lat="43.39223" lon="6.67663">
        <ele>70</ele>
        <time>2012-10-13T10:02:51Z</time>
      </trkpt>
      <trkpt lat="43.39222" lon="6.67638">
        <ele>82</ele>
        <time>2012-10-13T10:03:00Z</time>
      </trkpt>
      <trkpt lat="43.39222" lon="6.67638">
        <ele>25</ele>
        <time>2012-10-13T10:03:08Z</time>
      </trkpt>
      <trkpt lat="43.39222" lon="6.67638">
        <ele>25</ele>
        <time>2012-10-13T10:03:12Z</time>
      </trkpt>
      <trkpt lat="43.39236" lon="6.67626">
        <ele>74</ele>
        <time>2012-10-13T10:03:12Z</time>
      </trkpt>
      <trkpt lat="43.39253" lon="6.67627">
        <ele>77</ele>
        <time>2012-10-13T10:03:19Z</time>
      </trkpt>
      <trkpt lat="43.39269" lon="6.67621">
        <ele>81</ele>
        <time>2012-10-13T10:03:25Z</time>
      </trkpt>
      <trkpt lat="43.39299" lon="6.6762">
        <ele>90</ele>
        <time>2012-10-13T10:03:35Z</time>
      </trkpt>
      <trkpt lat="43.39319" lon="6.67619">
        <ele>79</ele>
        <time>2012-10-13T10:03:40Z</time>
      </trkpt>
      <trkpt lat="43.39343" lon="6.67604">
        <ele>82</ele>
        <time>2012-10-13T10:03:45Z</time>
      </trkpt>
      <trkpt lat="43.39367" lon="6.67589">
        <ele>89</ele>
        <time>2012-10-13T10:03:51Z</time>
      </trkpt>
      <trkpt lat="43.39393" lon="6.67578">
        <ele>90</ele>
        <time>2012-10-13T10:03:57Z</time>
      </trkpt>
      <trkpt lat="43.39415" lon="6.6758">
        <ele>88</ele>
        <time>2012-10-13T10:04:05Z</time>
      </trkpt>
      <trkpt lat="43.39444" lon="6.67576">
        <ele>83</ele>
        <time>2012-10-13T10:04:12Z</time>
      </trkpt>
      <trkpt lat="43.39479" lon="6.67559">
        <ele>86</ele>
        <time>2012-10-13T10:04:18Z</time>
      </trkpt>
      <trkpt lat="43.39507" lon="6.67558">
        <ele>87</ele>
        <time>2012-10-13T10:04:25Z</time>
      </trkpt>
      <trkpt lat="43.39532" lon="6.67529">
        <ele>78</ele>
        <time>2012-10-13T10:04:34Z</time>
      </trkpt>
      <trkpt lat="43.39544" lon="6.67512">
        <ele>72</ele>
        <time>2012-10-13T10:04:39Z</time>
      </trkpt>
      <trkpt lat="43.39563" lon="6.67505">
        <ele>73</ele>
        <time>2012-10-13T10:04:43Z</time>
      </trkpt>
      <trkpt lat="43.39586" lon="6.67497">
        <ele>69</ele>
        <time>2012-10-13T10:04:48Z</time>
      </trkpt>
      <trkpt lat="43.39598" lon="6.67494">
        <ele>77</ele>
        <time>2012-10-13T10:04:51Z</time>
      </trkpt>
      <trkpt lat="43.39612" lon="6.67488">
        <ele>80</ele>
        <time>2012-10-13T10:04:55Z</time>
      </trkpt>
      <trkpt lat="43.39643" lon="6.67482">
        <ele>79</ele>
        <time>2012-10-13T10:05:01Z</time>
      </trkpt>
      <trkpt lat="43.39673" lon="6.67478">
        <ele>78</ele>
        <time>2012-10-13T10:05:06Z</time>
      </trkpt>
      <trkpt lat="43.39687" lon="6.67479">
        <ele>76</ele>
        <time>2012-10-13T10:05:09Z</time>
      </trkpt>
      <trkpt lat="43.39717" lon="6.67494">
        <ele>82</ele>
        <time>2012-10-13T10:05:18Z</time>
      </trkpt>
      <trkpt lat="43.39733" lon="6.67467">
        <ele>71</ele>
        <time>2012-10-13T10:05:24Z</time>
      </trkpt>
      <trkpt lat="43.39744" lon="6.67416">
        <ele>65</ele>
        <time>2012-10-13T10:05:33Z</time>
      </trkpt>
      <trkpt lat="43.3975" lon="6.67381">
        <ele>67</ele>
        <time>2012-10-13T10:05:39Z</time>
      </trkpt>
      <trkpt lat="43.39753" lon="6.67365">
        <ele>68</ele>
        <time>2012-10-13T10:05:42Z</time>
      </trkpt>
      <trkpt lat="43.39753" lon="6.67335">
        <ele>62</ele>
        <time>2012-10-13T10:05:49Z</time>
      </trkpt>
      <trkpt lat="43.39753" lon="6.67321">
        <ele>59</ele>
        <time>2012-10-13T10:05:52Z</time>
      </trkpt>
      <trkpt lat="43.3974" lon="6.67275">
        <ele>64</ele>
        <time>2012-10-13T10:06:00Z</time>
      </trkpt>
      <trkpt lat="43.39723" lon="6.67247">
        <ele>64</ele>
        <time>2012-10-13T10:06:06Z</time>
      </trkpt>
      <trkpt lat="43.39712" lon="6.67243">
        <ele>59</ele>
        <time>2012-10-13T10:06:12Z</time>
      </trkpt>
      <trkpt lat="43.39712" lon="6.67243">
        <ele>18</ele>
        <time>2012-10-13T10:06:17Z</time>
      </trkpt>
      <trkpt lat="43.39712" lon="6.67243">
        <ele>18</ele>
        <time>2012-10-13T10:21:46Z</time>
      </trkpt>
      <trkpt lat="43.39775" lon="6.66296">
        <ele>126</ele>
        <time>2012-10-13T10:21:46Z</time>
      </trkpt>
      <trkpt lat="43.39773" lon="6.66261">
        <ele>128</ele>
        <time>2012-10-13T10:22:00Z</time>
      </trkpt>
      <trkpt lat="43.39788" lon="6.66244">
        <ele>132</ele>
        <time>2012-10-13T10:22:11Z</time>
      </trkpt>
      <trkpt lat="43.39778" lon="6.66231">
        <ele>129</ele>
        <time>2012-10-13T10:22:18Z</time>
      </trkpt>
      <trkpt lat="43.39766" lon="6.66203">
        <ele>135</ele>
        <time>2012-10-13T10:22:30Z</time>
      </trkpt>
      <trkpt lat="43.39777" lon="6.66199">
        <ele>137</ele>
        <time>2012-10-13T10:22:36Z</time>
      </trkpt>
      <trkpt lat="43.39798" lon="6.66208">
        <ele>141</ele>
        <time>2012-10-13T10:22:44Z</time>
      </trkpt>
      <trkpt lat="43.39815" lon="6.66188">
        <ele>137</ele>
        <time>2012-10-13T10:22:53Z</time>
      </trkpt>
      <trkpt lat="43.39828" lon="6.66158">
        <ele>144</ele>
        <time>2012-10-13T10:23:01Z</time>
      </trkpt>
      <trkpt lat="43.39835" lon="6.66145">
        <ele>142</ele>
        <time>2012-10-13T10:23:06Z</time>
      </trkpt>
      <trkpt lat="43.39856" lon="6.6612">
        <ele>145</ele>
        <time>2012-10-13T10:23:17Z</time>
      </trkpt>
      <trkpt lat="43.39871" lon="6.66103">
        <ele>146</ele>
        <time>2012-10-13T10:23:26Z</time>
      </trkpt>
      <trkpt lat="43.39885" lon="6.66085">
        <ele>152</ele>
        <time>2012-10-13T10:23:35Z</time>
      </trkpt>
      <trkpt lat="43.39899" lon="6.6606">
        <ele>158</ele>
        <time>2012-10-13T10:23:45Z</time>
      </trkpt>
      <trkpt lat="43.39904" lon="6.66041">
        <ele>156</ele>
        <time>2012-10-13T10:23:53Z</time>
      </trkpt>
      <trkpt lat="43.39908" lon="6.6602">
        <ele>157</ele>
        <time>2012-10-13T10:24:00Z</time>
      </trkpt>
      <trkpt lat="43.39914" lon="6.65993">
        <ele>157</ele>
        <time>2012-10-13T10:24:10Z</time>
      </trkpt>
      <trkpt lat="43.39919" lon="6.65973">
        <ele>155</ele>
        <time>2012-10-13T10:24:18Z</time>
      </trkpt>
      <trkpt lat="43.39918" lon="6.65936">
        <ele>157</ele>
        <time>2012-10-13T10:24:30Z</time>
      </trkpt>
      <trkpt lat="43.39914" lon="6.65905">
        <ele>164</ele>
        <time>2012-10-13T10:24:42Z</time>
      </trkpt>
      <trkpt lat="43.39911" lon="6.65876">
        <ele>164</ele>
        <time>2012-10-13T10:24:57Z</time>
      </trkpt>
      <trkpt lat="43.39909" lon="6.65843">
        <ele>169</ele>
        <time>2012-10-13T10:25:12Z</time>
      </trkpt>
      <trkpt lat="43.39931" lon="6.65821">
        <ele>172</ele>
        <time>2012-10-13T10:25:24Z</time>
      </trkpt>
      <trkpt lat="43.39947" lon="6.65809">
        <ele>177</ele>
        <time>2012-10-13T10:25:33Z</time>
      </trkpt>
      <trkpt lat="43.39969" lon="6.65797">
        <ele>181</ele>
        <time>2012-10-13T10:25:45Z</time>
      </trkpt>
      <trkpt lat="43.39987" lon="6.6579">
        <ele>178</ele>
        <time>2012-10-13T10:25:56Z</time>
      </trkpt>
      <trkpt lat="43.39999" lon="6.6578">
        <ele>182</ele>
        <time>2012-10-13T10:26:04Z</time>
      </trkpt>
      <trkpt lat="43.4001" lon="6.65765">
        <ele>180</ele>
        <time>2012-10-13T10:26:12Z</time>
      </trkpt>
      <trkpt lat="43.40022" lon="6.65744">
        <ele>180</ele>
        <time>2012-10-13T10:26:22Z</time>
      </trkpt>
      <trkpt lat="43.4003" lon="6.6571">
        <ele>180</ele>
        <time>2012-10-13T10:26:34Z</time>
      </trkpt>
      <trkpt lat="43.40032" lon="6.65696">
        <ele>183</ele>
        <time>2012-10-13T10:26:39Z</time>
      </trkpt>
      <trkpt lat="43.40038" lon="6.65676">
        <ele>183</ele>
        <time>2012-10-13T10:26:47Z</time>
      </trkpt>
      <trkpt lat="43.40037" lon="6.65645">
        <ele>183</ele>
        <time>2012-10-13T10:27:01Z</time>
      </trkpt>
      <trkpt lat="43.40034" lon="6.65615">
        <ele>189</ele>
        <time>2012-10-13T10:27:13Z</time>
      </trkpt>
      <trkpt lat="43.40027" lon="6.65596">
        <ele>183</ele>
        <time>2012-10-13T10:27:22Z</time>
      </trkpt>
      <trkpt lat="43.40024" lon="6.65578">
        <ele>189</ele>
        <time>2012-10-13T10:27:31Z</time>
      </trkpt>
      <trkpt lat="43.40008" lon="6.65531">
        <ele>194</ele>
        <time>2012-10-13T10:27:46Z</time>
      </trkpt>
      <trkpt lat="43.39993" lon="6.65508">
        <ele>193</ele>
        <time>2012-10-13T10:27:55Z</time>
      </trkpt>
      <trkpt lat="43.39978" lon="6.65489">
        <ele>202</ele>
        <time>2012-10-13T10:28:07Z</time>
      </trkpt>
      <trkpt lat="43.39958" lon="6.65479">
        <ele>197</ele>
        <time>2012-10-13T10:28:19Z</time>
      </trkpt>
      <trkpt lat="43.39934" lon="6.6547">
        <ele>195</ele>
        <time>2012-10-13T10:28:31Z</time>
      </trkpt>
      <trkpt lat="43.39912" lon="6.65461">
        <ele>205</ele>
        <time>2012-10-13T10:28:42Z</time>
      </trkpt>
      <trkpt lat="43.39899" lon="6.65444">
        <ele>205</ele>
        <time>2012-10-13T10:28:52Z</time>
      </trkpt>
      <trkpt lat="43.39894" lon="6.65412">
        <ele>215</ele>
        <time>2012-10-13T10:29:04Z</time>
      </trkpt>
      <trkpt lat="43.39893" lon="6.65385">
        <ele>213</ele>
        <time>2012-10-13T10:29:13Z</time>
      </trkpt>
      <trkpt lat="43.39886" lon="6.65347">
        <ele>210</ele>
        <time>2012-10-13T10:29:25Z</time>
      </trkpt>
      <trkpt lat="43.39863" lon="6.65335">
        <ele>212</ele>
        <time>2012-10-13T10:29:36Z</time>
      </trkpt>
      <trkpt lat="43.39833" lon="6.65323">
        <ele>214</ele>
        <time>2012-10-13T10:29:49Z</time>
      </trkpt>
      <trkpt lat="43.39825" lon="6.65302">
        <ele>218</ele>
        <time>2012-10-13T10:29:58Z</time>
      </trkpt>
      <trkpt lat="43.39812" lon="6.65288">
        <ele>222</ele>
        <time>2012-10-13T10:30:06Z</time>
      </trkpt>
      <trkpt lat="43.39791" lon="6.65299">
        <ele>221</ele>
        <time>2012-10-13T10:30:16Z</time>
      </trkpt>
      <trkpt lat="43.39774" lon="6.65326">
        <ele>224</ele>
        <time>2012-10-13T10:30:27Z</time>
      </trkpt>
      <trkpt lat="43.39747" lon="6.65335">
        <ele>224</ele>
        <time>2012-10-13T10:30:38Z</time>
      </trkpt>
      <trkpt lat="43.39718" lon="6.65359">
        <ele>217</ele>
        <time>2012-10-13T10:30:49Z</time>
      </trkpt>
      <trkpt lat="43.39709" lon="6.65383">
        <ele>220</ele>
        <time>2012-10-13T10:30:56Z</time>
      </trkpt>
      <trkpt lat="43.39696" lon="6.6541">
        <ele>221</ele>
        <time>2012-10-13T10:31:06Z</time>
      </trkpt>
      <trkpt lat="43.39672" lon="6.6542">
        <ele>228</ele>
        <time>2012-10-13T10:31:16Z</time>
      </trkpt>
      <trkpt lat="43.39656" lon="6.65409">
        <ele>217</ele>
        <time>2012-10-13T10:31:22Z</time>
      </trkpt>
      <trkpt lat="43.39634" lon="6.65391">
        <ele>226</ele>
        <time>2012-10-13T10:31:31Z</time>
      </trkpt>
      <trkpt lat="43.39615" lon="6.65378">
        <ele>224</ele>
        <time>2012-10-13T10:31:38Z</time>
      </trkpt>
      <trkpt lat="43.39596" lon="6.65346">
        <ele>220</ele>
        <time>2012-10-13T10:31:46Z</time>
      </trkpt>
      <trkpt lat="43.39572" lon="6.65321">
        <ele>222</ele>
        <time>2012-10-13T10:31:53Z</time>
      </trkpt>
      <trkpt lat="43.39553" lon="6.65302">
        <ele>218</ele>
        <time>2012-10-13T10:31:59Z</time>
      </trkpt>
      <trkpt lat="43.39531" lon="6.65295">
        <ele>224</ele>
        <time>2012-10-13T10:32:05Z</time>
      </trkpt>
      <trkpt lat="43.39506" lon="6.65279">
        <ele>223</ele>
        <time>2012-10-13T10:32:14Z</time>
      </trkpt>
      <trkpt lat="43.39494" lon="6.65267">
        <ele>225</ele>
        <time>2012-10-13T10:32:21Z</time>
      </trkpt>
      <trkpt lat="43.39475" lon="6.65249">
        <ele>223</ele>
        <time>2012-10-13T10:32:29Z</time>
      </trkpt>
      <trkpt lat="43.39458" lon="6.65235">
        <ele>221</ele>
        <time>2012-10-13T10:32:37Z</time>
      </trkpt>
      <trkpt lat="43.39465" lon="6.65207">
        <ele>237</ele>
        <time>2012-10-13T10:32:48Z</time>
      </trkpt>
      <trkpt lat="43.39484" lon="6.65207">
        <ele>239</ele>
        <time>2012-10-13T10:32:58Z</time>
      </trkpt>
      <trkpt lat="43.39497" lon="6.65208">
        <ele>240</ele>
        <time>2012-10-13T10:33:06Z</time>
      </trkpt>
      <trkpt lat="43.39519" lon="6.65209">
        <ele>247</ele>
        <time>2012-10-13T10:33:18Z</time>
      </trkpt>
      <trkpt lat="43.39543" lon="6.65207">
        <ele>247</ele>
        <time>2012-10-13T10:33:30Z</time>
      </trkpt>
      <trkpt lat="43.39559" lon="6.65207">
        <ele>249</ele>
        <time>2012-10-13T10:33:41Z</time>
      </trkpt>
      <trkpt lat="43.39582" lon="6.65211">
        <ele>257</ele>
        <time>2012-10-13T10:33:55Z</time>
      </trkpt>
      <trkpt lat="43.39602" lon="6.6521">
        <ele>261</ele>
        <time>2012-10-13T10:34:11Z</time>
      </trkpt>
      <trkpt lat="43.39616" lon="6.65208">
        <ele>257</ele>
        <time>2012-10-13T10:34:24Z</time>
      </trkpt>
      <trkpt lat="43.39638" lon="6.65201">
        <ele>263</ele>
        <time>2012-10-13T10:34:42Z</time>
      </trkpt>
      <trkpt lat="43.39659" lon="6.65179">
        <ele>275</ele>
        <time>2012-10-13T10:34:56Z</time>
      </trkpt>
      <trkpt lat="43.39665" lon="6.65163">
        <ele>271</ele>
        <time>2012-10-13T10:35:06Z</time>
      </trkpt>
      <trkpt lat="43.39675" lon="6.65138">
        <ele>276</ele>
        <time>2012-10-13T10:35:22Z</time>
      </trkpt>
      <trkpt lat="43.39684" lon="6.65116">
        <ele>279</ele>
        <time>2012-10-13T10:35:34Z</time>
      </trkpt>
      <trkpt lat="43.39689" lon="6.65104">
        <ele>278</ele>
        <time>2012-10-13T10:35:39Z</time>
      </trkpt>
      <trkpt lat="43.39699" lon="6.65074">
        <ele>278</ele>
        <time>2012-10-13T10:35:51Z</time>
      </trkpt>
      <trkpt lat="43.39712" lon="6.65047">
        <ele>279</ele>
        <time>2012-10-13T10:36:04Z</time>
      </trkpt>
      <trkpt lat="43.39728" lon="6.65033">
        <ele>286</ele>
        <time>2012-10-13T10:36:15Z</time>
      </trkpt>
      <trkpt lat="43.39744" lon="6.65028">
        <ele>291</ele>
        <time>2012-10-13T10:36:22Z</time>
      </trkpt>
      <trkpt lat="43.39768" lon="6.65014">
        <ele>292</ele>
        <time>2012-10-13T10:36:35Z</time>
      </trkpt>
      <trkpt lat="43.39777" lon="6.6501">
        <ele>288</ele>
        <time>2012-10-13T10:36:45Z</time>
      </trkpt>
      <trkpt lat="43.39805" lon="6.64999">
        <ele>297</ele>
        <time>2012-10-13T10:37:01Z</time>
      </trkpt>
      <trkpt lat="43.39826" lon="6.64995">
        <ele>297</ele>
        <time>2012-10-13T10:37:13Z</time>
      </trkpt>
      <trkpt lat="43.39851" lon="6.64979">
        <ele>304</ele>
        <time>2012-10-13T10:37:26Z</time>
      </trkpt>
      <trkpt lat="43.3987" lon="6.64963">
        <ele>305</ele>
        <time>2012-10-13T10:37:41Z</time>
      </trkpt>
      <trkpt lat="43.39891" lon="6.64954">
        <ele>313</ele>
        <time>2012-10-13T10:37:57Z</time>
      </trkpt>
      <trkpt lat="43.39909" lon="6.64957">
        <ele>314</ele>
        <time>2012-10-13T10:38:08Z</time>
      </trkpt>
      <trkpt lat="43.39921" lon="6.6495">
        <ele>318</ele>
        <time>2012-10-13T10:38:16Z</time>
      </trkpt>
      <trkpt lat="43.39932" lon="6.64946">
        <ele>318</ele>
        <time>2012-10-13T10:38:26Z</time>
      </trkpt>
      <trkpt lat="43.39951" lon="6.64927">
        <ele>311</ele>
        <time>2012-10-13T10:38:42Z</time>
      </trkpt>
      <trkpt lat="43.39973" lon="6.64928">
        <ele>309</ele>
        <time>2012-10-13T10:38:58Z</time>
      </trkpt>
      <trkpt lat="43.39987" lon="6.64928">
        <ele>311</ele>
        <time>2012-10-13T10:39:13Z</time>
      </trkpt>
      <trkpt lat="43.40004" lon="6.64931">
        <ele>326</ele>
        <time>2012-10-13T10:39:29Z</time>
      </trkpt>
      <trkpt lat="43.40004" lon="6.64931">
        <ele>287</ele>
        <time>2012-10-13T10:39:34Z</time>
      </trkpt>
      <trkpt lat="43.40004" lon="6.64931">
        <ele>287</ele>
        <time>2012-10-13T10:39:42Z</time>
      </trkpt>
      <trkpt lat="43.40016" lon="6.6493">
        <ele>335</ele>
        <time>2012-10-13T10:39:42Z</time>
      </trkpt>
      <trkpt lat="43.40043" lon="6.64926">
        <ele>344</ele>
        <time>2012-10-13T10:40:00Z</time>
      </trkpt>
      <trkpt lat="43.40062" lon="6.64893">
        <ele>335</ele>
        <time>2012-10-13T10:40:19Z</time>
      </trkpt>
      <trkpt lat="43.40082" lon="6.64871">
        <ele>345</ele>
        <time>2012-10-13T10:40:34Z</time>
      </trkpt>
      <trkpt lat="43.40101" lon="6.64861">
        <ele>342</ele>
        <time>2012-10-13T10:40:48Z</time>
      </trkpt>
      <trkpt lat="43.40121" lon="6.64845">
        <ele>350</ele>
        <time>2012-10-13T10:41:00Z</time>
      </trkpt>
      <trkpt lat="43.4013" lon="6.64837">
        <ele>353</ele>
        <time>2012-10-13T10:41:09Z</time>
      </trkpt>
      <trkpt lat="43.4013" lon="6.64837">
        <ele>297</ele>
        <time>2012-10-13T10:41:17Z</time>
      </trkpt>
      <trkpt lat="43.4013" lon="6.64837">
        <ele>297</ele>
        <time>2012-10-13T10:43:45Z</time>
      </trkpt>
      <trkpt lat="43.40105" lon="6.64855">
        <ele>338</ele>
        <time>2012-10-13T10:43:45Z</time>
      </trkpt>
      <trkpt lat="43.40105" lon="6.64855">
        <ele>338</ele>
        <time>2012-10-13T10:46:53Z</time>
      </trkpt>
      <trkpt lat="43.40125" lon="6.64839">
        <ele>340</ele>
        <time>2012-10-13T10:48:22Z</time>
      </trkpt>
      <trkpt lat="43.40125" lon="6.64839">
        <ele>298</ele>
        <time>2012-10-13T10:48:28Z</time>
      </trkpt>
      <trkpt lat="43.40125" lon="6.64839">
        <ele>298</ele>
        <time>2012-10-13T10:48:37Z</time>
      </trkpt>
      <trkpt lat="43.40133" lon="6.64824">
        <ele>349</ele>
        <time>2012-10-13T10:48:37Z</time>
      </trkpt>
      <trkpt lat="43.40144" lon="6.64804">
        <ele>350</ele>
        <time>2012-10-13T10:48:51Z</time>
      </trkpt>
      <trkpt lat="43.40175" lon="6.64766">
        <ele>354</ele>
        <time>2012-10-13T10:49:01Z</time>
      </trkpt>
      <trkpt lat="43.40217" lon="6.64751">
        <ele>359</ele>
        <time>2012-10-13T10:49:07Z</time>
      </trkpt>
      <trkpt lat="43.40238" lon="6.64742">
        <ele>354</ele>
        <time>2012-10-13T10:49:10Z</time>
      </trkpt>
      <trkpt lat="43.40264" lon="6.64744">
        <ele>357</ele>
        <time>2012-10-13T10:49:13Z</time>
      </trkpt>
      <trkpt lat="43.40299" lon="6.64739">
        <ele>350</ele>
        <time>2012-10-13T10:49:18Z</time>
      </trkpt>
      <trkpt lat="43.40315" lon="6.64732">
        <ele>355</ele>
        <time>2012-10-13T10:49:21Z</time>
      </trkpt>
      <trkpt lat="43.40361" lon="6.64745">
        <ele>356</ele>
        <time>2012-10-13T10:49:27Z</time>
      </trkpt>
      <trkpt lat="43.40387" lon="6.64756">
        <ele>349</ele>
        <time>2012-10-13T10:49:30Z</time>
      </trkpt>
      <trkpt lat="43.40425" lon="6.64773">
        <ele>348</ele>
        <time>2012-10-13T10:49:35Z</time>
      </trkpt>
      <trkpt lat="43.40458" lon="6.64782">
        <ele>352</ele>
        <time>2012-10-13T10:49:40Z</time>
      </trkpt>
      <trkpt lat="43.40501" lon="6.64786">
        <ele>350</ele>
        <time>2012-10-13T10:49:46Z</time>
      </trkpt>
      <trkpt lat="43.40539" lon="6.64791">
        <ele>349</ele>
        <time>2012-10-13T10:49:51Z</time>
      </trkpt>
      <trkpt lat="43.40579" lon="6.64804">
        <ele>352</ele>
        <time>2012-10-13T10:49:56Z</time>
      </trkpt>
      <trkpt lat="43.406" lon="6.6481">
        <ele>348</ele>
        <time>2012-10-13T10:49:59Z</time>
      </trkpt>
      <trkpt lat="43.40638" lon="6.64818">
        <ele>342</ele>
        <time>2012-10-13T10:50:05Z</time>
      </trkpt>
      <trkpt lat="43.40655" lon="6.6482">
        <ele>342</ele>
        <time>2012-10-13T10:50:08Z</time>
      </trkpt>
      <trkpt lat="43.40671" lon="6.64822">
        <ele>340</ele>
        <time>2012-10-13T10:50:11Z</time>
      </trkpt>
      <trkpt lat="43.40698" lon="6.64825">
        <ele>336</ele>
        <time>2012-10-13T10:50:17Z</time>
      </trkpt>
      <trkpt lat="43.40716" lon="6.64829">
        <ele>340</ele>
        <time>2012-10-13T10:50:23Z</time>
      </trkpt>
      <trkpt lat="43.40725" lon="6.64834">
        <ele>341</ele>
        <time>2012-10-13T10:50:27Z</time>
      </trkpt>
      <trkpt lat="43.40742" lon="6.64843">
        <ele>336</ele>
        <time>2012-10-13T10:50:32Z</time>
      </trkpt>
      <trkpt lat="43.40752" lon="6.64855">
        <ele>343</ele>
        <time>2012-10-13T10:50:38Z</time>
      </trkpt>
      <trkpt lat="43.4077" lon="6.64887">
        <ele>349</ele>
        <time>2012-10-13T10:50:48Z</time>
      </trkpt>
      <trkpt lat="43.40777" lon="6.6491">
        <ele>348</ele>
        <time>2012-10-13T10:50:56Z</time>
      </trkpt>
      <trkpt lat="43.40781" lon="6.64937">
        <ele>349</ele>
        <time>2012-10-13T10:51:06Z</time>
      </trkpt>
      <trkpt lat="43.40786" lon="6.64963">
        <ele>350</ele>
        <time>2012-10-13T10:51:19Z</time>
      </trkpt>
      <trkpt lat="43.40787" lon="6.64988">
        <ele>345</ele>
        <time>2012-10-13T10:51:28Z</time>
      </trkpt>
      <trkpt lat="43.40789" lon="6.65014">
        <ele>351</ele>
        <time>2012-10-13T10:51:37Z</time>
      </trkpt>
      <trkpt lat="43.40793" lon="6.65047">
        <ele>354</ele>
        <time>2012-10-13T10:51:47Z</time>
      </trkpt>
      <trkpt lat="43.40797" lon="6.65082">
        <ele>355</ele>
        <time>2012-10-13T10:51:57Z</time>
      </trkpt>
      <trkpt lat="43.40799" lon="6.65129">
        <ele>353</ele>
        <time>2012-10-13T10:52:05Z</time>
      </trkpt>
      <trkpt lat="43.408" lon="6.65156">
        <ele>356</ele>
        <time>2012-10-13T10:52:08Z</time>
      </trkpt>
      <trkpt lat="43.40808" lon="6.65179">
        <ele>355</ele>
        <time>2012-10-13T10:52:11Z</time>
      </trkpt>
      <trkpt lat="43.40821" lon="6.6519">
        <ele>356</ele>
        <time>2012-10-13T10:52:16Z</time>
      </trkpt>
      <trkpt lat="43.40827" lon="6.65177">
        <ele>354</ele>
        <time>2012-10-13T10:52:25Z</time>
      </trkpt>
      <trkpt lat="43.4083" lon="6.65129">
        <ele>359</ele>
        <time>2012-10-13T10:52:44Z</time>
      </trkpt>
      <trkpt lat="43.40839" lon="6.6511">
        <ele>365</ele>
        <time>2012-10-13T10:52:54Z</time>
      </trkpt>
      <trkpt lat="43.40848" lon="6.65084">
        <ele>363</ele>
        <time>2012-10-13T10:53:11Z</time>
      </trkpt>
      <trkpt lat="43.40848" lon="6.65084">
        <ele>314</ele>
        <time>2012-10-13T10:53:24Z</time>
      </trkpt>
      <trkpt lat="43.40848" lon="6.65084">
        <ele>314</ele>
        <time>2012-10-13T10:53:50Z</time>
      </trkpt>
      <trkpt lat="43.40854" lon="6.65023">
        <ele>373</ele>
        <time>2012-10-13T10:53:50Z</time>
      </trkpt>
      <trkpt lat="43.40842" lon="6.64969">
        <ele>372</ele>
        <time>2012-10-13T10:55:12Z</time>
      </trkpt>
      <trkpt lat="43.40852" lon="6.64949">
        <ele>370</ele>
        <time>2012-10-13T10:55:16Z</time>
      </trkpt>
      <trkpt lat="43.40847" lon="6.64924">
        <ele>367</ele>
        <time>2012-10-13T10:55:21Z</time>
      </trkpt>
      <trkpt lat="43.40822" lon="6.6491">
        <ele>370</ele>
        <time>2012-10-13T10:55:26Z</time>
      </trkpt>
      <trkpt lat="43.40806" lon="6.64874">
        <ele>371</ele>
        <time>2012-10-13T10:55:31Z</time>
      </trkpt>
      <trkpt lat="43.40803" lon="6.64834">
        <ele>374</ele>
        <time>2012-10-13T10:55:38Z</time>
      </trkpt>
      <trkpt lat="43.40814" lon="6.64785">
        <ele>366</ele>
        <time>2012-10-13T10:55:44Z</time>
      </trkpt>
      <trkpt lat="43.40829" lon="6.64745">
        <ele>365</ele>
        <time>2012-10-13T10:55:49Z</time>
      </trkpt>
      <trkpt lat="43.40851" lon="6.64695">
        <ele>361</ele>
        <time>2012-10-13T10:55:55Z</time>
      </trkpt>
      <trkpt lat="43.40849" lon="6.64667">
        <ele>370</ele>
        <time>2012-10-13T10:55:58Z</time>
      </trkpt>
      <trkpt lat="43.40858" lon="6.64627">
        <ele>367</ele>
        <time>2012-10-13T10:56:03Z</time>
      </trkpt>
      <trkpt lat="43.40869" lon="6.64602">
        <ele>366</ele>
        <time>2012-10-13T10:56:06Z</time>
      </trkpt>
      <trkpt lat="43.40876" lon="6.64575">
        <ele>365</ele>
        <time>2012-10-13T10:56:10Z</time>
      </trkpt>
      <trkpt lat="43.40876" lon="6.64575">
        <ele>274</ele>
        <time>2012-10-13T10:56:17Z</time>
      </trkpt>
      <trkpt lat="43.40876" lon="6.64575">
        <ele>274</ele>
        <time>2012-10-13T10:56:27Z</time>
      </trkpt>
      <trkpt lat="43.40863" lon="6.64549">
        <ele>347</ele>
        <time>2012-10-13T10:56:27Z</time>
      </trkpt>
      <trkpt lat="43.40829" lon="6.64543">
        <ele>346</ele>
        <time>2012-10-13T10:56:33Z</time>
      </trkpt>
      <trkpt lat="43.40765" lon="6.64542">
        <ele>347</ele>
        <time>2012-10-13T10:56:39Z</time>
      </trkpt>
      <trkpt lat="43.40715" lon="6.64554">
        <ele>348</ele>
        <time>2012-10-13T10:56:46Z</time>
      </trkpt>
      <trkpt lat="43.40695" lon="6.64556">
        <ele>347</ele>
        <time>2012-10-13T10:56:51Z</time>
      </trkpt>
      <trkpt lat="43.40646" lon="6.6456">
        <ele>354</ele>
        <time>2012-10-13T10:56:57Z</time>
      </trkpt>
      <trkpt lat="43.4059" lon="6.64559">
        <ele>361</ele>
        <time>2012-10-13T10:57:04Z</time>
      </trkpt>
      <trkpt lat="43.40562" lon="6.64525">
        <ele>363</ele>
        <time>2012-10-13T10:57:09Z</time>
      </trkpt>
      <trkpt lat="43.40536" lon="6.64485">
        <ele>362</ele>
        <time>2012-10-13T10:57:14Z</time>
      </trkpt>
      <trkpt lat="43.40522" lon="6.64463">
        <ele>363</ele>
        <time>2012-10-13T10:57:17Z</time>
      </trkpt>
      <trkpt lat="43.40498" lon="6.64425">
        <ele>362</ele>
        <time>2012-10-13T10:57:22Z</time>
      </trkpt>
      <trkpt lat="43.40452" lon="6.64406">
        <ele>342</ele>
        <time>2012-10-13T10:57:28Z</time>
      </trkpt>
      <trkpt lat="43.40412" lon="6.64392">
        <ele>341</ele>
        <time>2012-10-13T10:57:36Z</time>
      </trkpt>
      <trkpt lat="43.40365" lon="6.64346">
        <ele>334</ele>
        <time>2012-10-13T10:57:42Z</time>
      </trkpt>
      <trkpt lat="43.40348" lon="6.64331">
        <ele>325</ele>
        <time>2012-10-13T10:57:46Z</time>
      </trkpt>
      <trkpt lat="43.40301" lon="6.64288">
        <ele>322</ele>
        <time>2012-10-13T10:57:52Z</time>
      </trkpt>
      <trkpt lat="43.40277" lon="6.64267">
        <ele>315</ele>
        <time>2012-10-13T10:57:58Z</time>
      </trkpt>
      <trkpt lat="43.40208" lon="6.64239">
        <ele>305</ele>
        <time>2012-10-13T10:58:08Z</time>
      </trkpt>
      <trkpt lat="43.40176" lon="6.64225">
        <ele>322</ele>
        <time>2012-10-13T10:58:14Z</time>
      </trkpt>
      <trkpt lat="43.40137" lon="6.64209">
        <ele>331</ele>
        <time>2012-10-13T10:58:19Z</time>
      </trkpt>
      <trkpt lat="43.40107" lon="6.64205">
        <ele>337</ele>
        <time>2012-10-13T10:58:25Z</time>
      </trkpt>
      <trkpt lat="43.4007" lon="6.64194">
        <ele>337</ele>
        <time>2012-10-13T10:58:31Z</time>
      </trkpt>
      <trkpt lat="43.40055" lon="6.64183">
        <ele>322</ele>
        <time>2012-10-13T10:58:38Z</time>
      </trkpt>
      <trkpt lat="43.40055" lon="6.64183">
        <ele>192</ele>
        <time>2012-10-13T10:58:46Z</time>
      </trkpt>
      <trkpt lat="43.40055" lon="6.64183">
        <ele>192</ele>
        <time>2012-10-13T11:19:23Z</time>
      </trkpt>
      <trkpt lat="43.3902" lon="6.63887">
        <ele>238</ele>
        <time>2012-10-13T11:19:23Z</time>
      </trkpt>
      <trkpt lat="43.39006" lon="6.63877">
        <ele>238</ele>
        <time>2012-10-13T11:19:29Z</time>
      </trkpt>
      <trkpt lat="43.38982" lon="6.63859">
        <ele>233</ele>
        <time>2012-10-13T11:19:38Z</time>
      </trkpt>
      <trkpt lat="43.38963" lon="6.63841">
        <ele>225</ele>
        <time>2012-10-13T11:19:46Z</time>
      </trkpt>
      <trkpt lat="43.38953" lon="6.63805">
        <ele>222</ele>
        <time>2012-10-13T11:19:53Z</time>
      </trkpt>
      <trkpt lat="43.38933" lon="6.6378">
        <ele>215</ele>
        <time>2012-10-13T11:19:59Z</time>
      </trkpt>
      <trkpt lat="43.3891" lon="6.63757">
        <ele>209</ele>
        <time>2012-10-13T11:20:08Z</time>
      </trkpt>
      <trkpt lat="43.38888" lon="6.63732">
        <ele>211</ele>
        <time>2012-10-13T11:20:16Z</time>
      </trkpt>
      <trkpt lat="43.38875" lon="6.63705">
        <ele>210</ele>
        <time>2012-10-13T11:20:24Z</time>
      </trkpt>
      <trkpt lat="43.38862" lon="6.63686">
        <ele>206</ele>
        <time>2012-10-13T11:20:30Z</time>
      </trkpt>
      <trkpt lat="43.38848" lon="6.6367">
        <ele>200</ele>
        <time>2012-10-13T11:20:41Z</time>
      </trkpt>
      <trkpt lat="43.38805" lon="6.6362">
        <ele>194</ele>
        <time>2012-10-13T11:20:56Z</time>
      </trkpt>
      <trkpt lat="43.38799" lon="6.63596">
        <ele>196</ele>
        <time>2012-10-13T11:21:00Z</time>
      </trkpt>
      <trkpt lat="43.38793" lon="6.63569">
        <ele>199</ele>
        <time>2012-10-13T11:21:06Z</time>
      </trkpt>
      <trkpt lat="43.38786" lon="6.63551">
        <ele>195</ele>
        <time>2012-10-13T11:21:11Z</time>
      </trkpt>
      <trkpt lat="43.38784" lon="6.63519">
        <ele>196</ele>
        <time>2012-10-13T11:21:22Z</time>
      </trkpt>
      <trkpt lat="43.38793" lon="6.63493">
        <ele>200</ele>
        <time>2012-10-13T11:21:34Z</time>
      </trkpt>
      <trkpt lat="43.38762" lon="6.63483">
        <ele>192</ele>
        <time>2012-10-13T11:21:43Z</time>
      </trkpt>
      <trkpt lat="43.38746" lon="6.63498">
        <ele>189</ele>
        <time>2012-10-13T11:21:48Z</time>
      </trkpt>
      <trkpt lat="43.38736" lon="6.63506">
        <ele>188</ele>
        <time>2012-10-13T11:21:51Z</time>
      </trkpt>
      <trkpt lat="43.38719" lon="6.635">
        <ele>188</ele>
        <time>2012-10-13T11:21:56Z</time>
      </trkpt>
      <trkpt lat="43.38705" lon="6.63493">
        <ele>188</ele>
        <time>2012-10-13T11:21:59Z</time>
      </trkpt>
      <trkpt lat="43.38674" lon="6.63475">
        <ele>181</ele>
        <time>2012-10-13T11:22:05Z</time>
      </trkpt>
      <trkpt lat="43.38655" lon="6.63432">
        <ele>178</ele>
        <time>2012-10-13T11:22:11Z</time>
      </trkpt>
      <trkpt lat="43.38646" lon="6.63409">
        <ele>174</ele>
        <time>2012-10-13T11:22:14Z</time>
      </trkpt>
      <trkpt lat="43.38624" lon="6.63401">
        <ele>175</ele>
        <time>2012-10-13T11:22:21Z</time>
      </trkpt>
      <trkpt lat="43.38599" lon="6.63396">
        <ele>167</ele>
        <time>2012-10-13T11:22:26Z</time>
      </trkpt>
      <trkpt lat="43.3858" lon="6.63392">
        <ele>168</ele>
        <time>2012-10-13T11:22:30Z</time>
      </trkpt>
      <trkpt lat="43.38556" lon="6.63384">
        <ele>168</ele>
        <time>2012-10-13T11:22:35Z</time>
      </trkpt>
      <trkpt lat="43.38522" lon="6.63415">
        <ele>165</ele>
        <time>2012-10-13T11:22:41Z</time>
      </trkpt>
      <trkpt lat="43.38492" lon="6.63442">
        <ele>167</ele>
        <time>2012-10-13T11:22:46Z</time>
      </trkpt>
      <trkpt lat="43.38478" lon="6.63459">
        <ele>166</ele>
        <time>2012-10-13T11:22:49Z</time>
      </trkpt>
      <trkpt lat="43.38449" lon="6.63487">
        <ele>167</ele>
        <time>2012-10-13T11:22:55Z</time>
      </trkpt>
      <trkpt lat="43.38426" lon="6.63513">
        <ele>166</ele>
        <time>2012-10-13T11:23:00Z</time>
      </trkpt>
      <trkpt lat="43.38418" lon="6.63533">
        <ele>168</ele>
        <time>2012-10-13T11:23:03Z</time>
      </trkpt>
      <trkpt lat="43.3841" lon="6.63559">
        <ele>166</ele>
        <time>2012-10-13T11:23:06Z</time>
      </trkpt>
      <trkpt lat="43.38383" lon="6.63598">
        <ele>157</ele>
        <time>2012-10-13T11:23:12Z</time>
      </trkpt>
      <trkpt lat="43.38367" lon="6.63623">
        <ele>153</ele>
        <time>2012-10-13T11:23:18Z</time>
      </trkpt>
      <trkpt lat="43.38343" lon="6.63644">
        <ele>148</ele>
        <time>2012-10-13T11:23:29Z</time>
      </trkpt>
      <trkpt lat="43.38326" lon="6.63665">
        <ele>155</ele>
        <time>2012-10-13T11:23:39Z</time>
      </trkpt>
      <trkpt lat="43.38306" lon="6.63691">
        <ele>157</ele>
        <time>2012-10-13T11:23:52Z</time>
      </trkpt>
      <trkpt lat="43.38306" lon="6.63691">
        <ele>94</ele>
        <time>2012-10-13T11:24:06Z</time>
      </trkpt>
      <trkpt lat="43.38306" lon="6.63691">
        <ele>94</ele>
        <time>2012-10-13T11:24:26Z</time>
      </trkpt>
      <trkpt lat="43.38257" lon="6.63714">
        <ele>150</ele>
        <time>2012-10-13T11:24:26Z</time>
      </trkpt>
      <trkpt lat="43.38257" lon="6.63714">
        <ele>94</ele>
        <time>2012-10-13T11:24:36Z</time>
      </trkpt>
      <trkpt lat="43.38257" lon="6.63714">
        <ele>94</ele>
        <time>2012-10-13T11:24:57Z</time>
      </trkpt>
      <trkpt lat="43.38221" lon="6.63696">
        <ele>147</ele>
        <time>2012-10-13T11:24:57Z</time>
      </trkpt>
      <trkpt lat="43.38197" lon="6.63679">
        <ele>146</ele>
        <time>2012-10-13T11:25:05Z</time>
      </trkpt>
      <trkpt lat="43.38175" lon="6.63653">
        <ele>144</ele>
        <time>2012-10-13T11:25:12Z</time>
      </trkpt>
      <trkpt lat="43.38152" lon="6.6361">
        <ele>148</ele>
        <time>2012-10-13T11:25:20Z</time>
      </trkpt>
      <trkpt lat="43.3814" lon="6.63629">
        <ele>157</ele>
        <time>2012-10-13T11:25:34Z</time>
      </trkpt>
      <trkpt lat="43.3814" lon="6.63629">
        <ele>99</ele>
        <time>2012-10-13T11:25:47Z</time>
      </trkpt>
      <trkpt lat="43.3814" lon="6.63629">
        <ele>99</ele>
        <time>2012-10-13T11:25:59Z</time>
      </trkpt>
      <trkpt lat="43.38139" lon="6.63679">
        <ele>146</ele>
        <time>2012-10-13T11:25:59Z</time>
      </trkpt>
      <trkpt lat="43.38143" lon="6.63699">
        <ele>150</ele>
        <time>2012-10-13T11:26:05Z</time>
      </trkpt>
      <trkpt lat="43.38148" lon="6.63717">
        <ele>149</ele>
        <time>2012-10-13T11:26:10Z</time>
      </trkpt>
      <trkpt lat="43.3816" lon="6.63751">
        <ele>148</ele>
        <time>2012-10-13T11:26:20Z</time>
      </trkpt>
      <trkpt lat="43.3817" lon="6.6377">
        <ele>150</ele>
        <time>2012-10-13T11:26:28Z</time>
      </trkpt>
      <trkpt lat="43.38186" lon="6.63804">
        <ele>153</ele>
        <time>2012-10-13T11:26:41Z</time>
      </trkpt>
      <trkpt lat="43.38201" lon="6.63831">
        <ele>151</ele>
        <time>2012-10-13T11:26:53Z</time>
      </trkpt>
      <trkpt lat="43.38219" lon="6.63856">
        <ele>148</ele>
        <time>2012-10-13T11:27:06Z</time>
      </trkpt>
      <trkpt lat="43.38219" lon="6.63856">
        <ele>111</ele>
        <time>2012-10-13T11:27:12Z</time>
      </trkpt>
      <trkpt lat="43.38219" lon="6.63856">
        <ele>111</ele>
        <time>2012-10-13T11:28:00Z</time>
      </trkpt>
      <trkpt lat="43.38183" lon="6.63826">
        <ele>150</ele>
        <time>2012-10-13T11:28:00Z</time>
      </trkpt>
      <trkpt lat="43.38183" lon="6.63826">
        <ele>108</ele>
        <time>2012-10-13T11:28:05Z</time>
      </trkpt>
      <trkpt lat="43.38183" lon="6.63826">
        <ele>108</ele>
        <time>2012-10-13T11:28:13Z</time>
      </trkpt>
      <trkpt lat="43.38147" lon="6.63816">
        <ele>157</ele>
        <time>2012-10-13T11:28:13Z</time>
      </trkpt>
      <trkpt lat="43.3813" lon="6.6381">
        <ele>158</ele>
        <time>2012-10-13T11:28:17Z</time>
      </trkpt>
      <trkpt lat="43.38114" lon="6.63803">
        <ele>156</ele>
        <time>2012-10-13T11:28:23Z</time>
      </trkpt>
      <trkpt lat="43.38096" lon="6.63793">
        <ele>159</ele>
        <time>2012-10-13T11:28:32Z</time>
      </trkpt>
      <trkpt lat="43.38075" lon="6.63783">
        <ele>160</ele>
        <time>2012-10-13T11:28:42Z</time>
      </trkpt>
      <trkpt lat="43.38045" lon="6.6378">
        <ele>165</ele>
        <time>2012-10-13T11:28:59Z</time>
      </trkpt>
      <trkpt lat="43.38029" lon="6.63772">
        <ele>171</ele>
        <time>2012-10-13T11:29:09Z</time>
      </trkpt>
      <trkpt lat="43.38003" lon="6.63761">
        <ele>171</ele>
        <time>2012-10-13T11:29:24Z</time>
      </trkpt>
      <trkpt lat="43.37969" lon="6.63763">
        <ele>178</ele>
        <time>2012-10-13T11:29:42Z</time>
      </trkpt>
      <trkpt lat="43.37945" lon="6.63764">
        <ele>182</ele>
        <time>2012-10-13T11:29:58Z</time>
      </trkpt>
      <trkpt lat="43.37916" lon="6.6377">
        <ele>184</ele>
        <time>2012-10-13T11:30:16Z</time>
      </trkpt>
      <trkpt lat="43.37894" lon="6.6377">
        <ele>181</ele>
        <time>2012-10-13T11:30:30Z</time>
      </trkpt>
      <trkpt lat="43.37882" lon="6.63767">
        <ele>180</ele>
        <time>2012-10-13T11:30:37Z</time>
      </trkpt>
      <trkpt lat="43.37855" lon="6.63761">
        <ele>181</ele>
        <time>2012-10-13T11:30:49Z</time>
      </trkpt>
      <trkpt lat="43.37836" lon="6.63763">
        <ele>179</ele>
        <time>2012-10-13T11:30:56Z</time>
      </trkpt>
      <trkpt lat="43.37816" lon="6.63761">
        <ele>185</ele>
        <time>2012-10-13T11:31:01Z</time>
      </trkpt>
      <trkpt lat="43.37804" lon="6.63758">
        <ele>190</ele>
        <time>2012-10-13T11:31:06Z</time>
      </trkpt>
      <trkpt lat="43.37783" lon="6.63747">
        <ele>195</ele>
        <time>2012-10-13T11:31:19Z</time>
      </trkpt>
      <trkpt lat="43.37756" lon="6.63746">
        <ele>200</ele>
        <time>2012-10-13T11:31:32Z</time>
      </trkpt>
      <trkpt lat="43.37754" lon="6.6372">
        <ele>199</ele>
        <time>2012-10-13T11:31:46Z</time>
      </trkpt>
      <trkpt lat="43.37756" lon="6.63706">
        <ele>201</ele>
        <time>2012-10-13T11:31:51Z</time>
      </trkpt>
      <trkpt lat="43.37736" lon="6.6367">
        <ele>200</ele>
        <time>2012-10-13T11:32:03Z</time>
      </trkpt>
      <trkpt lat="43.37714" lon="6.63635">
        <ele>203</ele>
        <time>2012-10-13T11:32:12Z</time>
      </trkpt>
      <trkpt lat="43.3771" lon="6.63611">
        <ele>206</ele>
        <time>2012-10-13T11:32:18Z</time>
      </trkpt>
      <trkpt lat="43.37731" lon="6.63578">
        <ele>198</ele>
        <time>2012-10-13T11:32:27Z</time>
      </trkpt>
      <trkpt lat="43.37729" lon="6.63553">
        <ele>196</ele>
        <time>2012-10-13T11:32:32Z</time>
      </trkpt>
      <trkpt lat="43.37735" lon="6.6351">
        <ele>196</ele>
        <time>2012-10-13T11:32:40Z</time>
      </trkpt>
      <trkpt lat="43.37742" lon="6.63482">
        <ele>197</ele>
        <time>2012-10-13T11:32:46Z</time>
      </trkpt>
      <trkpt lat="43.37744" lon="6.63446">
        <ele>195</ele>
        <time>2012-10-13T11:32:53Z</time>
      </trkpt>
      <trkpt lat="43.3774" lon="6.63428">
        <ele>202</ele>
        <time>2012-10-13T11:32:58Z</time>
      </trkpt>
      <trkpt lat="43.37731" lon="6.63397">
        <ele>199</ele>
        <time>2012-10-13T11:33:09Z</time>
      </trkpt>
      <trkpt lat="43.37724" lon="6.63375">
        <ele>204</ele>
        <time>2012-10-13T11:33:17Z</time>
      </trkpt>
      <trkpt lat="43.37711" lon="6.63355">
        <ele>202</ele>
        <time>2012-10-13T11:33:28Z</time>
      </trkpt>
      <trkpt lat="43.3768" lon="6.63365">
        <ele>213</ele>
        <time>2012-10-13T11:33:41Z</time>
      </trkpt>
      <trkpt lat="43.37664" lon="6.63367">
        <ele>211</ele>
        <time>2012-10-13T11:33:49Z</time>
      </trkpt>
      <trkpt lat="43.37669" lon="6.63391">
        <ele>219</ele>
        <time>2012-10-13T11:34:04Z</time>
      </trkpt>
      <trkpt lat="43.37677" lon="6.63409">
        <ele>213</ele>
        <time>2012-10-13T11:34:14Z</time>
      </trkpt>
      <trkpt lat="43.37687" lon="6.63438">
        <ele>215</ele>
        <time>2012-10-13T11:34:28Z</time>
      </trkpt>
      <trkpt lat="43.37686" lon="6.63468">
        <ele>224</ele>
        <time>2012-10-13T11:34:40Z</time>
      </trkpt>
      <trkpt lat="43.37683" lon="6.63513">
        <ele>227</ele>
        <time>2012-10-13T11:34:55Z</time>
      </trkpt>
      <trkpt lat="43.37675" lon="6.63529">
        <ele>227</ele>
        <time>2012-10-13T11:35:00Z</time>
      </trkpt>
      <trkpt lat="43.3766" lon="6.63556">
        <ele>226</ele>
        <time>2012-10-13T11:35:10Z</time>
      </trkpt>
      <trkpt lat="43.37642" lon="6.63581">
        <ele>230</ele>
        <time>2012-10-13T11:35:21Z</time>
      </trkpt>
      <trkpt lat="43.37623" lon="6.63601">
        <ele>225</ele>
        <time>2012-10-13T11:35:32Z</time>
      </trkpt>
      <trkpt lat="43.3762" lon="6.63631">
        <ele>233</ele>
        <time>2012-10-13T11:35:44Z</time>
      </trkpt>
      <trkpt lat="43.37625" lon="6.63664">
        <ele>241</ele>
        <time>2012-10-13T11:35:57Z</time>
      </trkpt>
      <trkpt lat="43.37627" lon="6.6368">
        <ele>239</ele>
        <time>2012-10-13T11:36:04Z</time>
      </trkpt>
      <trkpt lat="43.37638" lon="6.63707">
        <ele>244</ele>
        <time>2012-10-13T11:36:17Z</time>
      </trkpt>
      <trkpt lat="43.37637" lon="6.6374">
        <ele>246</ele>
        <time>2012-10-13T11:36:34Z</time>
      </trkpt>
      <trkpt lat="43.37635" lon="6.63777">
        <ele>244</ele>
        <time>2012-10-13T11:36:48Z</time>
      </trkpt>
      <trkpt lat="43.37643" lon="6.63793">
        <ele>248</ele>
        <time>2012-10-13T11:36:56Z</time>
      </trkpt>
      <trkpt lat="43.3766" lon="6.63823">
        <ele>251</ele>
        <time>2012-10-13T11:37:10Z</time>
      </trkpt>
      <trkpt lat="43.37672" lon="6.6385">
        <ele>250</ele>
        <time>2012-10-13T11:37:21Z</time>
      </trkpt>
      <trkpt lat="43.37682" lon="6.63889">
        <ele>253</ele>
        <time>2012-10-13T11:37:37Z</time>
      </trkpt>
      <trkpt lat="43.37687" lon="6.63913">
        <ele>253</ele>
        <time>2012-10-13T11:37:48Z</time>
      </trkpt>
      <trkpt lat="43.37691" lon="6.6395">
        <ele>265</ele>
        <time>2012-10-13T11:38:04Z</time>
      </trkpt>
      <trkpt lat="43.3767" lon="6.63924">
        <ele>262</ele>
        <time>2012-10-13T11:38:18Z</time>
      </trkpt>
      <trkpt lat="43.37664" lon="6.63908">
        <ele>261</ele>
        <time>2012-10-13T11:38:23Z</time>
      </trkpt>
      <trkpt lat="43.37654" lon="6.63894">
        <ele>266</ele>
        <time>2012-10-13T11:38:30Z</time>
      </trkpt>
      <trkpt lat="43.37629" lon="6.63918">
        <ele>268</ele>
        <time>2012-10-13T11:38:42Z</time>
      </trkpt>
      <trkpt lat="43.37617" lon="6.63925">
        <ele>271</ele>
        <time>2012-10-13T11:38:49Z</time>
      </trkpt>
      <trkpt lat="43.37603" lon="6.63919">
        <ele>263</ele>
        <time>2012-10-13T11:39:03Z</time>
      </trkpt>
      <trkpt lat="43.37578" lon="6.63908">
        <ele>272</ele>
        <time>2012-10-13T11:39:20Z</time>
      </trkpt>
      <trkpt lat="43.37564" lon="6.63891">
        <ele>276</ele>
        <time>2012-10-13T11:39:30Z</time>
      </trkpt>
      <trkpt lat="43.37554" lon="6.63869">
        <ele>282</ele>
        <time>2012-10-13T11:39:41Z</time>
      </trkpt>
      <trkpt lat="43.37548" lon="6.63842">
        <ele>280</ele>
        <time>2012-10-13T11:39:52Z</time>
      </trkpt>
      <trkpt lat="43.37542" lon="6.63819">
        <ele>279</ele>
        <time>2012-10-13T11:40:01Z</time>
      </trkpt>
      <trkpt lat="43.37535" lon="6.63796">
        <ele>283</ele>
        <time>2012-10-13T11:40:12Z</time>
      </trkpt>
      <trkpt lat="43.37532" lon="6.63778">
        <ele>279</ele>
        <time>2012-10-13T11:40:21Z</time>
      </trkpt>
      <trkpt lat="43.37512" lon="6.63755">
        <ele>282</ele>
        <time>2012-10-13T11:40:33Z</time>
      </trkpt>
      <trkpt lat="43.37502" lon="6.6374">
        <ele>278</ele>
        <time>2012-10-13T11:40:40Z</time>
      </trkpt>
      <trkpt lat="43.37482" lon="6.63718">
        <ele>288</ele>
        <time>2012-10-13T11:40:51Z</time>
      </trkpt>
      <trkpt lat="43.37466" lon="6.63706">
        <ele>290</ele>
        <time>2012-10-13T11:41:02Z</time>
      </trkpt>
      <trkpt lat="43.37438" lon="6.6369">
        <ele>298</ele>
        <time>2012-10-13T11:41:15Z</time>
      </trkpt>
      <trkpt lat="43.3742" lon="6.63683">
        <ele>297</ele>
        <time>2012-10-13T11:41:21Z</time>
      </trkpt>
      <trkpt lat="43.37403" lon="6.63671">
        <ele>300</ele>
        <time>2012-10-13T11:41:28Z</time>
      </trkpt>
      <trkpt lat="43.37393" lon="6.63669">
        <ele>298</ele>
        <time>2012-10-13T11:41:33Z</time>
      </trkpt>
      <trkpt lat="43.37374" lon="6.63657">
        <ele>296</ele>
        <time>2012-10-13T11:41:43Z</time>
      </trkpt>
      <trkpt lat="43.37349" lon="6.63647">
        <ele>301</ele>
        <time>2012-10-13T11:41:53Z</time>
      </trkpt>
      <trkpt lat="43.37345" lon="6.63628">
        <ele>304</ele>
        <time>2012-10-13T11:41:58Z</time>
      </trkpt>
      <trkpt lat="43.37336" lon="6.6361">
        <ele>305</ele>
        <time>2012-10-13T11:42:04Z</time>
      </trkpt>
      <trkpt lat="43.37333" lon="6.63627">
        <ele>310</ele>
        <time>2012-10-13T11:42:17Z</time>
      </trkpt>
      <trkpt lat="43.37333" lon="6.63654">
        <ele>313</ele>
        <time>2012-10-13T11:42:29Z</time>
      </trkpt>
      <trkpt lat="43.37335" lon="6.63675">
        <ele>313</ele>
        <time>2012-10-13T11:42:39Z</time>
      </trkpt>
      <trkpt lat="43.37335" lon="6.63675">
        <ele>259</ele>
        <time>2012-10-13T11:42:56Z</time>
      </trkpt>
      <trkpt lat="43.37335" lon="6.63675">
        <ele>259</ele>
        <time>2012-10-13T11:42:59Z</time>
      </trkpt>
      <trkpt lat="43.3732" lon="6.63677">
        <ele>315</ele>
        <time>2012-10-13T11:42:59Z</time>
      </trkpt>
      <trkpt lat="43.37299" lon="6.63674">
        <ele>323</ele>
        <time>2012-10-13T11:43:10Z</time>
      </trkpt>
      <trkpt lat="43.3728" lon="6.63687">
        <ele>324</ele>
        <time>2012-10-13T11:43:25Z</time>
      </trkpt>
      <trkpt lat="43.37262" lon="6.63686">
        <ele>327</ele>
        <time>2012-10-13T11:43:34Z</time>
      </trkpt>
      <trkpt lat="43.37236" lon="6.6369">
        <ele>326</ele>
        <time>2012-10-13T11:43:51Z</time>
      </trkpt>
      <trkpt lat="43.3721" lon="6.63689">
        <ele>326</ele>
        <time>2012-10-13T11:44:09Z</time>
      </trkpt>
      <trkpt lat="43.3718" lon="6.63691">
        <ele>333</ele>
        <time>2012-10-13T11:44:22Z</time>
      </trkpt>
      <trkpt lat="43.37161" lon="6.63693">
        <ele>332</ele>
        <time>2012-10-13T11:44:31Z</time>
      </trkpt>
      <trkpt lat="43.37136" lon="6.6369">
        <ele>340</ele>
        <time>2012-10-13T11:44:42Z</time>
      </trkpt>
      <trkpt lat="43.37115" lon="6.63693">
        <ele>343</ele>
        <time>2012-10-13T11:44:53Z</time>
      </trkpt>
      <trkpt lat="43.37102" lon="6.63697">
        <ele>341</ele>
        <time>2012-10-13T11:45:00Z</time>
      </trkpt>
      <trkpt lat="43.37081" lon="6.63695">
        <ele>342</ele>
        <time>2012-10-13T11:45:10Z</time>
      </trkpt>
      <trkpt lat="43.3707" lon="6.63689">
        <ele>343</ele>
        <time>2012-10-13T11:45:20Z</time>
      </trkpt>
      <trkpt lat="43.37056" lon="6.63671">
        <ele>345</ele>
        <time>2012-10-13T11:45:38Z</time>
      </trkpt>
      <trkpt lat="43.37041" lon="6.63657">
        <ele>349</ele>
        <time>2012-10-13T11:45:55Z</time>
      </trkpt>
      <trkpt lat="43.37018" lon="6.63671">
        <ele>353</ele>
        <time>2012-10-13T11:46:12Z</time>
      </trkpt>
      <trkpt lat="43.37008" lon="6.63682">
        <ele>361</ele>
        <time>2012-10-13T11:46:20Z</time>
      </trkpt>
      <trkpt lat="43.36985" lon="6.63719">
        <ele>363</ele>
        <time>2012-10-13T11:46:32Z</time>
      </trkpt>
      <trkpt lat="43.36972" lon="6.63733">
        <ele>366</ele>
        <time>2012-10-13T11:46:38Z</time>
      </trkpt>
      <trkpt lat="43.36961" lon="6.63746">
        <ele>365</ele>
        <time>2012-10-13T11:46:43Z</time>
      </trkpt>
      <trkpt lat="43.36946" lon="6.63762">
        <ele>364</ele>
        <time>2012-10-13T11:46:50Z</time>
      </trkpt>
      <trkpt lat="43.36934" lon="6.63779">
        <ele>361</ele>
        <time>2012-10-13T11:46:58Z</time>
      </trkpt>
      <trkpt lat="43.36915" lon="6.63792">
        <ele>365</ele>
        <time>2012-10-13T11:47:08Z</time>
      </trkpt>
      <trkpt lat="43.36896" lon="6.63801">
        <ele>362</ele>
        <time>2012-10-13T11:47:20Z</time>
      </trkpt>
      <trkpt lat="43.36884" lon="6.63805">
        <ele>337</ele>
        <time>2012-10-13T11:47:31Z</time>
      </trkpt>
      <trkpt lat="43.36778" lon="6.63909">
        <ele>346</ele>
        <time>2012-10-13T11:53:44Z</time>
      </trkpt>
      <trkpt lat="43.3671" lon="6.63934">
        <ele>333</ele>
        <time>2012-10-13T11:53:50Z</time>
      </trkpt>
      <trkpt lat="43.36663" lon="6.63959">
        <ele>324</ele>
        <time>2012-10-13T11:53:56Z</time>
      </trkpt>
      <trkpt lat="43.36639" lon="6.63971">
        <ele>320</ele>
        <time>2012-10-13T11:54:00Z</time>
      </trkpt>
      <trkpt lat="43.36621" lon="6.63988">
        <ele>313</ele>
        <time>2012-10-13T11:54:24Z</time>
      </trkpt>
      <trkpt lat="43.36621" lon="6.63988">
        <ele>313</ele>
        <time>2012-10-13T11:56:32Z</time>
      </trkpt>
      <trkpt lat="43.36645" lon="6.64019">
        <ele>310</ele>
        <time>2012-10-13T11:57:49Z</time>
      </trkpt>
      <trkpt lat="43.36645" lon="6.64019">
        <ele>247</ele>
        <time>2012-10-13T11:57:55Z</time>
      </trkpt>
      <trkpt lat="43.36645" lon="6.64019">
        <ele>247</ele>
        <time>2012-10-13T11:59:02Z</time>
      </trkpt>
      <trkpt lat="43.36671" lon="6.64028">
        <ele>312</ele>
        <time>2012-10-13T11:59:02Z</time>
      </trkpt>
      <trkpt lat="43.36684" lon="6.6403">
        <ele>309</ele>
        <time>2012-10-13T11:59:10Z</time>
      </trkpt>
      <trkpt lat="43.3672" lon="6.64039">
        <ele>312</ele>
        <time>2012-10-13T11:59:25Z</time>
      </trkpt>
      <trkpt lat="43.36737" lon="6.64045">
        <ele>313</ele>
        <time>2012-10-13T11:59:42Z</time>
      </trkpt>
      <trkpt lat="43.36767" lon="6.64046">
        <ele>299</ele>
        <time>2012-10-13T12:00:23Z</time>
      </trkpt>
      <trkpt lat="43.36784" lon="6.64044">
        <ele>299</ele>
        <time>2012-10-13T12:00:30Z</time>
      </trkpt>
      <trkpt lat="43.36796" lon="6.64064">
        <ele>314</ele>
        <time>2012-10-13T12:00:49Z</time>
      </trkpt>
      <trkpt lat="43.36807" lon="6.64074">
        <ele>307</ele>
        <time>2012-10-13T12:01:06Z</time>
      </trkpt>
      <trkpt lat="43.3682" lon="6.64083">
        <ele>302</ele>
        <time>2012-10-13T12:01:15Z</time>
      </trkpt>
      <trkpt lat="43.3682" lon="6.64083">
        <ele>253</ele>
        <time>2012-10-13T12:01:22Z</time>
      </trkpt>
      <trkpt lat="43.3682" lon="6.64083">
        <ele>253</ele>
        <time>2012-10-13T12:01:35Z</time>
      </trkpt>
      <trkpt lat="43.36824" lon="6.64065">
        <ele>298</ele>
        <time>2012-10-13T12:01:35Z</time>
      </trkpt>
      <trkpt lat="43.36839" lon="6.64079">
        <ele>297</ele>
        <time>2012-10-13T12:01:52Z</time>
      </trkpt>
      <trkpt lat="43.36868" lon="6.64111">
        <ele>299</ele>
        <time>2012-10-13T12:02:06Z</time>
      </trkpt>
      <trkpt lat="43.3689" lon="6.6413">
        <ele>304</ele>
        <time>2012-10-13T12:02:15Z</time>
      </trkpt>
      <trkpt lat="43.36921" lon="6.64146">
        <ele>304</ele>
        <time>2012-10-13T12:02:23Z</time>
      </trkpt>
      <trkpt lat="43.36945" lon="6.64156">
        <ele>305</ele>
        <time>2012-10-13T12:02:29Z</time>
      </trkpt>
      <trkpt lat="43.36978" lon="6.64166">
        <ele>305</ele>
        <time>2012-10-13T12:02:36Z</time>
      </trkpt>
      <trkpt lat="43.36995" lon="6.6417">
        <ele>304</ele>
        <time>2012-10-13T12:02:42Z</time>
      </trkpt>
      <trkpt lat="43.37008" lon="6.6415">
        <ele>302</ele>
        <time>2012-10-13T12:02:55Z</time>
      </trkpt>
      <trkpt lat="43.37048" lon="6.64137">
        <ele>300</ele>
        <time>2012-10-13T12:03:11Z</time>
      </trkpt>
      <trkpt lat="43.37076" lon="6.64113">
        <ele>302</ele>
        <time>2012-10-13T12:03:17Z</time>
      </trkpt>
      <trkpt lat="43.37096" lon="6.64103">
        <ele>306</ele>
        <time>2012-10-13T12:03:21Z</time>
      </trkpt>
      <trkpt lat="43.37114" lon="6.64103">
        <ele>303</ele>
        <time>2012-10-13T12:03:24Z</time>
      </trkpt>
      <trkpt lat="43.37129" lon="6.64103">
        <ele>299</ele>
        <time>2012-10-13T12:03:27Z</time>
      </trkpt>
      <trkpt lat="43.37143" lon="6.64083">
        <ele>296</ele>
        <time>2012-10-13T12:03:32Z</time>
      </trkpt>
      <trkpt lat="43.37162" lon="6.64063">
        <ele>291</ele>
        <time>2012-10-13T12:03:38Z</time>
      </trkpt>
      <trkpt lat="43.37171" lon="6.64051">
        <ele>292</ele>
        <time>2012-10-13T12:03:45Z</time>
      </trkpt>
      <trkpt lat="43.3718" lon="6.64016">
        <ele>292</ele>
        <time>2012-10-13T12:03:52Z</time>
      </trkpt>
      <trkpt lat="43.37197" lon="6.64013">
        <ele>281</ele>
        <time>2012-10-13T12:03:59Z</time>
      </trkpt>
      <trkpt lat="43.3722" lon="6.63976">
        <ele>277</ele>
        <time>2012-10-13T12:04:08Z</time>
      </trkpt>
      <trkpt lat="43.37247" lon="6.63982">
        <ele>272</ele>
        <time>2012-10-13T12:04:14Z</time>
      </trkpt>
      <trkpt lat="43.3726" lon="6.63996">
        <ele>268</ele>
        <time>2012-10-13T12:04:18Z</time>
      </trkpt>
      <trkpt lat="43.37281" lon="6.64017">
        <ele>267</ele>
        <time>2012-10-13T12:04:24Z</time>
      </trkpt>
      <trkpt lat="43.37293" lon="6.64033">
        <ele>265</ele>
        <time>2012-10-13T12:04:28Z</time>
      </trkpt>
      <trkpt lat="43.37307" lon="6.64042">
        <ele>265</ele>
        <time>2012-10-13T12:04:31Z</time>
      </trkpt>
      <trkpt lat="43.37332" lon="6.64049">
        <ele>262</ele>
        <time>2012-10-13T12:04:36Z</time>
      </trkpt>
      <trkpt lat="43.37361" lon="6.64052">
        <ele>258</ele>
        <time>2012-10-13T12:04:41Z</time>
      </trkpt>
      <trkpt lat="43.37398" lon="6.64059">
        <ele>255</ele>
        <time>2012-10-13T12:04:47Z</time>
      </trkpt>
      <trkpt lat="43.37431" lon="6.64055">
        <ele>248</ele>
        <time>2012-10-13T12:04:52Z</time>
      </trkpt>
      <trkpt lat="43.37467" lon="6.64056">
        <ele>247</ele>
        <time>2012-10-13T12:04:58Z</time>
      </trkpt>
      <trkpt lat="43.37489" lon="6.64053">
        <ele>249</ele>
        <time>2012-10-13T12:05:03Z</time>
      </trkpt>
      <trkpt lat="43.37501" lon="6.64044">
        <ele>247</ele>
        <time>2012-10-13T12:05:06Z</time>
      </trkpt>
      <trkpt lat="43.3751" lon="6.64036">
        <ele>248</ele>
        <time>2012-10-13T12:05:09Z</time>
      </trkpt>
      <trkpt lat="43.37527" lon="6.64011">
        <ele>249</ele>
        <time>2012-10-13T12:05:17Z</time>
      </trkpt>
      <trkpt lat="43.37542" lon="6.63996">
        <ele>254</ele>
        <time>2012-10-13T12:05:24Z</time>
      </trkpt>
      <trkpt lat="43.37569" lon="6.63995">
        <ele>259</ele>
        <time>2012-10-13T12:05:33Z</time>
      </trkpt>
      <trkpt lat="43.37601" lon="6.63996">
        <ele>256</ele>
        <time>2012-10-13T12:05:40Z</time>
      </trkpt>
      <trkpt lat="43.37605" lon="6.64019">
        <ele>258</ele>
        <time>2012-10-13T12:05:46Z</time>
      </trkpt>
      <trkpt lat="43.37603" lon="6.64041">
        <ele>259</ele>
        <time>2012-10-13T12:05:52Z</time>
      </trkpt>
      <trkpt lat="43.3764" lon="6.64048">
        <ele>257</ele>
        <time>2012-10-13T12:05:58Z</time>
      </trkpt>
      <trkpt lat="43.37666" lon="6.64054">
        <ele>254</ele>
        <time>2012-10-13T12:06:02Z</time>
      </trkpt>
      <trkpt lat="43.3765" lon="6.64079">
        <ele>246</ele>
        <time>2012-10-13T12:06:11Z</time>
      </trkpt>
      <trkpt lat="43.3763" lon="6.64101">
        <ele>243</ele>
        <time>2012-10-13T12:06:17Z</time>
      </trkpt>
      <trkpt lat="43.37663" lon="6.64121">
        <ele>232</ele>
        <time>2012-10-13T12:06:25Z</time>
      </trkpt>
      <trkpt lat="43.37692" lon="6.64111">
        <ele>231</ele>
        <time>2012-10-13T12:06:30Z</time>
      </trkpt>
      <trkpt lat="43.37722" lon="6.64102">
        <ele>228</ele>
        <time>2012-10-13T12:06:36Z</time>
      </trkpt>
      <trkpt lat="43.37757" lon="6.64095">
        <ele>220</ele>
        <time>2012-10-13T12:06:42Z</time>
      </trkpt>
      <trkpt lat="43.3779" lon="6.64094">
        <ele>221</ele>
        <time>2012-10-13T12:06:48Z</time>
      </trkpt>
      <trkpt lat="43.37832" lon="6.64088">
        <ele>216</ele>
        <time>2012-10-13T12:06:54Z</time>
      </trkpt>
      <trkpt lat="43.37851" lon="6.64081">
        <ele>209</ele>
        <time>2012-10-13T12:06:57Z</time>
      </trkpt>
      <trkpt lat="43.37876" lon="6.64083">
        <ele>206</ele>
        <time>2012-10-13T12:07:03Z</time>
      </trkpt>
      <trkpt lat="43.37899" lon="6.64087">
        <ele>206</ele>
        <time>2012-10-13T12:07:09Z</time>
      </trkpt>
      <trkpt lat="43.3793" lon="6.64096">
        <ele>207</ele>
        <time>2012-10-13T12:07:15Z</time>
      </trkpt>
      <trkpt lat="43.3795" lon="6.64102">
        <ele>203</ele>
        <time>2012-10-13T12:07:21Z</time>
      </trkpt>
      <trkpt lat="43.37985" lon="6.64125">
        <ele>197</ele>
        <time>2012-10-13T12:07:27Z</time>
      </trkpt>
      <trkpt lat="43.38003" lon="6.64136">
        <ele>195</ele>
        <time>2012-10-13T12:07:30Z</time>
      </trkpt>
      <trkpt lat="43.3803" lon="6.64157">
        <ele>191</ele>
        <time>2012-10-13T12:07:35Z</time>
      </trkpt>
      <trkpt lat="43.38053" lon="6.64179">
        <ele>187</ele>
        <time>2012-10-13T12:07:41Z</time>
      </trkpt>
      <trkpt lat="43.38064" lon="6.64197">
        <ele>185</ele>
        <time>2012-10-13T12:07:49Z</time>
      </trkpt>
      <trkpt lat="43.38066" lon="6.64212">
        <ele>184</ele>
        <time>2012-10-13T12:07:54Z</time>
      </trkpt>
      <trkpt lat="43.3807" lon="6.64225">
        <ele>184</ele>
        <time>2012-10-13T12:07:58Z</time>
      </trkpt>
      <trkpt lat="43.38067" lon="6.64245">
        <ele>179</ele>
        <time>2012-10-13T12:08:05Z</time>
      </trkpt>
      <trkpt lat="43.38067" lon="6.64245">
        <ele>121</ele>
        <time>2012-10-13T12:08:19Z</time>
      </trkpt>
      <trkpt lat="43.38067" lon="6.64245">
        <ele>121</ele>
        <time>2012-10-13T12:08:27Z</time>
      </trkpt>
      <trkpt lat="43.38079" lon="6.6428">
        <ele>174</ele>
        <time>2012-10-13T12:08:27Z</time>
      </trkpt>
      <trkpt lat="43.38113" lon="6.64274">
        <ele>171</ele>
        <time>2012-10-13T12:08:40Z</time>
      </trkpt>
      <trkpt lat="43.38144" lon="6.64267">
        <ele>167</ele>
        <time>2012-10-13T12:08:49Z</time>
      </trkpt>
      <trkpt lat="43.38172" lon="6.6425">
        <ele>163</ele>
        <time>2012-10-13T12:08:56Z</time>
      </trkpt>
      <trkpt lat="43.38194" lon="6.64233">
        <ele>156</ele>
        <time>2012-10-13T12:09:04Z</time>
      </trkpt>
      <trkpt lat="43.38202" lon="6.64223">
        <ele>156</ele>
        <time>2012-10-13T12:09:07Z</time>
      </trkpt>
      <trkpt lat="43.3822" lon="6.64247">
        <ele>158</ele>
        <time>2012-10-13T12:09:15Z</time>
      </trkpt>
      <trkpt lat="43.38221" lon="6.64271">
        <ele>155</ele>
        <time>2012-10-13T12:09:19Z</time>
      </trkpt>
      <trkpt lat="43.38219" lon="6.64314">
        <ele>153</ele>
        <time>2012-10-13T12:09:26Z</time>
      </trkpt>
      <trkpt lat="43.38191" lon="6.64336">
        <ele>148</ele>
        <time>2012-10-13T12:09:32Z</time>
      </trkpt>
      <trkpt lat="43.38173" lon="6.64348">
        <ele>145</ele>
        <time>2012-10-13T12:09:36Z</time>
      </trkpt>
      <trkpt lat="43.38141" lon="6.64398">
        <ele>141</ele>
        <time>2012-10-13T12:09:43Z</time>
      </trkpt>
      <trkpt lat="43.3812" lon="6.64434">
        <ele>139</ele>
        <time>2012-10-13T12:09:48Z</time>
      </trkpt>
      <trkpt lat="43.38104" lon="6.64435">
        <ele>140</ele>
        <time>2012-10-13T12:09:51Z</time>
      </trkpt>
      <trkpt lat="43.38065" lon="6.64423">
        <ele>141</ele>
        <time>2012-10-13T12:09:57Z</time>
      </trkpt>
      <trkpt lat="43.38023" lon="6.64447">
        <ele>139</ele>
        <time>2012-10-13T12:10:03Z</time>
      </trkpt>
      <trkpt lat="43.37981" lon="6.64447">
        <ele>139</ele>
        <time>2012-10-13T12:10:09Z</time>
      </trkpt>
      <trkpt lat="43.37959" lon="6.64445">
        <ele>141</ele>
        <time>2012-10-13T12:10:12Z</time>
      </trkpt>
      <trkpt lat="43.37919" lon="6.64444">
        <ele>139</ele>
        <time>2012-10-13T12:10:18Z</time>
      </trkpt>
      <trkpt lat="43.37886" lon="6.64449">
        <ele>139</ele>
        <time>2012-10-13T12:10:24Z</time>
      </trkpt>
      <trkpt lat="43.37862" lon="6.64458">
        <ele>138</ele>
        <time>2012-10-13T12:10:29Z</time>
      </trkpt>
      <trkpt lat="43.37842" lon="6.64475">
        <ele>135</ele>
        <time>2012-10-13T12:10:34Z</time>
      </trkpt>
      <trkpt lat="43.37817" lon="6.64493">
        <ele>137</ele>
        <time>2012-10-13T12:10:40Z</time>
      </trkpt>
      <trkpt lat="43.37798" lon="6.64505">
        <ele>137</ele>
        <time>2012-10-13T12:10:45Z</time>
      </trkpt>
      <trkpt lat="43.37787" lon="6.64511">
        <ele>138</ele>
        <time>2012-10-13T12:10:48Z</time>
      </trkpt>
      <trkpt lat="43.37765" lon="6.64525">
        <ele>134</ele>
        <time>2012-10-13T12:10:54Z</time>
      </trkpt>
      <trkpt lat="43.37753" lon="6.6455">
        <ele>135</ele>
        <time>2012-10-13T12:11:01Z</time>
      </trkpt>
      <trkpt lat="43.37742" lon="6.64578">
        <ele>137</ele>
        <time>2012-10-13T12:11:10Z</time>
      </trkpt>
      <trkpt lat="43.37724" lon="6.64596">
        <ele>138</ele>
        <time>2012-10-13T12:11:19Z</time>
      </trkpt>
      <trkpt lat="43.37708" lon="6.64597">
        <ele>141</ele>
        <time>2012-10-13T12:11:27Z</time>
      </trkpt>
      <trkpt lat="43.3769" lon="6.64598">
        <ele>143</ele>
        <time>2012-10-13T12:11:38Z</time>
      </trkpt>
      <trkpt lat="43.37669" lon="6.64596">
        <ele>144</ele>
        <time>2012-10-13T12:11:49Z</time>
      </trkpt>
      <trkpt lat="43.37646" lon="6.64579">
        <ele>144</ele>
        <time>2012-10-13T12:12:01Z</time>
      </trkpt>
      <trkpt lat="43.37611" lon="6.64582">
        <ele>146</ele>
        <time>2012-10-13T12:12:10Z</time>
      </trkpt>
      <trkpt lat="43.37591" lon="6.64587">
        <ele>152</ele>
        <time>2012-10-13T12:12:16Z</time>
      </trkpt>
      <trkpt lat="43.37562" lon="6.64608">
        <ele>152</ele>
        <time>2012-10-13T12:12:24Z</time>
      </trkpt>
      <trkpt lat="43.37534" lon="6.64631">
        <ele>146</ele>
        <time>2012-10-13T12:12:30Z</time>
      </trkpt>
      <trkpt lat="43.3751" lon="6.6465">
        <ele>146</ele>
        <time>2012-10-13T12:12:36Z</time>
      </trkpt>
      <trkpt lat="43.375" lon="6.64656">
        <ele>145</ele>
        <time>2012-10-13T12:12:39Z</time>
      </trkpt>
      <trkpt lat="43.37493" lon="6.64662">
        <ele>145</ele>
        <time>2012-10-13T12:12:42Z</time>
      </trkpt>
      <trkpt lat="43.37474" lon="6.64677">
        <ele>144</ele>
        <time>2012-10-13T12:12:51Z</time>
      </trkpt>
      <trkpt lat="43.37449" lon="6.64701">
        <ele>147</ele>
        <time>2012-10-13T12:13:01Z</time>
      </trkpt>
      <trkpt lat="43.37424" lon="6.64722">
        <ele>148</ele>
        <time>2012-10-13T12:13:11Z</time>
      </trkpt>
      <trkpt lat="43.37402" lon="6.64743">
        <ele>147</ele>
        <time>2012-10-13T12:13:19Z</time>
      </trkpt>
      <trkpt lat="43.37389" lon="6.64754">
        <ele>148</ele>
        <time>2012-10-13T12:13:23Z</time>
      </trkpt>
      <trkpt lat="43.37368" lon="6.64768">
        <ele>149</ele>
        <time>2012-10-13T12:13:30Z</time>
      </trkpt>
      <trkpt lat="43.37352" lon="6.64769">
        <ele>155</ele>
        <time>2012-10-13T12:13:35Z</time>
      </trkpt>
      <trkpt lat="43.37336" lon="6.64769">
        <ele>151</ele>
        <time>2012-10-13T12:13:39Z</time>
      </trkpt>
      <trkpt lat="43.37314" lon="6.64769">
        <ele>156</ele>
        <time>2012-10-13T12:13:46Z</time>
      </trkpt>
      <trkpt lat="43.37299" lon="6.6477">
        <ele>157</ele>
        <time>2012-10-13T12:13:51Z</time>
      </trkpt>
      <trkpt lat="43.37281" lon="6.64766">
        <ele>156</ele>
        <time>2012-10-13T12:13:57Z</time>
      </trkpt>
      <trkpt lat="43.3726" lon="6.6474">
        <ele>155</ele>
        <time>2012-10-13T12:14:06Z</time>
      </trkpt>
      <trkpt lat="43.37248" lon="6.64722">
        <ele>156</ele>
        <time>2012-10-13T12:14:11Z</time>
      </trkpt>
      <trkpt lat="43.37242" lon="6.64711">
        <ele>152</ele>
        <time>2012-10-13T12:14:14Z</time>
      </trkpt>
      <trkpt lat="43.37223" lon="6.64689">
        <ele>156</ele>
        <time>2012-10-13T12:14:22Z</time>
      </trkpt>
      <trkpt lat="43.37203" lon="6.64695">
        <ele>158</ele>
        <time>2012-10-13T12:14:28Z</time>
      </trkpt>
      <trkpt lat="43.3718" lon="6.64703">
        <ele>156</ele>
        <time>2012-10-13T12:14:36Z</time>
      </trkpt>
      <trkpt lat="43.37164" lon="6.64717">
        <ele>154</ele>
        <time>2012-10-13T12:14:43Z</time>
      </trkpt>
      <trkpt lat="43.37137" lon="6.6473">
        <ele>155</ele>
        <time>2012-10-13T12:14:52Z</time>
      </trkpt>
      <trkpt lat="43.37113" lon="6.64737">
        <ele>153</ele>
        <time>2012-10-13T12:15:00Z</time>
      </trkpt>
      <trkpt lat="43.3709" lon="6.64755">
        <ele>154</ele>
        <time>2012-10-13T12:15:08Z</time>
      </trkpt>
      <trkpt lat="43.37063" lon="6.64774">
        <ele>156</ele>
        <time>2012-10-13T12:15:17Z</time>
      </trkpt>
      <trkpt lat="43.37039" lon="6.64777">
        <ele>158</ele>
        <time>2012-10-13T12:15:24Z</time>
      </trkpt>
      <trkpt lat="43.37028" lon="6.64777">
        <ele>158</ele>
        <time>2012-10-13T12:15:27Z</time>
      </trkpt>
      <trkpt lat="43.37013" lon="6.64772">
        <ele>159</ele>
        <time>2012-10-13T12:15:31Z</time>
      </trkpt>
      <trkpt lat="43.36983" lon="6.6476">
        <ele>162</ele>
        <time>2012-10-13T12:15:39Z</time>
      </trkpt>
      <trkpt lat="43.36958" lon="6.64759">
        <ele>160</ele>
        <time>2012-10-13T12:15:46Z</time>
      </trkpt>
      <trkpt lat="43.36947" lon="6.6476">
        <ele>158</ele>
        <time>2012-10-13T12:15:49Z</time>
      </trkpt>
      <trkpt lat="43.36924" lon="6.64768">
        <ele>160</ele>
        <time>2012-10-13T12:15:55Z</time>
      </trkpt>
      <trkpt lat="43.36902" lon="6.64781">
        <ele>158</ele>
        <time>2012-10-13T12:16:01Z</time>
      </trkpt>
      <trkpt lat="43.36886" lon="6.64789">
        <ele>157</ele>
        <time>2012-10-13T12:16:07Z</time>
      </trkpt>
      <trkpt lat="43.36873" lon="6.64824">
        <ele>156</ele>
        <time>2012-10-13T12:16:18Z</time>
      </trkpt>
      <trkpt lat="43.3687" lon="6.64855">
        <ele>157</ele>
        <time>2012-10-13T12:16:31Z</time>
      </trkpt>
      <trkpt lat="43.36839" lon="6.64872">
        <ele>160</ele>
        <time>2012-10-13T12:16:41Z</time>
      </trkpt>
      <trkpt lat="43.3681" lon="6.64882">
        <ele>159</ele>
        <time>2012-10-13T12:16:50Z</time>
      </trkpt>
      <trkpt lat="43.3679" lon="6.64886">
        <ele>161</ele>
        <time>2012-10-13T12:16:57Z</time>
      </trkpt>
      <trkpt lat="43.36763" lon="6.64891">
        <ele>166</ele>
        <time>2012-10-13T12:17:06Z</time>
      </trkpt>
      <trkpt lat="43.36737" lon="6.64884">
        <ele>168</ele>
        <time>2012-10-13T12:17:14Z</time>
      </trkpt>
      <trkpt lat="43.36725" lon="6.64887">
        <ele>172</ele>
        <time>2012-10-13T12:17:19Z</time>
      </trkpt>
      <trkpt lat="43.36711" lon="6.64894">
        <ele>174</ele>
        <time>2012-10-13T12:17:27Z</time>
      </trkpt>
      <trkpt lat="43.36684" lon="6.64906">
        <ele>165</ele>
        <time>2012-10-13T12:17:38Z</time>
      </trkpt>
      <trkpt lat="43.36667" lon="6.64916">
        <ele>165</ele>
        <time>2012-10-13T12:17:47Z</time>
      </trkpt>
      <trkpt lat="43.36626" lon="6.64943">
        <ele>168</ele>
        <time>2012-10-13T12:18:00Z</time>
      </trkpt>
      <trkpt lat="43.36603" lon="6.64958">
        <ele>166</ele>
        <time>2012-10-13T12:18:05Z</time>
      </trkpt>
      <trkpt lat="43.36591" lon="6.64967">
        <ele>167</ele>
        <time>2012-10-13T12:18:08Z</time>
      </trkpt>
      <trkpt lat="43.36574" lon="6.64983">
        <ele>166</ele>
        <time>2012-10-13T12:18:15Z</time>
      </trkpt>
      <trkpt lat="43.36565" lon="6.65017">
        <ele>168</ele>
        <time>2012-10-13T12:18:26Z</time>
      </trkpt>
      <trkpt lat="43.36566" lon="6.65061">
        <ele>169</ele>
        <time>2012-10-13T12:18:33Z</time>
      </trkpt>
      <trkpt lat="43.36571" lon="6.65099">
        <ele>178</ele>
        <time>2012-10-13T12:18:39Z</time>
      </trkpt>
      <trkpt lat="43.36581" lon="6.65123">
        <ele>177</ele>
        <time>2012-10-13T12:18:45Z</time>
      </trkpt>
      <trkpt lat="43.36587" lon="6.6517">
        <ele>181</ele>
        <time>2012-10-13T12:18:54Z</time>
      </trkpt>
      <trkpt lat="43.36591" lon="6.65202">
        <ele>180</ele>
        <time>2012-10-13T12:18:59Z</time>
      </trkpt>
      <trkpt lat="43.3659" lon="6.65221">
        <ele>180</ele>
        <time>2012-10-13T12:19:02Z</time>
      </trkpt>
      <trkpt lat="43.36588" lon="6.65258">
        <ele>179</ele>
        <time>2012-10-13T12:19:08Z</time>
      </trkpt>
      <trkpt lat="43.36591" lon="6.65315">
        <ele>178</ele>
        <time>2012-10-13T12:19:16Z</time>
      </trkpt>
      <trkpt lat="43.36598" lon="6.65349">
        <ele>185</ele>
        <time>2012-10-13T12:19:22Z</time>
      </trkpt>
      <trkpt lat="43.366" lon="6.65383">
        <ele>182</ele>
        <time>2012-10-13T12:19:27Z</time>
      </trkpt>
      <trkpt lat="43.366" lon="6.6541">
        <ele>180</ele>
        <time>2012-10-13T12:19:33Z</time>
      </trkpt>
      <trkpt lat="43.366" lon="6.65436">
        <ele>187</ele>
        <time>2012-10-13T12:19:39Z</time>
      </trkpt>
      <trkpt lat="43.366" lon="6.65455">
        <ele>184</ele>
        <time>2012-10-13T12:19:42Z</time>
      </trkpt>
      <trkpt lat="43.36607" lon="6.6548">
        <ele>182</ele>
        <time>2012-10-13T12:19:48Z</time>
      </trkpt>
      <trkpt lat="43.36613" lon="6.65506">
        <ele>187</ele>
        <time>2012-10-13T12:19:55Z</time>
      </trkpt>
      <trkpt lat="43.36619" lon="6.65535">
        <ele>188</ele>
        <time>2012-10-13T12:20:02Z</time>
      </trkpt>
      <trkpt lat="43.36614" lon="6.65576">
        <ele>187</ele>
        <time>2012-10-13T12:20:10Z</time>
      </trkpt>
      <trkpt lat="43.36616" lon="6.65596">
        <ele>184</ele>
        <time>2012-10-13T12:20:15Z</time>
      </trkpt>
      <trkpt lat="43.36629" lon="6.65622">
        <ele>187</ele>
        <time>2012-10-13T12:20:25Z</time>
      </trkpt>
      <trkpt lat="43.36636" lon="6.65643">
        <ele>196</ele>
        <time>2012-10-13T12:20:37Z</time>
      </trkpt>
      <trkpt lat="43.36648" lon="6.65677">
        <ele>197</ele>
        <time>2012-10-13T12:20:50Z</time>
      </trkpt>
      <trkpt lat="43.36659" lon="6.65701">
        <ele>194</ele>
        <time>2012-10-13T12:20:59Z</time>
      </trkpt>
      <trkpt lat="43.36672" lon="6.6573">
        <ele>197</ele>
        <time>2012-10-13T12:21:11Z</time>
      </trkpt>
      <trkpt lat="43.36684" lon="6.6576">
        <ele>202</ele>
        <time>2012-10-13T12:21:26Z</time>
      </trkpt>
      <trkpt lat="43.3667" lon="6.65804">
        <ele>201</ele>
        <time>2012-10-13T12:21:38Z</time>
      </trkpt>
      <trkpt lat="43.3666" lon="6.65825">
        <ele>202</ele>
        <time>2012-10-13T12:21:47Z</time>
      </trkpt>
      <trkpt lat="43.36652" lon="6.65848">
        <ele>204</ele>
        <time>2012-10-13T12:21:54Z</time>
      </trkpt>
      <trkpt lat="43.36662" lon="6.65873">
        <ele>207</ele>
        <time>2012-10-13T12:22:04Z</time>
      </trkpt>
      <trkpt lat="43.36688" lon="6.65859">
        <ele>212</ele>
        <time>2012-10-13T12:22:14Z</time>
      </trkpt>
      <trkpt lat="43.36705" lon="6.65852">
        <ele>213</ele>
        <time>2012-10-13T12:22:25Z</time>
      </trkpt>
      <trkpt lat="43.36724" lon="6.65885">
        <ele>218</ele>
        <time>2012-10-13T12:22:42Z</time>
      </trkpt>
      <trkpt lat="43.36731" lon="6.65916">
        <ele>217</ele>
        <time>2012-10-13T12:22:53Z</time>
      </trkpt>
      <trkpt lat="43.3674" lon="6.65943">
        <ele>218</ele>
        <time>2012-10-13T12:23:09Z</time>
      </trkpt>
      <trkpt lat="43.36748" lon="6.6598">
        <ele>223</ele>
        <time>2012-10-13T12:23:22Z</time>
      </trkpt>
      <trkpt lat="43.36754" lon="6.66006">
        <ele>226</ele>
        <time>2012-10-13T12:23:31Z</time>
      </trkpt>
      <trkpt lat="43.36764" lon="6.66032">
        <ele>227</ele>
        <time>2012-10-13T12:23:41Z</time>
      </trkpt>
      <trkpt lat="43.36762" lon="6.66065">
        <ele>227</ele>
        <time>2012-10-13T12:23:55Z</time>
      </trkpt>
      <trkpt lat="43.36758" lon="6.66088">
        <ele>230</ele>
        <time>2012-10-13T12:24:05Z</time>
      </trkpt>
      <trkpt lat="43.36762" lon="6.6612">
        <ele>230</ele>
        <time>2012-10-13T12:24:15Z</time>
      </trkpt>
      <trkpt lat="43.36763" lon="6.6614">
        <ele>226</ele>
        <time>2012-10-13T12:24:20Z</time>
      </trkpt>
      <trkpt lat="43.36747" lon="6.66168">
        <ele>224</ele>
        <time>2012-10-13T12:24:32Z</time>
      </trkpt>
      <trkpt lat="43.36734" lon="6.66189">
        <ele>227</ele>
        <time>2012-10-13T12:24:45Z</time>
      </trkpt>
      <trkpt lat="43.36721" lon="6.66218">
        <ele>228</ele>
        <time>2012-10-13T12:25:02Z</time>
      </trkpt>
      <trkpt lat="43.36707" lon="6.66239">
        <ele>233</ele>
        <time>2012-10-13T12:25:18Z</time>
      </trkpt>
      <trkpt lat="43.36707" lon="6.66239">
        <ele>186</ele>
        <time>2012-10-13T12:25:23Z</time>
      </trkpt>
      <trkpt lat="43.36707" lon="6.66239">
        <ele>186</ele>
        <time>2012-10-13T12:42:56Z</time>
      </trkpt>
      <trkpt lat="43.36731" lon="6.66236">
        <ele>54</ele>
        <time>2012-10-13T12:42:56Z</time>
      </trkpt>
      <trkpt lat="43.36731" lon="6.66236">
        <ele>184</ele>
        <time>2012-10-13T12:43:03Z</time>
      </trkpt>
      <trkpt lat="43.36731" lon="6.66236">
        <ele>184</ele>
        <time>2012-10-13T12:45:42Z</time>
      </trkpt>
      <trkpt lat="43.36706" lon="6.66217">
        <ele>232</ele>
        <time>2012-10-13T12:45:42Z</time>
      </trkpt>
      <trkpt lat="43.36706" lon="6.66217">
        <ele>232</ele>
        <time>2012-10-13T12:47:57Z</time>
      </trkpt>
      <trkpt lat="43.36709" lon="6.66242">
        <ele>233</ele>
        <time>2012-10-13T13:09:33Z</time>
      </trkpt>
      <trkpt lat="43.36701" lon="6.66248">
        <ele>238</ele>
        <time>2012-10-13T13:09:41Z</time>
      </trkpt>
      <trkpt lat="43.36685" lon="6.66282">
        <ele>230</ele>
        <time>2012-10-13T13:09:57Z</time>
      </trkpt>
      <trkpt lat="43.36671" lon="6.66323">
        <ele>226</ele>
        <time>2012-10-13T13:10:11Z</time>
      </trkpt>
      <trkpt lat="43.36667" lon="6.66354">
        <ele>230</ele>
        <time>2012-10-13T13:10:16Z</time>
      </trkpt>
      <trkpt lat="43.36672" lon="6.66396">
        <ele>228</ele>
        <time>2012-10-13T13:10:23Z</time>
      </trkpt>
      <trkpt lat="43.36678" lon="6.66421">
        <ele>225</ele>
        <time>2012-10-13T13:10:30Z</time>
      </trkpt>
      <trkpt lat="43.36683" lon="6.66451">
        <ele>217</ele>
        <time>2012-10-13T13:10:40Z</time>
      </trkpt>
      <trkpt lat="43.36685" lon="6.6647">
        <ele>211</ele>
        <time>2012-10-13T13:10:50Z</time>
      </trkpt>
      <trkpt lat="43.36685" lon="6.6647">
        <ele>177</ele>
        <time>2012-10-13T13:11:01Z</time>
      </trkpt>
      <trkpt lat="43.36685" lon="6.6647">
        <ele>177</ele>
        <time>2012-10-13T13:11:22Z</time>
      </trkpt>
      <trkpt lat="43.36688" lon="6.66502">
        <ele>206</ele>
        <time>2012-10-13T13:11:22Z</time>
      </trkpt>
      <trkpt lat="43.36701" lon="6.66556">
        <ele>196</ele>
        <time>2012-10-13T13:11:40Z</time>
      </trkpt>
      <trkpt lat="43.36712" lon="6.66595">
        <ele>192</ele>
        <time>2012-10-13T13:11:51Z</time>
      </trkpt>
      <trkpt lat="43.36724" lon="6.66631">
        <ele>187</ele>
        <time>2012-10-13T13:12:05Z</time>
      </trkpt>
      <trkpt lat="43.36727" lon="6.66652">
        <ele>180</ele>
        <time>2012-10-13T13:12:13Z</time>
      </trkpt>
      <trkpt lat="43.36732" lon="6.6669">
        <ele>181</ele>
        <time>2012-10-13T13:12:26Z</time>
      </trkpt>
      <trkpt lat="43.36732" lon="6.66719">
        <ele>179</ele>
        <time>2012-10-13T13:12:31Z</time>
      </trkpt>
      <trkpt lat="43.3673" lon="6.66739">
        <ele>178</ele>
        <time>2012-10-13T13:12:35Z</time>
      </trkpt>
      <trkpt lat="43.36728" lon="6.66778">
        <ele>174</ele>
        <time>2012-10-13T13:12:42Z</time>
      </trkpt>
      <trkpt lat="43.36733" lon="6.66812">
        <ele>174</ele>
        <time>2012-10-13T13:12:48Z</time>
      </trkpt>
      <trkpt lat="43.36734" lon="6.66834">
        <ele>170</ele>
        <time>2012-10-13T13:12:52Z</time>
      </trkpt>
      <trkpt lat="43.36726" lon="6.66862">
        <ele>165</ele>
        <time>2012-10-13T13:12:58Z</time>
      </trkpt>
      <trkpt lat="43.36711" lon="6.66868">
        <ele>165</ele>
        <time>2012-10-13T13:13:05Z</time>
      </trkpt>
      <trkpt lat="43.36701" lon="6.66872">
        <ele>159</ele>
        <time>2012-10-13T13:13:10Z</time>
      </trkpt>
      <trkpt lat="43.36706" lon="6.66908">
        <ele>167</ele>
        <time>2012-10-13T13:13:22Z</time>
      </trkpt>
      <trkpt lat="43.36709" lon="6.66934">
        <ele>167</ele>
        <time>2012-10-13T13:13:32Z</time>
      </trkpt>
      <trkpt lat="43.36711" lon="6.66979">
        <ele>171</ele>
        <time>2012-10-13T13:13:48Z</time>
      </trkpt>
      <trkpt lat="43.36704" lon="6.67011">
        <ele>168</ele>
        <time>2012-10-13T13:13:58Z</time>
      </trkpt>
      <trkpt lat="43.3669" lon="6.67059">
        <ele>164</ele>
        <time>2012-10-13T13:14:09Z</time>
      </trkpt>
      <trkpt lat="43.36684" lon="6.67091">
        <ele>168</ele>
        <time>2012-10-13T13:14:16Z</time>
      </trkpt>
      <trkpt lat="43.36691" lon="6.67115">
        <ele>167</ele>
        <time>2012-10-13T13:14:22Z</time>
      </trkpt>
      <trkpt lat="43.36695" lon="6.67151">
        <ele>163</ele>
        <time>2012-10-13T13:14:28Z</time>
      </trkpt>
      <trkpt lat="43.36693" lon="6.67206">
        <ele>160</ele>
        <time>2012-10-13T13:14:35Z</time>
      </trkpt>
      <trkpt lat="43.36677" lon="6.67219">
        <ele>155</ele>
        <time>2012-10-13T13:14:42Z</time>
      </trkpt>
      <trkpt lat="43.36661" lon="6.67254">
        <ele>157</ele>
        <time>2012-10-13T13:14:49Z</time>
      </trkpt>
      <trkpt lat="43.36659" lon="6.67281">
        <ele>154</ele>
        <time>2012-10-13T13:14:56Z</time>
      </trkpt>
      <trkpt lat="43.36654" lon="6.67302">
        <ele>155</ele>
        <time>2012-10-13T13:15:02Z</time>
      </trkpt>
      <trkpt lat="43.36668" lon="6.67318">
        <ele>158</ele>
        <time>2012-10-13T13:15:09Z</time>
      </trkpt>
      <trkpt lat="43.36674" lon="6.67324">
        <ele>159</ele>
        <time>2012-10-13T13:15:12Z</time>
      </trkpt>
      <trkpt lat="43.36682" lon="6.67331">
        <ele>159</ele>
        <time>2012-10-13T13:15:16Z</time>
      </trkpt>
      <trkpt lat="43.3669" lon="6.6734">
        <ele>157</ele>
        <time>2012-10-13T13:15:28Z</time>
      </trkpt>
      <trkpt lat="43.36702" lon="6.67352">
        <ele>158</ele>
        <time>2012-10-13T13:15:38Z</time>
      </trkpt>
      <trkpt lat="43.36709" lon="6.67379">
        <ele>157</ele>
        <time>2012-10-13T13:15:48Z</time>
      </trkpt>
      <trkpt lat="43.36713" lon="6.67431">
        <ele>157</ele>
        <time>2012-10-13T13:16:01Z</time>
      </trkpt>
      <trkpt lat="43.36728" lon="6.67474">
        <ele>160</ele>
        <time>2012-10-13T13:16:12Z</time>
      </trkpt>
      <trkpt lat="43.36733" lon="6.67493">
        <ele>162</ele>
        <time>2012-10-13T13:16:17Z</time>
      </trkpt>
      <trkpt lat="43.36747" lon="6.67526">
        <ele>166</ele>
        <time>2012-10-13T13:16:27Z</time>
      </trkpt>
      <trkpt lat="43.36757" lon="6.67555">
        <ele>164</ele>
        <time>2012-10-13T13:16:35Z</time>
      </trkpt>
      <trkpt lat="43.36767" lon="6.67584">
        <ele>166</ele>
        <time>2012-10-13T13:16:45Z</time>
      </trkpt>
      <trkpt lat="43.36766" lon="6.67602">
        <ele>159</ele>
        <time>2012-10-13T13:16:52Z</time>
      </trkpt>
      <trkpt lat="43.36762" lon="6.67629">
        <ele>162</ele>
        <time>2012-10-13T13:17:03Z</time>
      </trkpt>
      <trkpt lat="43.36755" lon="6.67652">
        <ele>168</ele>
        <time>2012-10-13T13:17:17Z</time>
      </trkpt>
      <trkpt lat="43.36752" lon="6.67679">
        <ele>171</ele>
        <time>2012-10-13T13:17:29Z</time>
      </trkpt>
      <trkpt lat="43.36748" lon="6.67697">
        <ele>169</ele>
        <time>2012-10-13T13:17:38Z</time>
      </trkpt>
      <trkpt lat="43.36755" lon="6.67731">
        <ele>172</ele>
        <time>2012-10-13T13:17:53Z</time>
      </trkpt>
      <trkpt lat="43.36759" lon="6.67757">
        <ele>176</ele>
        <time>2012-10-13T13:18:07Z</time>
      </trkpt>
      <trkpt lat="43.36763" lon="6.67789">
        <ele>179</ele>
        <time>2012-10-13T13:18:22Z</time>
      </trkpt>
      <trkpt lat="43.3677" lon="6.67823">
        <ele>182</ele>
        <time>2012-10-13T13:18:35Z</time>
      </trkpt>
      <trkpt lat="43.36769" lon="6.67835">
        <ele>187</ele>
        <time>2012-10-13T13:18:41Z</time>
      </trkpt>
      <trkpt lat="43.36768" lon="6.67871">
        <ele>193</ele>
        <time>2012-10-13T13:18:56Z</time>
      </trkpt>
      <trkpt lat="43.36769" lon="6.67901">
        <ele>200</ele>
        <time>2012-10-13T13:19:08Z</time>
      </trkpt>
      <trkpt lat="43.36775" lon="6.67938">
        <ele>200</ele>
        <time>2012-10-13T13:19:22Z</time>
      </trkpt>
      <trkpt lat="43.36769" lon="6.67957">
        <ele>199</ele>
        <time>2012-10-13T13:19:31Z</time>
      </trkpt>
      <trkpt lat="43.36761" lon="6.67973">
        <ele>201</ele>
        <time>2012-10-13T13:19:40Z</time>
      </trkpt>
      <trkpt lat="43.36737" lon="6.68001">
        <ele>200</ele>
        <time>2012-10-13T13:19:54Z</time>
      </trkpt>
      <trkpt lat="43.36718" lon="6.68004">
        <ele>198</ele>
        <time>2012-10-13T13:20:00Z</time>
      </trkpt>
      <trkpt lat="43.36706" lon="6.68013">
        <ele>196</ele>
        <time>2012-10-13T13:20:05Z</time>
      </trkpt>
      <trkpt lat="43.36699" lon="6.68034">
        <ele>196</ele>
        <time>2012-10-13T13:20:11Z</time>
      </trkpt>
      <trkpt lat="43.367" lon="6.68055">
        <ele>198</ele>
        <time>2012-10-13T13:20:16Z</time>
      </trkpt>
      <trkpt lat="43.36712" lon="6.68083">
        <ele>203</ele>
        <time>2012-10-13T13:20:24Z</time>
      </trkpt>
      <trkpt lat="43.36723" lon="6.68114">
        <ele>208</ele>
        <time>2012-10-13T13:20:31Z</time>
      </trkpt>
      <trkpt lat="43.36723" lon="6.68143">
        <ele>206</ele>
        <time>2012-10-13T13:20:37Z</time>
      </trkpt>
      <trkpt lat="43.36711" lon="6.68174">
        <ele>206</ele>
        <time>2012-10-13T13:20:45Z</time>
      </trkpt>
      <trkpt lat="43.36691" lon="6.68202">
        <ele>203</ele>
        <time>2012-10-13T13:20:52Z</time>
      </trkpt>
      <trkpt lat="43.3667" lon="6.68226">
        <ele>202</ele>
        <time>2012-10-13T13:20:59Z</time>
      </trkpt>
      <trkpt lat="43.36655" lon="6.68245">
        <ele>198</ele>
        <time>2012-10-13T13:21:07Z</time>
      </trkpt>
      <trkpt lat="43.36655" lon="6.68245">
        <ele>151</ele>
        <time>2012-10-13T13:21:13Z</time>
      </trkpt>
      <trkpt lat="43.36655" lon="6.68245">
        <ele>151</ele>
        <time>2012-10-13T13:22:51Z</time>
      </trkpt>
      <trkpt lat="43.36634" lon="6.68241">
        <ele>202</ele>
        <time>2012-10-13T13:22:51Z</time>
      </trkpt>
      <trkpt lat="43.36613" lon="6.68226">
        <ele>203</ele>
        <time>2012-10-13T13:22:57Z</time>
      </trkpt>
      <trkpt lat="43.36582" lon="6.6821">
        <ele>200</ele>
        <time>2012-10-13T13:23:05Z</time>
      </trkpt>
      <trkpt lat="43.36563" lon="6.68195">
        <ele>201</ele>
        <time>2012-10-13T13:23:10Z</time>
      </trkpt>
      <trkpt lat="43.3654" lon="6.68158">
        <ele>202</ele>
        <time>2012-10-13T13:23:17Z</time>
      </trkpt>
      <trkpt lat="43.36521" lon="6.68134">
        <ele>199</ele>
        <time>2012-10-13T13:23:24Z</time>
      </trkpt>
      <trkpt lat="43.36497" lon="6.68129">
        <ele>201</ele>
        <time>2012-10-13T13:23:31Z</time>
      </trkpt>
      <trkpt lat="43.36473" lon="6.6812">
        <ele>194</ele>
        <time>2012-10-13T13:23:38Z</time>
      </trkpt>
      <trkpt lat="43.3646" lon="6.68117">
        <ele>197</ele>
        <time>2012-10-13T13:23:41Z</time>
      </trkpt>
      <trkpt lat="43.3644" lon="6.6814">
        <ele>198</ele>
        <time>2012-10-13T13:23:48Z</time>
      </trkpt>
      <trkpt lat="43.36439" lon="6.68165">
        <ele>206</ele>
        <time>2012-10-13T13:23:53Z</time>
      </trkpt>
      <trkpt lat="43.3644" lon="6.68208">
        <ele>201</ele>
        <time>2012-10-13T13:24:00Z</time>
      </trkpt>
      <trkpt lat="43.36447" lon="6.68243">
        <ele>199</ele>
        <time>2012-10-13T13:24:06Z</time>
      </trkpt>
      <trkpt lat="43.36449" lon="6.68281">
        <ele>198</ele>
        <time>2012-10-13T13:24:12Z</time>
      </trkpt>
      <trkpt lat="43.36437" lon="6.68316">
        <ele>199</ele>
        <time>2012-10-13T13:24:18Z</time>
      </trkpt>
      <trkpt lat="43.36428" lon="6.6833">
        <ele>201</ele>
        <time>2012-10-13T13:24:21Z</time>
      </trkpt>
      <trkpt lat="43.36404" lon="6.68349">
        <ele>199</ele>
        <time>2012-10-13T13:24:28Z</time>
      </trkpt>
      <trkpt lat="43.36388" lon="6.68354">
        <ele>203</ele>
        <time>2012-10-13T13:24:32Z</time>
      </trkpt>
      <trkpt lat="43.36361" lon="6.68373">
        <ele>202</ele>
        <time>2012-10-13T13:24:39Z</time>
      </trkpt>
      <trkpt lat="43.36346" lon="6.68397">
        <ele>198</ele>
        <time>2012-10-13T13:24:44Z</time>
      </trkpt>
      <trkpt lat="43.36346" lon="6.68397">
        <ele>152</ele>
        <time>2012-10-13T13:24:52Z</time>
      </trkpt>
      <trkpt lat="43.36346" lon="6.68397">
        <ele>152</ele>
        <time>2012-10-13T13:25:19Z</time>
      </trkpt>
      <trkpt lat="43.36339" lon="6.6844">
        <ele>199</ele>
        <time>2012-10-13T13:25:19Z</time>
      </trkpt>
      <trkpt lat="43.3635" lon="6.68461">
        <ele>207</ele>
        <time>2012-10-13T13:25:36Z</time>
      </trkpt>
      <trkpt lat="43.36357" lon="6.68468">
        <ele>208</ele>
        <time>2012-10-13T13:25:41Z</time>
      </trkpt>
      <trkpt lat="43.36375" lon="6.68485">
        <ele>212</ele>
        <time>2012-10-13T13:25:52Z</time>
      </trkpt>
      <trkpt lat="43.36387" lon="6.68507">
        <ele>209</ele>
        <time>2012-10-13T13:26:02Z</time>
      </trkpt>
      <trkpt lat="43.36402" lon="6.68528">
        <ele>209</ele>
        <time>2012-10-13T13:26:15Z</time>
      </trkpt>
      <trkpt lat="43.36423" lon="6.68541">
        <ele>213</ele>
        <time>2012-10-13T13:26:27Z</time>
      </trkpt>
      <trkpt lat="43.36448" lon="6.68561">
        <ele>214</ele>
        <time>2012-10-13T13:26:43Z</time>
      </trkpt>
      <trkpt lat="43.36466" lon="6.68591">
        <ele>212</ele>
        <time>2012-10-13T13:26:55Z</time>
      </trkpt>
      <trkpt lat="43.3647" lon="6.68603">
        <ele>211</ele>
        <time>2012-10-13T13:26:59Z</time>
      </trkpt>
      <trkpt lat="43.36483" lon="6.68627">
        <ele>210</ele>
        <time>2012-10-13T13:27:05Z</time>
      </trkpt>
      <trkpt lat="43.36496" lon="6.68654">
        <ele>209</ele>
        <time>2012-10-13T13:27:10Z</time>
      </trkpt>
      <trkpt lat="43.36502" lon="6.68666">
        <ele>209</ele>
        <time>2012-10-13T13:27:13Z</time>
      </trkpt>
      <trkpt lat="43.36518" lon="6.687">
        <ele>207</ele>
        <time>2012-10-13T13:27:20Z</time>
      </trkpt>
      <trkpt lat="43.36523" lon="6.68718">
        <ele>206</ele>
        <time>2012-10-13T13:27:23Z</time>
      </trkpt>
      <trkpt lat="43.36522" lon="6.68758">
        <ele>205</ele>
        <time>2012-10-13T13:27:29Z</time>
      </trkpt>
      <trkpt lat="43.36512" lon="6.68793">
        <ele>201</ele>
        <time>2012-10-13T13:27:35Z</time>
      </trkpt>
      <trkpt lat="43.3649" lon="6.68809">
        <ele>200</ele>
        <time>2012-10-13T13:27:40Z</time>
      </trkpt>
      <trkpt lat="43.36473" lon="6.68813">
        <ele>204</ele>
        <time>2012-10-13T13:27:45Z</time>
      </trkpt>
      <trkpt lat="43.36434" lon="6.68838">
        <ele>196</ele>
        <time>2012-10-13T13:27:55Z</time>
      </trkpt>
      <trkpt lat="43.36413" lon="6.68836">
        <ele>191</ele>
        <time>2012-10-13T13:28:02Z</time>
      </trkpt>
      <trkpt lat="43.36399" lon="6.68838">
        <ele>190</ele>
        <time>2012-10-13T13:28:09Z</time>
      </trkpt>
      <trkpt lat="43.36381" lon="6.68846">
        <ele>190</ele>
        <time>2012-10-13T13:28:27Z</time>
      </trkpt>
      <trkpt lat="43.36371" lon="6.68857">
        <ele>193</ele>
        <time>2012-10-13T13:28:36Z</time>
      </trkpt>
      <trkpt lat="43.36365" lon="6.68874">
        <ele>198</ele>
        <time>2012-10-13T13:28:43Z</time>
      </trkpt>
      <trkpt lat="43.3636" lon="6.6889">
        <ele>199</ele>
        <time>2012-10-13T13:28:49Z</time>
      </trkpt>
      <trkpt lat="43.36347" lon="6.68915">
        <ele>197</ele>
        <time>2012-10-13T13:28:59Z</time>
      </trkpt>
      <trkpt lat="43.36337" lon="6.6893">
        <ele>200</ele>
        <time>2012-10-13T13:29:06Z</time>
      </trkpt>
      <trkpt lat="43.36328" lon="6.68942">
        <ele>202</ele>
        <time>2012-10-13T13:29:13Z</time>
      </trkpt>
      <trkpt lat="43.36298" lon="6.68975">
        <ele>194</ele>
        <time>2012-10-13T13:29:24Z</time>
      </trkpt>
      <trkpt lat="43.36294" lon="6.68989">
        <ele>198</ele>
        <time>2012-10-13T13:29:33Z</time>
      </trkpt>
      <trkpt lat="43.36285" lon="6.6902">
        <ele>206</ele>
        <time>2012-10-13T13:29:53Z</time>
      </trkpt>
      <trkpt lat="43.36274" lon="6.69043">
        <ele>211</ele>
        <time>2012-10-13T13:30:08Z</time>
      </trkpt>
      <trkpt lat="43.36274" lon="6.69043">
        <ele>158</ele>
        <time>2012-10-13T13:30:21Z</time>
      </trkpt>
      <trkpt lat="43.36274" lon="6.69043">
        <ele>158</ele>
        <time>2012-10-13T13:31:09Z</time>
      </trkpt>
      <trkpt lat="43.36256" lon="6.69073">
        <ele>224</ele>
        <time>2012-10-13T13:31:09Z</time>
      </trkpt>
      <trkpt lat="43.36242" lon="6.69105">
        <ele>227</ele>
        <time>2012-10-13T13:31:38Z</time>
      </trkpt>
      <trkpt lat="43.36236" lon="6.69133">
        <ele>226</ele>
        <time>2012-10-13T13:31:50Z</time>
      </trkpt>
      <trkpt lat="43.36238" lon="6.6915">
        <ele>229</ele>
        <time>2012-10-13T13:31:59Z</time>
      </trkpt>
      <trkpt lat="43.36245" lon="6.69178">
        <ele>230</ele>
        <time>2012-10-13T13:32:16Z</time>
      </trkpt>
      <trkpt lat="43.3625" lon="6.69208">
        <ele>232</ele>
        <time>2012-10-13T13:32:30Z</time>
      </trkpt>
      <trkpt lat="43.36249" lon="6.69229">
        <ele>233</ele>
        <time>2012-10-13T13:32:39Z</time>
      </trkpt>
      <trkpt lat="43.3625" lon="6.69258">
        <ele>234</ele>
        <time>2012-10-13T13:32:53Z</time>
      </trkpt>
      <trkpt lat="43.36252" lon="6.6927">
        <ele>237</ele>
        <time>2012-10-13T13:33:01Z</time>
      </trkpt>
      <trkpt lat="43.36274" lon="6.69295">
        <ele>239</ele>
        <time>2012-10-13T13:33:19Z</time>
      </trkpt>
      <trkpt lat="43.36286" lon="6.69311">
        <ele>235</ele>
        <time>2012-10-13T13:33:27Z</time>
      </trkpt>
      <trkpt lat="43.36301" lon="6.69336">
        <ele>239</ele>
        <time>2012-10-13T13:33:40Z</time>
      </trkpt>
      <trkpt lat="43.36306" lon="6.69345">
        <ele>241</ele>
        <time>2012-10-13T13:33:44Z</time>
      </trkpt>
      <trkpt lat="43.36317" lon="6.69366">
        <ele>244</ele>
        <time>2012-10-13T13:33:56Z</time>
      </trkpt>
      <trkpt lat="43.36326" lon="6.69391">
        <ele>247</ele>
        <time>2012-10-13T13:34:09Z</time>
      </trkpt>
      <trkpt lat="43.36331" lon="6.69419">
        <ele>249</ele>
        <time>2012-10-13T13:34:23Z</time>
      </trkpt>
      <trkpt lat="43.36327" lon="6.69452">
        <ele>252</ele>
        <time>2012-10-13T13:34:37Z</time>
      </trkpt>
      <trkpt lat="43.36316" lon="6.69473">
        <ele>254</ele>
        <time>2012-10-13T13:34:51Z</time>
      </trkpt>
      <trkpt lat="43.36301" lon="6.69451">
        <ele>254</ele>
        <time>2012-10-13T13:35:03Z</time>
      </trkpt>
      <trkpt lat="43.36295" lon="6.69442">
        <ele>253</ele>
        <time>2012-10-13T13:35:09Z</time>
      </trkpt>
      <trkpt lat="43.36277" lon="6.6942">
        <ele>256</ele>
        <time>2012-10-13T13:35:28Z</time>
      </trkpt>
      <trkpt lat="43.36262" lon="6.69396">
        <ele>260</ele>
        <time>2012-10-13T13:35:46Z</time>
      </trkpt>
      <trkpt lat="43.36244" lon="6.6938">
        <ele>262</ele>
        <time>2012-10-13T13:35:58Z</time>
      </trkpt>
      <trkpt lat="43.36219" lon="6.69367">
        <ele>265</ele>
        <time>2012-10-13T13:36:15Z</time>
      </trkpt>
      <trkpt lat="43.36207" lon="6.69352">
        <ele>267</ele>
        <time>2012-10-13T13:36:26Z</time>
      </trkpt>
      <trkpt lat="43.36191" lon="6.69331">
        <ele>271</ele>
        <time>2012-10-13T13:36:40Z</time>
      </trkpt>
      <trkpt lat="43.36172" lon="6.6931">
        <ele>270</ele>
        <time>2012-10-13T13:36:58Z</time>
      </trkpt>
      <trkpt lat="43.36143" lon="6.69287">
        <ele>277</ele>
        <time>2012-10-13T13:37:15Z</time>
      </trkpt>
      <trkpt lat="43.36133" lon="6.69273">
        <ele>280</ele>
        <time>2012-10-13T13:37:23Z</time>
      </trkpt>
      <trkpt lat="43.36127" lon="6.69266">
        <ele>290</ele>
        <time>2012-10-13T13:37:29Z</time>
      </trkpt>
      <trkpt lat="43.36104" lon="6.69254">
        <ele>288</ele>
        <time>2012-10-13T13:37:48Z</time>
      </trkpt>
      <trkpt lat="43.36092" lon="6.69249">
        <ele>289</ele>
        <time>2012-10-13T13:38:00Z</time>
      </trkpt>
      <trkpt lat="43.36064" lon="6.69266">
        <ele>288</ele>
        <time>2012-10-13T13:38:10Z</time>
      </trkpt>
      <trkpt lat="43.36039" lon="6.69284">
        <ele>285</ele>
        <time>2012-10-13T13:38:15Z</time>
      </trkpt>
      <trkpt lat="43.36001" lon="6.69293">
        <ele>283</ele>
        <time>2012-10-13T13:38:21Z</time>
      </trkpt>
      <trkpt lat="43.35968" lon="6.69296">
        <ele>277</ele>
        <time>2012-10-13T13:38:27Z</time>
      </trkpt>
      <trkpt lat="43.35929" lon="6.6931">
        <ele>273</ele>
        <time>2012-10-13T13:38:33Z</time>
      </trkpt>
      <trkpt lat="43.35898" lon="6.69321">
        <ele>271</ele>
        <time>2012-10-13T13:38:38Z</time>
      </trkpt>
      <trkpt lat="43.35868" lon="6.69343">
        <ele>264</ele>
        <time>2012-10-13T13:38:43Z</time>
      </trkpt>
      <trkpt lat="43.35846" lon="6.69367">
        <ele>263</ele>
        <time>2012-10-13T13:38:48Z</time>
      </trkpt>
      <trkpt lat="43.35834" lon="6.69385">
        <ele>266</ele>
        <time>2012-10-13T13:38:51Z</time>
      </trkpt>
      <trkpt lat="43.35828" lon="6.69403">
        <ele>266</ele>
        <time>2012-10-13T13:38:54Z</time>
      </trkpt>
      <trkpt lat="43.35822" lon="6.69422">
        <ele>264</ele>
        <time>2012-10-13T13:38:57Z</time>
      </trkpt>
      <trkpt lat="43.3581" lon="6.69449">
        <ele>258</ele>
        <time>2012-10-13T13:39:02Z</time>
      </trkpt>
      <trkpt lat="43.35803" lon="6.69466">
        <ele>257</ele>
        <time>2012-10-13T13:39:05Z</time>
      </trkpt>
      <trkpt lat="43.35799" lon="6.69492">
        <ele>253</ele>
        <time>2012-10-13T13:39:11Z</time>
      </trkpt>
      <trkpt lat="43.35796" lon="6.69522">
        <ele>251</ele>
        <time>2012-10-13T13:39:21Z</time>
      </trkpt>
      <trkpt lat="43.35798" lon="6.69552">
        <ele>243</ele>
        <time>2012-10-13T13:39:27Z</time>
      </trkpt>
      <trkpt lat="43.35789" lon="6.69586">
        <ele>242</ele>
        <time>2012-10-13T13:39:33Z</time>
      </trkpt>
      <trkpt lat="43.35776" lon="6.69617">
        <ele>240</ele>
        <time>2012-10-13T13:39:38Z</time>
      </trkpt>
      <trkpt lat="43.35768" lon="6.69639">
        <ele>241</ele>
        <time>2012-10-13T13:39:41Z</time>
      </trkpt>
      <trkpt lat="43.35761" lon="6.69668">
        <ele>240</ele>
        <time>2012-10-13T13:39:46Z</time>
      </trkpt>
      <trkpt lat="43.35759" lon="6.69702">
        <ele>237</ele>
        <time>2012-10-13T13:39:52Z</time>
      </trkpt>
      <trkpt lat="43.35736" lon="6.69723">
        <ele>239</ele>
        <time>2012-10-13T13:39:59Z</time>
      </trkpt>
      <trkpt lat="43.35706" lon="6.69726">
        <ele>230</ele>
        <time>2012-10-13T13:40:40Z</time>
      </trkpt>
      <trkpt lat="43.35684" lon="6.69746">
        <ele>238</ele>
        <time>2012-10-13T13:40:47Z</time>
      </trkpt>
      <trkpt lat="43.35673" lon="6.69764">
        <ele>238</ele>
        <time>2012-10-13T13:40:52Z</time>
      </trkpt>
      <trkpt lat="43.35655" lon="6.698">
        <ele>238</ele>
        <time>2012-10-13T13:40:59Z</time>
      </trkpt>
      <trkpt lat="43.35643" lon="6.6983">
        <ele>236</ele>
        <time>2012-10-13T13:41:05Z</time>
      </trkpt>
      <trkpt lat="43.35632" lon="6.69861">
        <ele>235</ele>
        <time>2012-10-13T13:41:11Z</time>
      </trkpt>
      <trkpt lat="43.3561" lon="6.69906">
        <ele>233</ele>
        <time>2012-10-13T13:41:18Z</time>
      </trkpt>
      <trkpt lat="43.35602" lon="6.69923">
        <ele>234</ele>
        <time>2012-10-13T13:41:21Z</time>
      </trkpt>
      <trkpt lat="43.35589" lon="6.69968">
        <ele>232</ele>
        <time>2012-10-13T13:41:27Z</time>
      </trkpt>
      <trkpt lat="43.35579" lon="6.70021">
        <ele>229</ele>
        <time>2012-10-13T13:41:33Z</time>
      </trkpt>
      <trkpt lat="43.3557" lon="6.70063">
        <ele>231</ele>
        <time>2012-10-13T13:41:39Z</time>
      </trkpt>
      <trkpt lat="43.35575" lon="6.70082">
        <ele>230</ele>
        <time>2012-10-13T13:41:42Z</time>
      </trkpt>
      <trkpt lat="43.35588" lon="6.70112">
        <ele>233</ele>
        <time>2012-10-13T13:41:47Z</time>
      </trkpt>
      <trkpt lat="43.35596" lon="6.70128">
        <ele>235</ele>
        <time>2012-10-13T13:41:50Z</time>
      </trkpt>
      <trkpt lat="43.35604" lon="6.70145">
        <ele>234</ele>
        <time>2012-10-13T13:41:53Z</time>
      </trkpt>
      <trkpt lat="43.35612" lon="6.70164">
        <ele>233</ele>
        <time>2012-10-13T13:41:56Z</time>
      </trkpt>
      <trkpt lat="43.35619" lon="6.70182">
        <ele>234</ele>
        <time>2012-10-13T13:41:59Z</time>
      </trkpt>
      <trkpt lat="43.3563" lon="6.70215">
        <ele>224</ele>
        <time>2012-10-13T13:42:05Z</time>
      </trkpt>
      <trkpt lat="43.35647" lon="6.70259">
        <ele>223</ele>
        <time>2012-10-13T13:42:11Z</time>
      </trkpt>
      <trkpt lat="43.35665" lon="6.70306">
        <ele>220</ele>
        <time>2012-10-13T13:42:17Z</time>
      </trkpt>
      <trkpt lat="43.35687" lon="6.70343">
        <ele>214</ele>
        <time>2012-10-13T13:42:22Z</time>
      </trkpt>
      <trkpt lat="43.35698" lon="6.704">
        <ele>211</ele>
        <time>2012-10-13T13:42:28Z</time>
      </trkpt>
      <trkpt lat="43.3571" lon="6.70446">
        <ele>210</ele>
        <time>2012-10-13T13:42:34Z</time>
      </trkpt>
      <trkpt lat="43.35732" lon="6.70479">
        <ele>202</ele>
        <time>2012-10-13T13:42:40Z</time>
      </trkpt>
      <trkpt lat="43.35753" lon="6.70487">
        <ele>201</ele>
        <time>2012-10-13T13:42:45Z</time>
      </trkpt>
      <trkpt lat="43.35789" lon="6.70495">
        <ele>199</ele>
        <time>2012-10-13T13:42:52Z</time>
      </trkpt>
      <trkpt lat="43.35813" lon="6.70515">
        <ele>197</ele>
        <time>2012-10-13T13:42:58Z</time>
      </trkpt>
      <trkpt lat="43.35834" lon="6.70538">
        <ele>190</ele>
        <time>2012-10-13T13:43:04Z</time>
      </trkpt>
      <trkpt lat="43.35849" lon="6.70554">
        <ele>186</ele>
        <time>2012-10-13T13:43:09Z</time>
      </trkpt>
      <trkpt lat="43.35875" lon="6.7057">
        <ele>179</ele>
        <time>2012-10-13T13:43:16Z</time>
      </trkpt>
      <trkpt lat="43.35901" lon="6.70578">
        <ele>184</ele>
        <time>2012-10-13T13:43:23Z</time>
      </trkpt>
      <trkpt lat="43.35917" lon="6.70595">
        <ele>180</ele>
        <time>2012-10-13T13:43:28Z</time>
      </trkpt>
      <trkpt lat="43.35935" lon="6.70588">
        <ele>175</ele>
        <time>2012-10-13T13:43:33Z</time>
      </trkpt>
      <trkpt lat="43.35965" lon="6.70593">
        <ele>171</ele>
        <time>2012-10-13T13:43:41Z</time>
      </trkpt>
      <trkpt lat="43.35993" lon="6.70626">
        <ele>166</ele>
        <time>2012-10-13T13:43:49Z</time>
      </trkpt>
      <trkpt lat="43.36033" lon="6.70631">
        <ele>165</ele>
        <time>2012-10-13T13:43:55Z</time>
      </trkpt>
      <trkpt lat="43.36054" lon="6.70633">
        <ele>165</ele>
        <time>2012-10-13T13:43:58Z</time>
      </trkpt>
      <trkpt lat="43.36074" lon="6.70644">
        <ele>160</ele>
        <time>2012-10-13T13:44:01Z</time>
      </trkpt>
      <trkpt lat="43.36101" lon="6.70658">
        <ele>154</ele>
        <time>2012-10-13T13:44:06Z</time>
      </trkpt>
      <trkpt lat="43.36119" lon="6.70668">
        <ele>151</ele>
        <time>2012-10-13T13:44:09Z</time>
      </trkpt>
      <trkpt lat="43.3615" lon="6.70688">
        <ele>145</ele>
        <time>2012-10-13T13:44:15Z</time>
      </trkpt>
      <trkpt lat="43.36173" lon="6.70716">
        <ele>136</ele>
        <time>2012-10-13T13:44:21Z</time>
      </trkpt>
      <trkpt lat="43.36182" lon="6.70735">
        <ele>134</ele>
        <time>2012-10-13T13:44:24Z</time>
      </trkpt>
      <trkpt lat="43.36191" lon="6.70757">
        <ele>130</ele>
        <time>2012-10-13T13:44:27Z</time>
      </trkpt>
      <trkpt lat="43.362" lon="6.70774">
        <ele>128</ele>
        <time>2012-10-13T13:44:30Z</time>
      </trkpt>
      <trkpt lat="43.36209" lon="6.70791">
        <ele>126</ele>
        <time>2012-10-13T13:44:33Z</time>
      </trkpt>
      <trkpt lat="43.36231" lon="6.70824">
        <ele>126</ele>
        <time>2012-10-13T13:44:39Z</time>
      </trkpt>
      <trkpt lat="43.36254" lon="6.70846">
        <ele>123</ele>
        <time>2012-10-13T13:44:44Z</time>
      </trkpt>
      <trkpt lat="43.36266" lon="6.70863">
        <ele>123</ele>
        <time>2012-10-13T13:44:47Z</time>
      </trkpt>
      <trkpt lat="43.36285" lon="6.70893">
        <ele>124</ele>
        <time>2012-10-13T13:44:53Z</time>
      </trkpt>
      <trkpt lat="43.36294" lon="6.70909">
        <ele>117</ele>
        <time>2012-10-13T13:44:57Z</time>
      </trkpt>
      <trkpt lat="43.36303" lon="6.70919">
        <ele>114</ele>
        <time>2012-10-13T13:45:00Z</time>
      </trkpt>
      <trkpt lat="43.36323" lon="6.70903">
        <ele>110</ele>
        <time>2012-10-13T13:45:09Z</time>
      </trkpt>
      <trkpt lat="43.36338" lon="6.70874">
        <ele>107</ele>
        <time>2012-10-13T13:45:19Z</time>
      </trkpt>
      <trkpt lat="43.36337" lon="6.70846">
        <ele>101</ele>
        <time>2012-10-13T13:45:24Z</time>
      </trkpt>
      <trkpt lat="43.36335" lon="6.70832">
        <ele>104</ele>
        <time>2012-10-13T13:45:27Z</time>
      </trkpt>
      <trkpt lat="43.36358" lon="6.70834">
        <ele>102</ele>
        <time>2012-10-13T13:45:36Z</time>
      </trkpt>
      <trkpt lat="43.3639" lon="6.70863">
        <ele>95</ele>
        <time>2012-10-13T13:45:42Z</time>
      </trkpt>
      <trkpt lat="43.36407" lon="6.70872">
        <ele>94</ele>
        <time>2012-10-13T13:45:45Z</time>
      </trkpt>
      <trkpt lat="43.36428" lon="6.70879">
        <ele>92</ele>
        <time>2012-10-13T13:45:51Z</time>
      </trkpt>
      <trkpt lat="43.36442" lon="6.70842">
        <ele>86</ele>
        <time>2012-10-13T13:45:59Z</time>
      </trkpt>
      <trkpt lat="43.36441" lon="6.70798">
        <ele>82</ele>
        <time>2012-10-13T13:46:05Z</time>
      </trkpt>
      <trkpt lat="43.36456" lon="6.70746">
        <ele>79</ele>
        <time>2012-10-13T13:46:12Z</time>
      </trkpt>
      <trkpt lat="43.36475" lon="6.70735">
        <ele>80</ele>
        <time>2012-10-13T13:46:15Z</time>
      </trkpt>
      <trkpt lat="43.36498" lon="6.7076">
        <ele>75</ele>
        <time>2012-10-13T13:46:21Z</time>
      </trkpt>
      <trkpt lat="43.36507" lon="6.70791">
        <ele>69</ele>
        <time>2012-10-13T13:46:27Z</time>
      </trkpt>
      <trkpt lat="43.36535" lon="6.70783">
        <ele>57</ele>
        <time>2012-10-13T13:46:34Z</time>
      </trkpt>
      <trkpt lat="43.36558" lon="6.70774">
        <ele>53</ele>
        <time>2012-10-13T13:46:40Z</time>
      </trkpt>
      <trkpt lat="43.36563" lon="6.70749">
        <ele>55</ele>
        <time>2012-10-13T13:46:46Z</time>
      </trkpt>
      <trkpt lat="43.36595" lon="6.70739">
        <ele>65</ele>
        <time>2012-10-13T13:46:56Z</time>
      </trkpt>
      <trkpt lat="43.36611" lon="6.70766">
        <ele>65</ele>
        <time>2012-10-13T13:47:04Z</time>
      </trkpt>
      <trkpt lat="43.36632" lon="6.70792">
        <ele>62</ele>
        <time>2012-10-13T13:47:12Z</time>
      </trkpt>
      <trkpt lat="43.36651" lon="6.70798">
        <ele>67</ele>
        <time>2012-10-13T13:47:18Z</time>
      </trkpt>
      <trkpt lat="43.36671" lon="6.70799">
        <ele>69</ele>
        <time>2012-10-13T13:47:25Z</time>
      </trkpt>
      <trkpt lat="43.36696" lon="6.70785">
        <ele>66</ele>
        <time>2012-10-13T13:47:36Z</time>
      </trkpt>
      <trkpt lat="43.36708" lon="6.70771">
        <ele>68</ele>
        <time>2012-10-13T13:47:42Z</time>
      </trkpt>
      <trkpt lat="43.36715" lon="6.70756">
        <ele>70</ele>
        <time>2012-10-13T13:47:47Z</time>
      </trkpt>
      <trkpt lat="43.36719" lon="6.70736">
        <ele>69</ele>
        <time>2012-10-13T13:47:53Z</time>
      </trkpt>
      <trkpt lat="43.36724" lon="6.70689">
        <ele>66</ele>
        <time>2012-10-13T13:48:03Z</time>
      </trkpt>
      <trkpt lat="43.36731" lon="6.70649">
        <ele>63</ele>
        <time>2012-10-13T13:48:10Z</time>
      </trkpt>
      <trkpt lat="43.36744" lon="6.70637">
        <ele>62</ele>
        <time>2012-10-13T13:48:13Z</time>
      </trkpt>
      <trkpt lat="43.36779" lon="6.70649">
        <ele>60</ele>
        <time>2012-10-13T13:48:20Z</time>
      </trkpt>
      <trkpt lat="43.36795" lon="6.70616">
        <ele>59</ele>
        <time>2012-10-13T13:48:27Z</time>
      </trkpt>
      <trkpt lat="43.36789" lon="6.70581">
        <ele>59</ele>
        <time>2012-10-13T13:48:35Z</time>
      </trkpt>
      <trkpt lat="43.36791" lon="6.70541">
        <ele>58</ele>
        <time>2012-10-13T13:48:42Z</time>
      </trkpt>
      <trkpt lat="43.36789" lon="6.70508">
        <ele>60</ele>
        <time>2012-10-13T13:48:47Z</time>
      </trkpt>
      <trkpt lat="43.36793" lon="6.70473">
        <ele>57</ele>
        <time>2012-10-13T13:48:53Z</time>
      </trkpt>
      <trkpt lat="43.36795" lon="6.70456">
        <ele>56</ele>
        <time>2012-10-13T13:48:56Z</time>
      </trkpt>
      <trkpt lat="43.36817" lon="6.70434">
        <ele>59</ele>
        <time>2012-10-13T13:49:05Z</time>
      </trkpt>
      <trkpt lat="43.36839" lon="6.70443">
        <ele>66</ele>
        <time>2012-10-13T13:49:13Z</time>
      </trkpt>
      <trkpt lat="43.36858" lon="6.70465">
        <ele>68</ele>
        <time>2012-10-13T13:49:23Z</time>
      </trkpt>
      <trkpt lat="43.36872" lon="6.70489">
        <ele>72</ele>
        <time>2012-10-13T13:49:33Z</time>
      </trkpt>
      <trkpt lat="43.3688" lon="6.70518">
        <ele>73</ele>
        <time>2012-10-13T13:49:42Z</time>
      </trkpt>
      <trkpt lat="43.36883" lon="6.70535">
        <ele>70</ele>
        <time>2012-10-13T13:49:49Z</time>
      </trkpt>
      <trkpt lat="43.36896" lon="6.70552">
        <ele>81</ele>
        <time>2012-10-13T13:50:01Z</time>
      </trkpt>
      <trkpt lat="43.36919" lon="6.70541">
        <ele>89</ele>
        <time>2012-10-13T13:50:15Z</time>
      </trkpt>
      <trkpt lat="43.36937" lon="6.70531">
        <ele>92</ele>
        <time>2012-10-13T13:50:25Z</time>
      </trkpt>
      <trkpt lat="43.3695" lon="6.70524">
        <ele>94</ele>
        <time>2012-10-13T13:50:33Z</time>
      </trkpt>
      <trkpt lat="43.36967" lon="6.70514">
        <ele>96</ele>
        <time>2012-10-13T13:50:44Z</time>
      </trkpt>
      <trkpt lat="43.36985" lon="6.70504">
        <ele>98</ele>
        <time>2012-10-13T13:50:59Z</time>
      </trkpt>
      <trkpt lat="43.37003" lon="6.70486">
        <ele>99</ele>
        <time>2012-10-13T13:51:12Z</time>
      </trkpt>
      <trkpt lat="43.37017" lon="6.70468">
        <ele>99</ele>
        <time>2012-10-13T13:51:20Z</time>
      </trkpt>
      <trkpt lat="43.37024" lon="6.70458">
        <ele>102</ele>
        <time>2012-10-13T13:51:25Z</time>
      </trkpt>
      <trkpt lat="43.37039" lon="6.7044">
        <ele>104</ele>
        <time>2012-10-13T13:51:36Z</time>
      </trkpt>
      <trkpt lat="43.3705" lon="6.70424">
        <ele>105</ele>
        <time>2012-10-13T13:51:47Z</time>
      </trkpt>
      <trkpt lat="43.37064" lon="6.70399">
        <ele>108</ele>
        <time>2012-10-13T13:52:02Z</time>
      </trkpt>
      <trkpt lat="43.37083" lon="6.70372">
        <ele>107</ele>
        <time>2012-10-13T13:52:16Z</time>
      </trkpt>
      <trkpt lat="43.37098" lon="6.7035">
        <ele>104</ele>
        <time>2012-10-13T13:52:31Z</time>
      </trkpt>
      <trkpt lat="43.37105" lon="6.7033">
        <ele>100</ele>
        <time>2012-10-13T13:52:40Z</time>
      </trkpt>
      <trkpt lat="43.37113" lon="6.703">
        <ele>101</ele>
        <time>2012-10-13T13:52:48Z</time>
      </trkpt>
      <trkpt lat="43.37122" lon="6.7027">
        <ele>108</ele>
        <time>2012-10-13T13:52:57Z</time>
      </trkpt>
      <trkpt lat="43.37128" lon="6.70244">
        <ele>107</ele>
        <time>2012-10-13T13:53:06Z</time>
      </trkpt>
      <trkpt lat="43.37137" lon="6.70222">
        <ele>111</ele>
        <time>2012-10-13T13:53:15Z</time>
      </trkpt>
      <trkpt lat="43.37148" lon="6.70198">
        <ele>114</ele>
        <time>2012-10-13T13:53:25Z</time>
      </trkpt>
      <trkpt lat="43.37159" lon="6.70188">
        <ele>114</ele>
        <time>2012-10-13T13:53:32Z</time>
      </trkpt>
      <trkpt lat="43.37182" lon="6.70181">
        <ele>118</ele>
        <time>2012-10-13T13:53:45Z</time>
      </trkpt>
      <trkpt lat="43.37192" lon="6.70178">
        <ele>120</ele>
        <time>2012-10-13T13:53:51Z</time>
      </trkpt>
      <trkpt lat="43.37199" lon="6.70176">
        <ele>119</ele>
        <time>2012-10-13T13:53:55Z</time>
      </trkpt>
      <trkpt lat="43.37219" lon="6.70169">
        <ele>120</ele>
        <time>2012-10-13T13:54:07Z</time>
      </trkpt>
      <trkpt lat="43.37233" lon="6.70165">
        <ele>122</ele>
        <time>2012-10-13T13:54:14Z</time>
      </trkpt>
      <trkpt lat="43.37242" lon="6.70163">
        <ele>123</ele>
        <time>2012-10-13T13:54:19Z</time>
      </trkpt>
      <trkpt lat="43.37259" lon="6.70159">
        <ele>127</ele>
        <time>2012-10-13T13:54:28Z</time>
      </trkpt>
      <trkpt lat="43.37279" lon="6.70156">
        <ele>130</ele>
        <time>2012-10-13T13:54:38Z</time>
      </trkpt>
      <trkpt lat="43.373" lon="6.70149">
        <ele>128</ele>
        <time>2012-10-13T13:54:51Z</time>
      </trkpt>
      <trkpt lat="43.37317" lon="6.70119">
        <ele>130</ele>
        <time>2012-10-13T13:55:07Z</time>
      </trkpt>
      <trkpt lat="43.37321" lon="6.70109">
        <ele>130</ele>
        <time>2012-10-13T13:55:12Z</time>
      </trkpt>
      <trkpt lat="43.37338" lon="6.70081">
        <ele>138</ele>
        <time>2012-10-13T13:55:28Z</time>
      </trkpt>
      <trkpt lat="43.37345" lon="6.70067">
        <ele>138</ele>
        <time>2012-10-13T13:55:37Z</time>
      </trkpt>
      <trkpt lat="43.37359" lon="6.70041">
        <ele>145</ele>
        <time>2012-10-13T13:55:54Z</time>
      </trkpt>
      <trkpt lat="43.37367" lon="6.70019">
        <ele>148</ele>
        <time>2012-10-13T13:56:04Z</time>
      </trkpt>
      <trkpt lat="43.3738" lon="6.70002">
        <ele>152</ele>
        <time>2012-10-13T13:56:15Z</time>
      </trkpt>
      <trkpt lat="43.37396" lon="6.70024">
        <ele>162</ele>
        <time>2012-10-13T13:56:31Z</time>
      </trkpt>
      <trkpt lat="43.37419" lon="6.70034">
        <ele>169</ele>
        <time>2012-10-13T13:56:48Z</time>
      </trkpt>
      <trkpt lat="43.37419" lon="6.70034">
        <ele>105</ele>
        <time>2012-10-13T13:56:59Z</time>
      </trkpt>
      <trkpt lat="43.37419" lon="6.70034">
        <ele>105</ele>
        <time>2012-10-13T13:58:59Z</time>
      </trkpt>
      <trkpt lat="43.37439" lon="6.70012">
        <ele>162</ele>
        <time>2012-10-13T13:58:59Z</time>
      </trkpt>
      <trkpt lat="43.37453" lon="6.69996">
        <ele>164</ele>
        <time>2012-10-13T13:59:08Z</time>
      </trkpt>
      <trkpt lat="43.37466" lon="6.69981">
        <ele>165</ele>
        <time>2012-10-13T13:59:17Z</time>
      </trkpt>
      <trkpt lat="43.37485" lon="6.69956">
        <ele>165</ele>
        <time>2012-10-13T13:59:31Z</time>
      </trkpt>
      <trkpt lat="43.37504" lon="6.69948">
        <ele>169</ele>
        <time>2012-10-13T13:59:43Z</time>
      </trkpt>
      <trkpt lat="43.37523" lon="6.69966">
        <ele>169</ele>
        <time>2012-10-13T13:59:57Z</time>
      </trkpt>
      <trkpt lat="43.37533" lon="6.69984">
        <ele>174</ele>
        <time>2012-10-13T14:00:06Z</time>
      </trkpt>
      <trkpt lat="43.37544" lon="6.69996">
        <ele>175</ele>
        <time>2012-10-13T14:00:15Z</time>
      </trkpt>
      <trkpt lat="43.37564" lon="6.70005">
        <ele>169</ele>
        <time>2012-10-13T14:00:28Z</time>
      </trkpt>
      <trkpt lat="43.37586" lon="6.7">
        <ele>175</ele>
        <time>2012-10-13T14:00:41Z</time>
      </trkpt>
      <trkpt lat="43.37628" lon="6.69984">
        <ele>174</ele>
        <time>2012-10-13T14:00:53Z</time>
      </trkpt>
      <trkpt lat="43.37659" lon="6.69975">
        <ele>170</ele>
        <time>2012-10-13T14:00:59Z</time>
      </trkpt>
      <trkpt lat="43.37675" lon="6.69966">
        <ele>169</ele>
        <time>2012-10-13T14:01:02Z</time>
      </trkpt>
      <trkpt lat="43.37711" lon="6.69937">
        <ele>165</ele>
        <time>2012-10-13T14:01:09Z</time>
      </trkpt>
      <trkpt lat="43.37727" lon="6.69952">
        <ele>167</ele>
        <time>2012-10-13T14:01:17Z</time>
      </trkpt>
      <trkpt lat="43.37746" lon="6.69977">
        <ele>166</ele>
        <time>2012-10-13T14:01:33Z</time>
      </trkpt>
      <trkpt lat="43.37757" lon="6.6999">
        <ele>167</ele>
        <time>2012-10-13T14:01:45Z</time>
      </trkpt>
      <trkpt lat="43.37779" lon="6.70005">
        <ele>166</ele>
        <time>2012-10-13T14:02:03Z</time>
      </trkpt>
      <trkpt lat="43.37796" lon="6.7002">
        <ele>174</ele>
        <time>2012-10-13T14:02:15Z</time>
      </trkpt>
      <trkpt lat="43.37811" lon="6.70028">
        <ele>178</ele>
        <time>2012-10-13T14:02:24Z</time>
      </trkpt>
      <trkpt lat="43.37834" lon="6.70033">
        <ele>176</ele>
        <time>2012-10-13T14:02:36Z</time>
      </trkpt>
      <trkpt lat="43.37855" lon="6.70039">
        <ele>177</ele>
        <time>2012-10-13T14:02:45Z</time>
      </trkpt>
      <trkpt lat="43.37875" lon="6.70054">
        <ele>182</ele>
        <time>2012-10-13T14:02:55Z</time>
      </trkpt>
      <trkpt lat="43.37895" lon="6.70082">
        <ele>179</ele>
        <time>2012-10-13T14:03:04Z</time>
      </trkpt>
      <trkpt lat="43.37895" lon="6.70082">
        <ele>124</ele>
        <time>2012-10-13T14:03:12Z</time>
      </trkpt>
      <trkpt lat="43.37895" lon="6.70082">
        <ele>124</ele>
        <time>2012-10-13T14:03:34Z</time>
      </trkpt>
      <trkpt lat="43.37909" lon="6.70119">
        <ele>179</ele>
        <time>2012-10-13T14:03:34Z</time>
      </trkpt>
      <trkpt lat="43.37931" lon="6.70154">
        <ele>175</ele>
        <time>2012-10-13T14:03:40Z</time>
      </trkpt>
      <trkpt lat="43.37949" lon="6.70159">
        <ele>174</ele>
        <time>2012-10-13T14:03:43Z</time>
      </trkpt>
      <trkpt lat="43.37969" lon="6.70148">
        <ele>172</ele>
        <time>2012-10-13T14:03:46Z</time>
      </trkpt>
      <trkpt lat="43.38008" lon="6.70117">
        <ele>169</ele>
        <time>2012-10-13T14:03:52Z</time>
      </trkpt>
      <trkpt lat="43.38044" lon="6.70095">
        <ele>164</ele>
        <time>2012-10-13T14:03:58Z</time>
      </trkpt>
      <trkpt lat="43.38059" lon="6.70084">
        <ele>161</ele>
        <time>2012-10-13T14:04:01Z</time>
      </trkpt>
      <trkpt lat="43.38079" lon="6.70074">
        <ele>157</ele>
        <time>2012-10-13T14:04:06Z</time>
      </trkpt>
      <trkpt lat="43.38104" lon="6.70071">
        <ele>155</ele>
        <time>2012-10-13T14:04:12Z</time>
      </trkpt>
      <trkpt lat="43.38122" lon="6.70074">
        <ele>151</ele>
        <time>2012-10-13T14:04:16Z</time>
      </trkpt>
      <trkpt lat="43.38153" lon="6.70075">
        <ele>146</ele>
        <time>2012-10-13T14:04:22Z</time>
      </trkpt>
      <trkpt lat="43.38175" lon="6.70077">
        <ele>144</ele>
        <time>2012-10-13T14:04:26Z</time>
      </trkpt>
      <trkpt lat="43.38189" lon="6.70077">
        <ele>143</ele>
        <time>2012-10-13T14:04:29Z</time>
      </trkpt>
      <trkpt lat="43.38198" lon="6.70089">
        <ele>141</ele>
        <time>2012-10-13T14:04:36Z</time>
      </trkpt>
      <trkpt lat="43.38219" lon="6.70113">
        <ele>141</ele>
        <time>2012-10-13T14:04:45Z</time>
      </trkpt>
      <trkpt lat="43.38232" lon="6.70128">
        <ele>142</ele>
        <time>2012-10-13T14:04:50Z</time>
      </trkpt>
      <trkpt lat="43.38249" lon="6.70143">
        <ele>144</ele>
        <time>2012-10-13T14:04:55Z</time>
      </trkpt>
      <trkpt lat="43.38267" lon="6.70158">
        <ele>143</ele>
        <time>2012-10-13T14:05:00Z</time>
      </trkpt>
      <trkpt lat="43.38293" lon="6.70183">
        <ele>141</ele>
        <time>2012-10-13T14:05:07Z</time>
      </trkpt>
      <trkpt lat="43.38304" lon="6.70213">
        <ele>141</ele>
        <time>2012-10-13T14:05:13Z</time>
      </trkpt>
      <trkpt lat="43.38313" lon="6.70255">
        <ele>149</ele>
        <time>2012-10-13T14:05:21Z</time>
      </trkpt>
      <trkpt lat="43.38312" lon="6.70287">
        <ele>147</ele>
        <time>2012-10-13T14:05:29Z</time>
      </trkpt>
      <trkpt lat="43.38327" lon="6.70306">
        <ele>153</ele>
        <time>2012-10-13T14:05:37Z</time>
      </trkpt>
      <trkpt lat="43.38345" lon="6.70317">
        <ele>150</ele>
        <time>2012-10-13T14:05:44Z</time>
      </trkpt>
      <trkpt lat="43.38354" lon="6.70338">
        <ele>147</ele>
        <time>2012-10-13T14:05:52Z</time>
      </trkpt>
      <trkpt lat="43.38354" lon="6.70338">
        <ele>107</ele>
        <time>2012-10-13T14:05:57Z</time>
      </trkpt>
      <trkpt lat="43.38354" lon="6.70338">
        <ele>107</ele>
        <time>2012-10-13T14:06:44Z</time>
      </trkpt>
      <trkpt lat="43.38376" lon="6.70361">
        <ele>152</ele>
        <time>2012-10-13T14:06:44Z</time>
      </trkpt>
      <trkpt lat="43.38376" lon="6.70361">
        <ele>108</ele>
        <time>2012-10-13T14:07:01Z</time>
      </trkpt>
      <trkpt lat="43.38376" lon="6.70361">
        <ele>108</ele>
        <time>2012-10-13T14:07:08Z</time>
      </trkpt>
      <trkpt lat="43.38402" lon="6.70362">
        <ele>148</ele>
        <time>2012-10-13T14:07:08Z</time>
      </trkpt>
      <trkpt lat="43.38425" lon="6.70376">
        <ele>152</ele>
        <time>2012-10-13T14:07:20Z</time>
      </trkpt>
      <trkpt lat="43.38435" lon="6.70397">
        <ele>158</ele>
        <time>2012-10-13T14:07:33Z</time>
      </trkpt>
      <trkpt lat="43.38435" lon="6.70397">
        <ele>103</ele>
        <time>2012-10-13T14:07:41Z</time>
      </trkpt>
      <trkpt lat="43.38435" lon="6.70397">
        <ele>103</ele>
        <time>2012-10-13T14:08:02Z</time>
      </trkpt>
      <trkpt lat="43.3843" lon="6.70417">
        <ele>162</ele>
        <time>2012-10-13T14:08:02Z</time>
      </trkpt>
      <trkpt lat="43.38415" lon="6.70451">
        <ele>167</ele>
        <time>2012-10-13T14:08:19Z</time>
      </trkpt>
      <trkpt lat="43.38406" lon="6.70468">
        <ele>168</ele>
        <time>2012-10-13T14:08:28Z</time>
      </trkpt>
      <trkpt lat="43.38385" lon="6.70485">
        <ele>170</ele>
        <time>2012-10-13T14:08:39Z</time>
      </trkpt>
      <trkpt lat="43.38362" lon="6.7051">
        <ele>172</ele>
        <time>2012-10-13T14:08:51Z</time>
      </trkpt>
      <trkpt lat="43.38362" lon="6.7051">
        <ele>121</ele>
        <time>2012-10-13T14:08:56Z</time>
      </trkpt>
      <trkpt lat="43.38362" lon="6.7051">
        <ele>121</ele>
        <time>2012-10-13T14:18:17Z</time>
      </trkpt>
      <trkpt lat="43.38353" lon="6.70544">
        <ele>174</ele>
        <time>2012-10-13T14:18:17Z</time>
      </trkpt>
      <trkpt lat="43.38353" lon="6.70544">
        <ele>121</ele>
        <time>2012-10-13T14:18:25Z</time>
      </trkpt>
      <trkpt lat="43.38353" lon="6.70544">
        <ele>121</ele>
        <time>2012-10-13T14:27:23Z</time>
      </trkpt>
      <trkpt lat="43.38366" lon="6.70531">
        <ele>161</ele>
        <time>2012-10-13T14:27:23Z</time>
      </trkpt>
      <trkpt lat="43.38366" lon="6.70531">
        <ele>120</ele>
        <time>2012-10-13T14:27:30Z</time>
      </trkpt>
      <trkpt lat="43.38366" lon="6.70531">
        <ele>120</ele>
        <time>2012-10-13T14:30:22Z</time>
      </trkpt>
      <trkpt lat="43.38383" lon="6.70519">
        <ele>173</ele>
        <time>2012-10-13T14:30:22Z</time>
      </trkpt>
      <trkpt lat="43.38402" lon="6.70522">
        <ele>178</ele>
        <time>2012-10-13T14:30:31Z</time>
      </trkpt>
      <trkpt lat="43.38424" lon="6.70557">
        <ele>167</ele>
        <time>2012-10-13T14:30:42Z</time>
      </trkpt>
      <trkpt lat="43.38448" lon="6.70577">
        <ele>162</ele>
        <time>2012-10-13T14:30:49Z</time>
      </trkpt>
      <trkpt lat="43.38471" lon="6.70576">
        <ele>162</ele>
        <time>2012-10-13T14:30:53Z</time>
      </trkpt>
      <trkpt lat="43.38489" lon="6.70586">
        <ele>158</ele>
        <time>2012-10-13T14:30:57Z</time>
      </trkpt>
      <trkpt lat="43.38515" lon="6.70621">
        <ele>158</ele>
        <time>2012-10-13T14:31:05Z</time>
      </trkpt>
      <trkpt lat="43.38534" lon="6.70652">
        <ele>161</ele>
        <time>2012-10-13T14:31:11Z</time>
      </trkpt>
      <trkpt lat="43.38549" lon="6.7068">
        <ele>158</ele>
        <time>2012-10-13T14:31:19Z</time>
      </trkpt>
      <trkpt lat="43.38573" lon="6.70714">
        <ele>148</ele>
        <time>2012-10-13T14:31:36Z</time>
      </trkpt>
      <trkpt lat="43.38592" lon="6.70729">
        <ele>152</ele>
        <time>2012-10-13T14:31:47Z</time>
      </trkpt>
      <trkpt lat="43.38609" lon="6.70743">
        <ele>151</ele>
        <time>2012-10-13T14:32:01Z</time>
      </trkpt>
      <trkpt lat="43.38644" lon="6.70751">
        <ele>144</ele>
        <time>2012-10-13T14:32:18Z</time>
      </trkpt>
      <trkpt lat="43.38656" lon="6.70737">
        <ele>147</ele>
        <time>2012-10-13T14:32:28Z</time>
      </trkpt>
      <trkpt lat="43.38697" lon="6.7073">
        <ele>142</ele>
        <time>2012-10-13T14:32:49Z</time>
      </trkpt>
      <trkpt lat="43.38716" lon="6.70728">
        <ele>146</ele>
        <time>2012-10-13T14:33:06Z</time>
      </trkpt>
      <trkpt lat="43.38716" lon="6.70728">
        <ele>101</ele>
        <time>2012-10-13T14:33:14Z</time>
      </trkpt>
      <trkpt lat="43.38716" lon="6.70728">
        <ele>101</ele>
        <time>2012-10-13T14:33:37Z</time>
      </trkpt>
      <trkpt lat="43.38746" lon="6.70729">
        <ele>143</ele>
        <time>2012-10-13T14:33:37Z</time>
      </trkpt>
      <trkpt lat="43.38768" lon="6.70712">
        <ele>141</ele>
        <time>2012-10-13T14:33:45Z</time>
      </trkpt>
      <trkpt lat="43.38793" lon="6.70693">
        <ele>146</ele>
        <time>2012-10-13T14:33:51Z</time>
      </trkpt>
      <trkpt lat="43.38833" lon="6.70673">
        <ele>147</ele>
        <time>2012-10-13T14:33:59Z</time>
      </trkpt>
      <trkpt lat="43.38864" lon="6.70652">
        <ele>143</ele>
        <time>2012-10-13T14:34:06Z</time>
      </trkpt>
      <trkpt lat="43.38877" lon="6.70629">
        <ele>148</ele>
        <time>2012-10-13T14:34:14Z</time>
      </trkpt>
      <trkpt lat="43.38891" lon="6.70611">
        <ele>141</ele>
        <time>2012-10-13T14:34:26Z</time>
      </trkpt>
      <trkpt lat="43.38891" lon="6.70611">
        <ele>93</ele>
        <time>2012-10-13T14:34:40Z</time>
      </trkpt>
      <trkpt lat="43.38891" lon="6.70611">
        <ele>93</ele>
        <time>2012-10-13T14:34:52Z</time>
      </trkpt>
      <trkpt lat="43.38913" lon="6.70599">
        <ele>134</ele>
        <time>2012-10-13T14:34:52Z</time>
      </trkpt>
      <trkpt lat="43.38925" lon="6.70594">
        <ele>145</ele>
        <time>2012-10-13T14:35:01Z</time>
      </trkpt>
      <trkpt lat="43.38948" lon="6.70574">
        <ele>143</ele>
        <time>2012-10-13T14:35:12Z</time>
      </trkpt>
      <trkpt lat="43.38966" lon="6.70581">
        <ele>150</ele>
        <time>2012-10-13T14:35:23Z</time>
      </trkpt>
      <trkpt lat="43.38986" lon="6.70553">
        <ele>135</ele>
        <time>2012-10-13T14:35:38Z</time>
      </trkpt>
      <trkpt lat="43.39005" lon="6.70535">
        <ele>127</ele>
        <time>2012-10-13T14:35:46Z</time>
      </trkpt>
      <trkpt lat="43.3902" lon="6.70534">
        <ele>130</ele>
        <time>2012-10-13T14:35:56Z</time>
      </trkpt>
      <trkpt lat="43.3902" lon="6.70534">
        <ele>70</ele>
        <time>2012-10-13T14:36:04Z</time>
      </trkpt>
      <trkpt lat="43.3902" lon="6.70534">
        <ele>70</ele>
        <time>2012-10-13T14:36:17Z</time>
      </trkpt>
      <trkpt lat="43.39026" lon="6.70516">
        <ele>118</ele>
        <time>2012-10-13T14:36:17Z</time>
      </trkpt>
      <trkpt lat="43.39043" lon="6.70518">
        <ele>119</ele>
        <time>2012-10-13T14:36:24Z</time>
      </trkpt>
      <trkpt lat="43.39044" lon="6.70544">
        <ele>123</ele>
        <time>2012-10-13T14:36:31Z</time>
      </trkpt>
      <trkpt lat="43.39059" lon="6.70575">
        <ele>116</ele>
        <time>2012-10-13T14:36:40Z</time>
      </trkpt>
      <trkpt lat="43.39083" lon="6.70598">
        <ele>123</ele>
        <time>2012-10-13T14:36:49Z</time>
      </trkpt>
      <trkpt lat="43.39103" lon="6.70609">
        <ele>115</ele>
        <time>2012-10-13T14:36:55Z</time>
      </trkpt>
      <trkpt lat="43.39143" lon="6.70654">
        <ele>108</ele>
        <time>2012-10-13T14:37:11Z</time>
      </trkpt>
      <trkpt lat="43.39178" lon="6.7067">
        <ele>108</ele>
        <time>2012-10-13T14:37:17Z</time>
      </trkpt>
      <trkpt lat="43.39202" lon="6.7068">
        <ele>107</ele>
        <time>2012-10-13T14:37:22Z</time>
      </trkpt>
      <trkpt lat="43.39225" lon="6.70689">
        <ele>102</ele>
        <time>2012-10-13T14:37:28Z</time>
      </trkpt>
      <trkpt lat="43.39245" lon="6.707">
        <ele>93</ele>
        <time>2012-10-13T14:37:35Z</time>
      </trkpt>
      <trkpt lat="43.39261" lon="6.70699">
        <ele>101</ele>
        <time>2012-10-13T14:37:41Z</time>
      </trkpt>
      <trkpt lat="43.39263" lon="6.70669">
        <ele>99</ele>
        <time>2012-10-13T14:37:54Z</time>
      </trkpt>
      <trkpt lat="43.39263" lon="6.70669">
        <ele>45</ele>
        <time>2012-10-13T14:38:05Z</time>
      </trkpt>
      <trkpt lat="43.39263" lon="6.70669">
        <ele>45</ele>
        <time>2012-10-13T14:38:44Z</time>
      </trkpt>
      <trkpt lat="43.39294" lon="6.70658">
        <ele>83</ele>
        <time>2012-10-13T14:38:44Z</time>
      </trkpt>
      <trkpt lat="43.39308" lon="6.70655">
        <ele>85</ele>
        <time>2012-10-13T14:39:00Z</time>
      </trkpt>
      <trkpt lat="43.39325" lon="6.70656">
        <ele>90</ele>
        <time>2012-10-13T14:39:21Z</time>
      </trkpt>
      <trkpt lat="43.39342" lon="6.70655">
        <ele>89</ele>
        <time>2012-10-13T14:39:37Z</time>
      </trkpt>
      <trkpt lat="43.39368" lon="6.7066">
        <ele>94</ele>
        <time>2012-10-13T14:39:53Z</time>
      </trkpt>
      <trkpt lat="43.3939" lon="6.70673">
        <ele>94</ele>
        <time>2012-10-13T14:40:01Z</time>
      </trkpt>
      <trkpt lat="43.3941" lon="6.70683">
        <ele>96</ele>
        <time>2012-10-13T14:40:09Z</time>
      </trkpt>
      <trkpt lat="43.39431" lon="6.70686">
        <ele>97</ele>
        <time>2012-10-13T14:40:18Z</time>
      </trkpt>
      <trkpt lat="43.39445" lon="6.70689">
        <ele>95</ele>
        <time>2012-10-13T14:40:26Z</time>
      </trkpt>
      <trkpt lat="43.39463" lon="6.70688">
        <ele>97</ele>
        <time>2012-10-13T14:40:37Z</time>
      </trkpt>
      <trkpt lat="43.39463" lon="6.70675">
        <ele>105</ele>
        <time>2012-10-13T14:40:43Z</time>
      </trkpt>
      <trkpt lat="43.39492" lon="6.7066">
        <ele>108</ele>
        <time>2012-10-13T14:41:04Z</time>
      </trkpt>
      <trkpt lat="43.39506" lon="6.70627">
        <ele>106</ele>
        <time>2012-10-13T14:41:21Z</time>
      </trkpt>
      <trkpt lat="43.39516" lon="6.70607">
        <ele>109</ele>
        <time>2012-10-13T14:41:28Z</time>
      </trkpt>
      <trkpt lat="43.3954" lon="6.70614">
        <ele>107</ele>
        <time>2012-10-13T14:41:40Z</time>
      </trkpt>
      <trkpt lat="43.39563" lon="6.70623">
        <ele>99</ele>
        <time>2012-10-13T14:41:54Z</time>
      </trkpt>
      <trkpt lat="43.39574" lon="6.70604">
        <ele>92</ele>
        <time>2012-10-13T14:42:04Z</time>
      </trkpt>
      <trkpt lat="43.39587" lon="6.70605">
        <ele>104</ele>
        <time>2012-10-13T14:42:21Z</time>
      </trkpt>
      <trkpt lat="43.39604" lon="6.70636">
        <ele>101</ele>
        <time>2012-10-13T14:42:38Z</time>
      </trkpt>
      <trkpt lat="43.39607" lon="6.70659">
        <ele>97</ele>
        <time>2012-10-13T14:42:45Z</time>
      </trkpt>
      <trkpt lat="43.39615" lon="6.70681">
        <ele>104</ele>
        <time>2012-10-13T14:42:56Z</time>
      </trkpt>
      <trkpt lat="43.39638" lon="6.70682">
        <ele>98</ele>
        <time>2012-10-13T14:43:11Z</time>
      </trkpt>
      <trkpt lat="43.39658" lon="6.70677">
        <ele>99</ele>
        <time>2012-10-13T14:43:25Z</time>
      </trkpt>
      <trkpt lat="43.39668" lon="6.70659">
        <ele>106</ele>
        <time>2012-10-13T14:43:35Z</time>
      </trkpt>
      <trkpt lat="43.39709" lon="6.70652">
        <ele>104</ele>
        <time>2012-10-13T14:43:51Z</time>
      </trkpt>
      <trkpt lat="43.39726" lon="6.7066">
        <ele>112</ele>
        <time>2012-10-13T14:43:56Z</time>
      </trkpt>
      <trkpt lat="43.39743" lon="6.70644">
        <ele>109</ele>
        <time>2012-10-13T14:44:02Z</time>
      </trkpt>
      <trkpt lat="43.39758" lon="6.7062">
        <ele>114</ele>
        <time>2012-10-13T14:44:08Z</time>
      </trkpt>
      <trkpt lat="43.39773" lon="6.70589">
        <ele>107</ele>
        <time>2012-10-13T14:44:17Z</time>
      </trkpt>
      <trkpt lat="43.39785" lon="6.70567">
        <ele>99</ele>
        <time>2012-10-13T14:44:23Z</time>
      </trkpt>
      <trkpt lat="43.39796" lon="6.70544">
        <ele>98</ele>
        <time>2012-10-13T14:44:29Z</time>
      </trkpt>
      <trkpt lat="43.39804" lon="6.70515">
        <ele>102</ele>
        <time>2012-10-13T14:44:37Z</time>
      </trkpt>
      <trkpt lat="43.39821" lon="6.70484">
        <ele>113</ele>
        <time>2012-10-13T14:44:45Z</time>
      </trkpt>
      <trkpt lat="43.39821" lon="6.70484">
        <ele>71</ele>
        <time>2012-10-13T14:44:55Z</time>
      </trkpt>
      <trkpt lat="43.39821" lon="6.70484">
        <ele>71</ele>
        <time>2012-10-13T14:45:02Z</time>
      </trkpt>
      <trkpt lat="43.39837" lon="6.70492">
        <ele>105</ele>
        <time>2012-10-13T14:45:02Z</time>
      </trkpt>
      <trkpt lat="43.39861" lon="6.7053">
        <ele>111</ele>
        <time>2012-10-13T14:45:18Z</time>
      </trkpt>
      <trkpt lat="43.39869" lon="6.70552">
        <ele>116</ele>
        <time>2012-10-13T14:45:23Z</time>
      </trkpt>
      <trkpt lat="43.39892" lon="6.7058">
        <ele>117</ele>
        <time>2012-10-13T14:45:30Z</time>
      </trkpt>
      <trkpt lat="43.39918" lon="6.70586">
        <ele>122</ele>
        <time>2012-10-13T14:45:36Z</time>
      </trkpt>
      <trkpt lat="43.39937" lon="6.70573">
        <ele>121</ele>
        <time>2012-10-13T14:45:42Z</time>
      </trkpt>
      <trkpt lat="43.39947" lon="6.70562">
        <ele>116</ele>
        <time>2012-10-13T14:45:46Z</time>
      </trkpt>
      <trkpt lat="43.39962" lon="6.70557">
        <ele>112</ele>
        <time>2012-10-13T14:45:52Z</time>
      </trkpt>
      <trkpt lat="43.39985" lon="6.70544">
        <ele>104</ele>
        <time>2012-10-13T14:46:01Z</time>
      </trkpt>
      <trkpt lat="43.39986" lon="6.70515">
        <ele>109</ele>
        <time>2012-10-13T14:46:08Z</time>
      </trkpt>
      <trkpt lat="43.39996" lon="6.70473">
        <ele>116</ele>
        <time>2012-10-13T14:46:17Z</time>
      </trkpt>
      <trkpt lat="43.40012" lon="6.70435">
        <ele>110</ele>
        <time>2012-10-13T14:46:25Z</time>
      </trkpt>
      <trkpt lat="43.40022" lon="6.70429">
        <ele>118</ele>
        <time>2012-10-13T14:46:32Z</time>
      </trkpt>
      <trkpt lat="43.40037" lon="6.7043">
        <ele>125</ele>
        <time>2012-10-13T14:46:44Z</time>
      </trkpt>
      <trkpt lat="43.40046" lon="6.70429">
        <ele>124</ele>
        <time>2012-10-13T14:46:53Z</time>
      </trkpt>
      <trkpt lat="43.40059" lon="6.70421">
        <ele>120</ele>
        <time>2012-10-13T14:47:03Z</time>
      </trkpt>
      <trkpt lat="43.40079" lon="6.70444">
        <ele>114</ele>
        <time>2012-10-13T14:47:14Z</time>
      </trkpt>
      <trkpt lat="43.40091" lon="6.70466">
        <ele>120</ele>
        <time>2012-10-13T14:47:26Z</time>
      </trkpt>
      <trkpt lat="43.4011" lon="6.70513">
        <ele>117</ele>
        <time>2012-10-13T14:47:45Z</time>
      </trkpt>
      <trkpt lat="43.40118" lon="6.70546">
        <ele>112</ele>
        <time>2012-10-13T14:47:54Z</time>
      </trkpt>
      <trkpt lat="43.40136" lon="6.70566">
        <ele>120</ele>
        <time>2012-10-13T14:48:05Z</time>
      </trkpt>
      <trkpt lat="43.40155" lon="6.70591">
        <ele>116</ele>
        <time>2012-10-13T14:48:16Z</time>
      </trkpt>
      <trkpt lat="43.40163" lon="6.70614">
        <ele>118</ele>
        <time>2012-10-13T14:48:20Z</time>
      </trkpt>
      <trkpt lat="43.40179" lon="6.70644">
        <ele>115</ele>
        <time>2012-10-13T14:48:27Z</time>
      </trkpt>
      <trkpt lat="43.40192" lon="6.70675">
        <ele>114</ele>
        <time>2012-10-13T14:48:35Z</time>
      </trkpt>
      <trkpt lat="43.402" lon="6.70697">
        <ele>113</ele>
        <time>2012-10-13T14:48:40Z</time>
      </trkpt>
      <trkpt lat="43.40206" lon="6.70714">
        <ele>109</ele>
        <time>2012-10-13T14:48:46Z</time>
      </trkpt>
      <trkpt lat="43.40205" lon="6.70745">
        <ele>103</ele>
        <time>2012-10-13T14:48:52Z</time>
      </trkpt>
      <trkpt lat="43.40204" lon="6.70778">
        <ele>96</ele>
        <time>2012-10-13T14:48:57Z</time>
      </trkpt>
      <trkpt lat="43.40203" lon="6.70797">
        <ele>97</ele>
        <time>2012-10-13T14:49:00Z</time>
      </trkpt>
      <trkpt lat="43.40193" lon="6.70822">
        <ele>95</ele>
        <time>2012-10-13T14:49:04Z</time>
      </trkpt>
      <trkpt lat="43.40169" lon="6.70855">
        <ele>97</ele>
        <time>2012-10-13T14:49:10Z</time>
      </trkpt>
      <trkpt lat="43.40154" lon="6.70879">
        <ele>97</ele>
        <time>2012-10-13T14:49:15Z</time>
      </trkpt>
      <trkpt lat="43.40143" lon="6.70904">
        <ele>93</ele>
        <time>2012-10-13T14:49:21Z</time>
      </trkpt>
      <trkpt lat="43.40129" lon="6.70938">
        <ele>86</ele>
        <time>2012-10-13T14:49:30Z</time>
      </trkpt>
      <trkpt lat="43.40124" lon="6.70988">
        <ele>86</ele>
        <time>2012-10-13T14:49:40Z</time>
      </trkpt>
      <trkpt lat="43.40128" lon="6.71021">
        <ele>83</ele>
        <time>2012-10-13T14:49:47Z</time>
      </trkpt>
      <trkpt lat="43.40133" lon="6.71054">
        <ele>80</ele>
        <time>2012-10-13T14:49:53Z</time>
      </trkpt>
      <trkpt lat="43.4014" lon="6.71097">
        <ele>74</ele>
        <time>2012-10-13T14:49:59Z</time>
      </trkpt>
      <trkpt lat="43.40135" lon="6.71138">
        <ele>74</ele>
        <time>2012-10-13T14:50:04Z</time>
      </trkpt>
      <trkpt lat="43.40134" lon="6.71178">
        <ele>63</ele>
        <time>2012-10-13T14:50:11Z</time>
      </trkpt>
      <trkpt lat="43.40134" lon="6.71178">
        <ele>5</ele>
        <time>2012-10-13T14:50:16Z</time>
      </trkpt>
      <trkpt lat="43.40134" lon="6.71178">
        <ele>5</ele>
        <time>2012-10-13T14:57:37Z</time>
      </trkpt>
      <trkpt lat="43.40142" lon="6.71206">
        <ele>54</ele>
        <time>2012-10-13T14:57:37Z</time>
      </trkpt>
      <trkpt lat="43.40145" lon="6.71232">
        <ele>52</ele>
        <time>2012-10-13T14:57:42Z</time>
      </trkpt>
      <trkpt lat="43.40145" lon="6.71253">
        <ele>50</ele>
        <time>2012-10-13T14:57:47Z</time>
      </trkpt>
      <trkpt lat="43.4012" lon="6.71277">
        <ele>49</ele>
        <time>2012-10-13T14:57:57Z</time>
      </trkpt>
      <trkpt lat="43.40097" lon="6.71296">
        <ele>47</ele>
        <time>2012-10-13T14:58:06Z</time>
      </trkpt>
      <trkpt lat="43.40074" lon="6.71319">
        <ele>46</ele>
        <time>2012-10-13T14:58:15Z</time>
      </trkpt>
      <trkpt lat="43.40062" lon="6.7134">
        <ele>46</ele>
        <time>2012-10-13T14:58:21Z</time>
      </trkpt>
      <trkpt lat="43.40049" lon="6.71356">
        <ele>45</ele>
        <time>2012-10-13T14:58:26Z</time>
      </trkpt>
      <trkpt lat="43.40039" lon="6.71377">
        <ele>49</ele>
        <time>2012-10-13T14:58:32Z</time>
      </trkpt>
      <trkpt lat="43.4002" lon="6.71402">
        <ele>41</ele>
        <time>2012-10-13T14:58:39Z</time>
      </trkpt>
      <trkpt lat="43.40009" lon="6.71421">
        <ele>45</ele>
        <time>2012-10-13T14:58:44Z</time>
      </trkpt>
      <trkpt lat="43.39998" lon="6.71439">
        <ele>43</ele>
        <time>2012-10-13T14:58:50Z</time>
      </trkpt>
      <trkpt lat="43.39984" lon="6.71473">
        <ele>47</ele>
        <time>2012-10-13T14:58:59Z</time>
      </trkpt>
      <trkpt lat="43.3998" lon="6.71506">
        <ele>49</ele>
        <time>2012-10-13T14:59:07Z</time>
      </trkpt>
      <trkpt lat="43.39982" lon="6.71525">
        <ele>55</ele>
        <time>2012-10-13T14:59:11Z</time>
      </trkpt>
      <trkpt lat="43.39983" lon="6.71545">
        <ele>54</ele>
        <time>2012-10-13T14:59:15Z</time>
      </trkpt>
      <trkpt lat="43.39988" lon="6.71581">
        <ele>51</ele>
        <time>2012-10-13T14:59:23Z</time>
      </trkpt>
      <trkpt lat="43.39981" lon="6.71612">
        <ele>54</ele>
        <time>2012-10-13T14:59:33Z</time>
      </trkpt>
      <trkpt lat="43.39981" lon="6.71612">
        <ele>7</ele>
        <time>2012-10-13T14:59:45Z</time>
      </trkpt>
      <trkpt lat="43.39981" lon="6.71612">
        <ele>7</ele>
        <time>2012-10-13T15:00:40Z</time>
      </trkpt>
      <trkpt lat="43.39978" lon="6.71698">
        <ele>67</ele>
        <time>2012-10-13T15:00:40Z</time>
      </trkpt>
      <trkpt lat="43.39979" lon="6.71734">
        <ele>59</ele>
        <time>2012-10-13T15:00:48Z</time>
      </trkpt>
      <trkpt lat="43.39969" lon="6.71766">
        <ele>65</ele>
        <time>2012-10-13T15:00:56Z</time>
      </trkpt>
      <trkpt lat="43.39956" lon="6.71787">
        <ele>67</ele>
        <time>2012-10-13T15:01:03Z</time>
      </trkpt>
      <trkpt lat="43.39945" lon="6.71807">
        <ele>54</ele>
        <time>2012-10-13T15:01:09Z</time>
      </trkpt>
      <trkpt lat="43.39926" lon="6.7183">
        <ele>49</ele>
        <time>2012-10-13T15:01:16Z</time>
      </trkpt>
      <trkpt lat="43.39916" lon="6.71844">
        <ele>53</ele>
        <time>2012-10-13T15:01:21Z</time>
      </trkpt>
      <trkpt lat="43.39899" lon="6.71858">
        <ele>54</ele>
        <time>2012-10-13T15:01:27Z</time>
      </trkpt>
      <trkpt lat="43.39878" lon="6.71865">
        <ele>53</ele>
        <time>2012-10-13T15:01:32Z</time>
      </trkpt>
      <trkpt lat="43.39857" lon="6.71873">
        <ele>55</ele>
        <time>2012-10-13T15:01:37Z</time>
      </trkpt>
      <trkpt lat="43.39841" lon="6.71877">
        <ele>58</ele>
        <time>2012-10-13T15:01:41Z</time>
      </trkpt>
      <trkpt lat="43.39817" lon="6.71882">
        <ele>56</ele>
        <time>2012-10-13T15:01:47Z</time>
      </trkpt>
      <trkpt lat="43.39789" lon="6.71891">
        <ele>50</ele>
        <time>2012-10-13T15:01:54Z</time>
      </trkpt>
      <trkpt lat="43.39764" lon="6.719">
        <ele>43</ele>
        <time>2012-10-13T15:02:00Z</time>
      </trkpt>
      <trkpt lat="43.39737" lon="6.71905">
        <ele>50</ele>
        <time>2012-10-13T15:02:07Z</time>
      </trkpt>
      <trkpt lat="43.39712" lon="6.7191">
        <ele>47</ele>
        <time>2012-10-13T15:02:14Z</time>
      </trkpt>
      <trkpt lat="43.39688" lon="6.71918">
        <ele>49</ele>
        <time>2012-10-13T15:02:21Z</time>
      </trkpt>
      <trkpt lat="43.39683" lon="6.71969">
        <ele>48</ele>
        <time>2012-10-13T15:02:28Z</time>
      </trkpt>
      <trkpt lat="43.39685" lon="6.72003">
        <ele>49</ele>
        <time>2012-10-13T15:02:33Z</time>
      </trkpt>
      <trkpt lat="43.39685" lon="6.72036">
        <ele>56</ele>
        <time>2012-10-13T15:02:39Z</time>
      </trkpt>
      <trkpt lat="43.3968" lon="6.72077">
        <ele>56</ele>
        <time>2012-10-13T15:02:48Z</time>
      </trkpt>
      <trkpt lat="43.39681" lon="6.72119">
        <ele>63</ele>
        <time>2012-10-13T15:02:55Z</time>
      </trkpt>
      <trkpt lat="43.39678" lon="6.7216">
        <ele>63</ele>
        <time>2012-10-13T15:03:01Z</time>
      </trkpt>
      <trkpt lat="43.39674" lon="6.72189">
        <ele>65</ele>
        <time>2012-10-13T15:03:06Z</time>
      </trkpt>
      <trkpt lat="43.39671" lon="6.7222">
        <ele>59</ele>
        <time>2012-10-13T15:03:11Z</time>
      </trkpt>
      <trkpt lat="43.39662" lon="6.72255">
        <ele>59</ele>
        <time>2012-10-13T15:03:17Z</time>
      </trkpt>
      <trkpt lat="43.39652" lon="6.72299">
        <ele>66</ele>
        <time>2012-10-13T15:03:24Z</time>
      </trkpt>
      <trkpt lat="43.39648" lon="6.72322">
        <ele>63</ele>
        <time>2012-10-13T15:03:27Z</time>
      </trkpt>
      <trkpt lat="43.3964" lon="6.7237">
        <ele>57</ele>
        <time>2012-10-13T15:03:33Z</time>
      </trkpt>
      <trkpt lat="43.39635" lon="6.724">
        <ele>47</ele>
        <time>2012-10-13T15:03:39Z</time>
      </trkpt>
      <trkpt lat="43.39624" lon="6.72442">
        <ele>52</ele>
        <time>2012-10-13T15:03:47Z</time>
      </trkpt>
      <trkpt lat="43.39617" lon="6.72475">
        <ele>53</ele>
        <time>2012-10-13T15:03:53Z</time>
      </trkpt>
      <trkpt lat="43.39612" lon="6.72514">
        <ele>53</ele>
        <time>2012-10-13T15:03:59Z</time>
      </trkpt>
      <trkpt lat="43.39606" lon="6.72551">
        <ele>51</ele>
        <time>2012-10-13T15:04:05Z</time>
      </trkpt>
      <trkpt lat="43.39605" lon="6.72583">
        <ele>48</ele>
        <time>2012-10-13T15:04:11Z</time>
      </trkpt>
      <trkpt lat="43.396" lon="6.72616">
        <ele>47</ele>
        <time>2012-10-13T15:04:17Z</time>
      </trkpt>
      <trkpt lat="43.3959" lon="6.72631">
        <ele>50</ele>
        <time>2012-10-13T15:04:21Z</time>
      </trkpt>
      <trkpt lat="43.39558" lon="6.72621">
        <ele>61</ele>
        <time>2012-10-13T15:04:28Z</time>
      </trkpt>
      <trkpt lat="43.39526" lon="6.7261">
        <ele>57</ele>
        <time>2012-10-13T15:04:33Z</time>
      </trkpt>
      <trkpt lat="43.39503" lon="6.72606">
        <ele>61</ele>
        <time>2012-10-13T15:04:38Z</time>
      </trkpt>
      <trkpt lat="43.39478" lon="6.72615">
        <ele>55</ele>
        <time>2012-10-13T15:04:44Z</time>
      </trkpt>
      <trkpt lat="43.39444" lon="6.72626">
        <ele>57</ele>
        <time>2012-10-13T15:04:51Z</time>
      </trkpt>
      <trkpt lat="43.39413" lon="6.72639">
        <ele>57</ele>
        <time>2012-10-13T15:04:57Z</time>
      </trkpt>
      <trkpt lat="43.39385" lon="6.7265">
        <ele>60</ele>
        <time>2012-10-13T15:05:03Z</time>
      </trkpt>
      <trkpt lat="43.39356" lon="6.72661">
        <ele>58</ele>
        <time>2012-10-13T15:05:10Z</time>
      </trkpt>
      <trkpt lat="43.39324" lon="6.72675">
        <ele>49</ele>
        <time>2012-10-13T15:05:17Z</time>
      </trkpt>
      <trkpt lat="43.39298" lon="6.72687">
        <ele>49</ele>
        <time>2012-10-13T15:05:23Z</time>
      </trkpt>
      <trkpt lat="43.3927" lon="6.72687">
        <ele>48</ele>
        <time>2012-10-13T15:05:29Z</time>
      </trkpt>
      <trkpt lat="43.39249" lon="6.72686">
        <ele>44</ele>
        <time>2012-10-13T15:05:34Z</time>
      </trkpt>
      <trkpt lat="43.39238" lon="6.72708">
        <ele>41</ele>
        <time>2012-10-13T15:05:42Z</time>
      </trkpt>
      <trkpt lat="43.39264" lon="6.72733">
        <ele>49</ele>
        <time>2012-10-13T15:05:49Z</time>
      </trkpt>
      <trkpt lat="43.39282" lon="6.72753">
        <ele>54</ele>
        <time>2012-10-13T15:05:55Z</time>
      </trkpt>
      <trkpt lat="43.39293" lon="6.72773">
        <ele>61</ele>
        <time>2012-10-13T15:06:01Z</time>
      </trkpt>
      <trkpt lat="43.39308" lon="6.72785">
        <ele>55</ele>
        <time>2012-10-13T15:06:08Z</time>
      </trkpt>
      <trkpt lat="43.39321" lon="6.72797">
        <ele>52</ele>
        <time>2012-10-13T15:06:17Z</time>
      </trkpt>
      <trkpt lat="43.39357" lon="6.72806">
        <ele>46</ele>
        <time>2012-10-13T15:06:29Z</time>
      </trkpt>
      <trkpt lat="43.3939" lon="6.72806">
        <ele>52</ele>
        <time>2012-10-13T15:06:36Z</time>
      </trkpt>
      <trkpt lat="43.39404" lon="6.72817">
        <ele>48</ele>
        <time>2012-10-13T15:06:42Z</time>
      </trkpt>
      <trkpt lat="43.39416" lon="6.72826">
        <ele>44</ele>
        <time>2012-10-13T15:06:49Z</time>
      </trkpt>
      <trkpt lat="43.39416" lon="6.72826">
        <ele>2</ele>
        <time>2012-10-13T15:06:57Z</time>
      </trkpt>
      <trkpt lat="43.39416" lon="6.72826">
        <ele>2</ele>
        <time>2012-10-13T15:08:37Z</time>
      </trkpt>
      <trkpt lat="43.39434" lon="6.72827">
        <ele>56</ele>
        <time>2012-10-13T15:08:37Z</time>
      </trkpt>
      <trkpt lat="43.39461" lon="6.72836">
        <ele>55</ele>
        <time>2012-10-13T15:08:46Z</time>
      </trkpt>
      <trkpt lat="43.39482" lon="6.72845">
        <ele>46</ele>
        <time>2012-10-13T15:08:52Z</time>
      </trkpt>
      <trkpt lat="43.3951" lon="6.72854">
        <ele>51</ele>
        <time>2012-10-13T15:08:59Z</time>
      </trkpt>
      <trkpt lat="43.39535" lon="6.72862">
        <ele>47</ele>
        <time>2012-10-13T15:09:05Z</time>
      </trkpt>
      <trkpt lat="43.39563" lon="6.72873">
        <ele>42</ele>
        <time>2012-10-13T15:09:11Z</time>
      </trkpt>
      <trkpt lat="43.39587" lon="6.72881">
        <ele>46</ele>
        <time>2012-10-13T15:09:17Z</time>
      </trkpt>
      <trkpt lat="43.39617" lon="6.72891">
        <ele>39</ele>
        <time>2012-10-13T15:09:24Z</time>
      </trkpt>
      <trkpt lat="43.39649" lon="6.72907">
        <ele>39</ele>
        <time>2012-10-13T15:09:31Z</time>
      </trkpt>
      <trkpt lat="43.39686" lon="6.72919">
        <ele>41</ele>
        <time>2012-10-13T15:09:39Z</time>
      </trkpt>
      <trkpt lat="43.39712" lon="6.72926">
        <ele>45</ele>
        <time>2012-10-13T15:09:45Z</time>
      </trkpt>
      <trkpt lat="43.39734" lon="6.72934">
        <ele>51</ele>
        <time>2012-10-13T15:09:51Z</time>
      </trkpt>
      <trkpt lat="43.3977" lon="6.72949">
        <ele>59</ele>
        <time>2012-10-13T15:10:00Z</time>
      </trkpt>
      <trkpt lat="43.39793" lon="6.72961">
        <ele>58</ele>
        <time>2012-10-13T15:10:05Z</time>
      </trkpt>
      <trkpt lat="43.39823" lon="6.72972">
        <ele>45</ele>
        <time>2012-10-13T15:10:11Z</time>
      </trkpt>
      <trkpt lat="43.39849" lon="6.72979">
        <ele>47</ele>
        <time>2012-10-13T15:10:16Z</time>
      </trkpt>
      <trkpt lat="43.39883" lon="6.72989">
        <ele>49</ele>
        <time>2012-10-13T15:10:22Z</time>
      </trkpt>
      <trkpt lat="43.39904" lon="6.72996">
        <ele>50</ele>
        <time>2012-10-13T15:10:27Z</time>
      </trkpt>
      <trkpt lat="43.39931" lon="6.73007">
        <ele>50</ele>
        <time>2012-10-13T15:10:33Z</time>
      </trkpt>
      <trkpt lat="43.39954" lon="6.7301">
        <ele>53</ele>
        <time>2012-10-13T15:10:38Z</time>
      </trkpt>
      <trkpt lat="43.39983" lon="6.73013">
        <ele>52</ele>
        <time>2012-10-13T15:10:44Z</time>
      </trkpt>
      <trkpt lat="43.40012" lon="6.73016">
        <ele>49</ele>
        <time>2012-10-13T15:10:50Z</time>
      </trkpt>
      <trkpt lat="43.40037" lon="6.73017">
        <ele>39</ele>
        <time>2012-10-13T15:10:55Z</time>
      </trkpt>
      <trkpt lat="43.40071" lon="6.73019">
        <ele>37</ele>
        <time>2012-10-13T15:11:01Z</time>
      </trkpt>
      <trkpt lat="43.40098" lon="6.73023">
        <ele>37</ele>
        <time>2012-10-13T15:11:06Z</time>
      </trkpt>
      <trkpt lat="43.40114" lon="6.73024">
        <ele>34</ele>
        <time>2012-10-13T15:11:09Z</time>
      </trkpt>
      <trkpt lat="43.4013" lon="6.73025">
        <ele>38</ele>
        <time>2012-10-13T15:11:12Z</time>
      </trkpt>
      <trkpt lat="43.40163" lon="6.73027">
        <ele>43</ele>
        <time>2012-10-13T15:11:18Z</time>
      </trkpt>
      <trkpt lat="43.40197" lon="6.73027">
        <ele>51</ele>
        <time>2012-10-13T15:11:24Z</time>
      </trkpt>
      <trkpt lat="43.40232" lon="6.73026">
        <ele>41</ele>
        <time>2012-10-13T15:11:30Z</time>
      </trkpt>
      <trkpt lat="43.40265" lon="6.73021">
        <ele>44</ele>
        <time>2012-10-13T15:11:35Z</time>
      </trkpt>
      <trkpt lat="43.40295" lon="6.73011">
        <ele>46</ele>
        <time>2012-10-13T15:11:40Z</time>
      </trkpt>
      <trkpt lat="43.40324" lon="6.72996">
        <ele>45</ele>
        <time>2012-10-13T15:11:46Z</time>
      </trkpt>
      <trkpt lat="43.40339" lon="6.72984">
        <ele>44</ele>
        <time>2012-10-13T15:11:49Z</time>
      </trkpt>
      <trkpt lat="43.40354" lon="6.72971">
        <ele>52</ele>
        <time>2012-10-13T15:11:52Z</time>
      </trkpt>
      <trkpt lat="43.40388" lon="6.72938">
        <ele>59</ele>
        <time>2012-10-13T15:11:59Z</time>
      </trkpt>
      <trkpt lat="43.40418" lon="6.72912">
        <ele>58</ele>
        <time>2012-10-13T15:12:05Z</time>
      </trkpt>
      <trkpt lat="43.40455" lon="6.7288">
        <ele>54</ele>
        <time>2012-10-13T15:12:12Z</time>
      </trkpt>
      <trkpt lat="43.40486" lon="6.72854">
        <ele>61</ele>
        <time>2012-10-13T15:12:18Z</time>
      </trkpt>
      <trkpt lat="43.40501" lon="6.72837">
        <ele>65</ele>
        <time>2012-10-13T15:12:21Z</time>
      </trkpt>
      <trkpt lat="43.40516" lon="6.72822">
        <ele>69</ele>
        <time>2012-10-13T15:12:24Z</time>
      </trkpt>
      <trkpt lat="43.4053" lon="6.72805">
        <ele>66</ele>
        <time>2012-10-13T15:12:27Z</time>
      </trkpt>
      <trkpt lat="43.40554" lon="6.7278">
        <ele>67</ele>
        <time>2012-10-13T15:12:32Z</time>
      </trkpt>
      <trkpt lat="43.40589" lon="6.72752">
        <ele>55</ele>
        <time>2012-10-13T15:12:38Z</time>
      </trkpt>
      <trkpt lat="43.40615" lon="6.72727">
        <ele>49</ele>
        <time>2012-10-13T15:12:43Z</time>
      </trkpt>
      <trkpt lat="43.40632" lon="6.72708">
        <ele>46</ele>
        <time>2012-10-13T15:12:46Z</time>
      </trkpt>
      <trkpt lat="43.40665" lon="6.72676">
        <ele>48</ele>
        <time>2012-10-13T15:12:52Z</time>
      </trkpt>
      <trkpt lat="43.40692" lon="6.72648">
        <ele>54</ele>
        <time>2012-10-13T15:12:57Z</time>
      </trkpt>
      <trkpt lat="43.40724" lon="6.72617">
        <ele>56</ele>
        <time>2012-10-13T15:13:03Z</time>
      </trkpt>
      <trkpt lat="43.40758" lon="6.72584">
        <ele>59</ele>
        <time>2012-10-13T15:13:09Z</time>
      </trkpt>
      <trkpt lat="43.40776" lon="6.72567">
        <ele>57</ele>
        <time>2012-10-13T15:13:12Z</time>
      </trkpt>
      <trkpt lat="43.40808" lon="6.72536">
        <ele>63</ele>
        <time>2012-10-13T15:13:18Z</time>
      </trkpt>
      <trkpt lat="43.40834" lon="6.7251">
        <ele>65</ele>
        <time>2012-10-13T15:13:23Z</time>
      </trkpt>
      <trkpt lat="43.4086" lon="6.72487">
        <ele>60</ele>
        <time>2012-10-13T15:13:28Z</time>
      </trkpt>
      <trkpt lat="43.40889" lon="6.72456">
        <ele>70</ele>
        <time>2012-10-13T15:13:34Z</time>
      </trkpt>
      <trkpt lat="43.40908" lon="6.72447">
        <ele>67</ele>
        <time>2012-10-13T15:13:39Z</time>
      </trkpt>
      <trkpt lat="43.40939" lon="6.72446">
        <ele>70</ele>
        <time>2012-10-13T15:13:44Z</time>
      </trkpt>
      <trkpt lat="43.40975" lon="6.72445">
        <ele>66</ele>
        <time>2012-10-13T15:13:50Z</time>
      </trkpt>
      <trkpt lat="43.41012" lon="6.72452">
        <ele>61</ele>
        <time>2012-10-13T15:13:56Z</time>
      </trkpt>
      <trkpt lat="43.41029" lon="6.72459">
        <ele>56</ele>
        <time>2012-10-13T15:13:59Z</time>
      </trkpt>
      <trkpt lat="43.4107" lon="6.72478">
        <ele>56</ele>
        <time>2012-10-13T15:14:05Z</time>
      </trkpt>
      <trkpt lat="43.4112" lon="6.72509">
        <ele>44</ele>
        <time>2012-10-13T15:14:12Z</time>
      </trkpt>
      <trkpt lat="43.41162" lon="6.72536">
        <ele>40</ele>
        <time>2012-10-13T15:14:18Z</time>
      </trkpt>
      <trkpt lat="43.41191" lon="6.72537">
        <ele>39</ele>
        <time>2012-10-13T15:14:23Z</time>
      </trkpt>
      <trkpt lat="43.41208" lon="6.72509">
        <ele>44</ele>
        <time>2012-10-13T15:14:29Z</time>
      </trkpt>
      <trkpt lat="43.41223" lon="6.72509">
        <ele>46</ele>
        <time>2012-10-13T15:14:35Z</time>
      </trkpt>
      <trkpt lat="43.41258" lon="6.72509">
        <ele>43</ele>
        <time>2012-10-13T15:14:46Z</time>
      </trkpt>
      <trkpt lat="43.41287" lon="6.72504">
        <ele>42</ele>
        <time>2012-10-13T15:14:52Z</time>
      </trkpt>
      <trkpt lat="43.41316" lon="6.72488">
        <ele>43</ele>
        <time>2012-10-13T15:14:58Z</time>
      </trkpt>
      <trkpt lat="43.4133" lon="6.72484">
        <ele>49</ele>
        <time>2012-10-13T15:15:01Z</time>
      </trkpt>
      <trkpt lat="43.41355" lon="6.72492">
        <ele>44</ele>
        <time>2012-10-13T15:15:07Z</time>
      </trkpt>
      <trkpt lat="43.41383" lon="6.72511">
        <ele>45</ele>
        <time>2012-10-13T15:15:13Z</time>
      </trkpt>
      <trkpt lat="43.41403" lon="6.72537">
        <ele>49</ele>
        <time>2012-10-13T15:15:19Z</time>
      </trkpt>
      <trkpt lat="43.41415" lon="6.7256">
        <ele>40</ele>
        <time>2012-10-13T15:15:24Z</time>
      </trkpt>
      <trkpt lat="43.41426" lon="6.72587">
        <ele>37</ele>
        <time>2012-10-13T15:15:32Z</time>
      </trkpt>
      <trkpt lat="43.41435" lon="6.72609">
        <ele>32</ele>
        <time>2012-10-13T15:15:38Z</time>
      </trkpt>
      <trkpt lat="43.4144" lon="6.7262">
        <ele>34</ele>
        <time>2012-10-13T15:15:41Z</time>
      </trkpt>
      <trkpt lat="43.41458" lon="6.72647">
        <ele>37</ele>
        <time>2012-10-13T15:15:49Z</time>
      </trkpt>
      <trkpt lat="43.41478" lon="6.72661">
        <ele>49</ele>
        <time>2012-10-13T15:15:55Z</time>
      </trkpt>
      <trkpt lat="43.41512" lon="6.72678">
        <ele>48</ele>
        <time>2012-10-13T15:16:05Z</time>
      </trkpt>
      <trkpt lat="43.4153" lon="6.72696">
        <ele>46</ele>
        <time>2012-10-13T15:16:17Z</time>
      </trkpt>
      <trkpt lat="43.41555" lon="6.72733">
        <ele>42</ele>
        <time>2012-10-13T15:16:30Z</time>
      </trkpt>
      <trkpt lat="43.41577" lon="6.72734">
        <ele>43</ele>
        <time>2012-10-13T15:16:37Z</time>
      </trkpt>
      <trkpt lat="43.41577" lon="6.72734">
        <ele>4</ele>
        <time>2012-10-13T15:16:46Z</time>
      </trkpt>
      <trkpt lat="43.41577" lon="6.72734">
        <ele>4</ele>
        <time>2012-10-13T15:16:50Z</time>
      </trkpt>
      <trkpt lat="43.41579" lon="6.72738">
        <ele>42</ele>
        <time>2012-10-13T15:16:50Z</time>
      </trkpt>
      <trkpt lat="43.41564" lon="6.72781">
        <ele>51</ele>
        <time>2012-10-13T15:17:00Z</time>
      </trkpt>
      <trkpt lat="43.41564" lon="6.72781">
        <ele>5</ele>
        <time>2012-10-13T15:17:09Z</time>
      </trkpt>
      <trkpt lat="43.41564" lon="6.72781">
        <ele>5</ele>
        <time>2012-10-13T15:17:28Z</time>
      </trkpt>
      <trkpt lat="43.41566" lon="6.72829">
        <ele>47</ele>
        <time>2012-10-13T15:17:28Z</time>
      </trkpt>
      <trkpt lat="43.41575" lon="6.72848">
        <ele>52</ele>
        <time>2012-10-13T15:17:35Z</time>
      </trkpt>
      <trkpt lat="43.41595" lon="6.72844">
        <ele>47</ele>
        <time>2012-10-13T15:17:42Z</time>
      </trkpt>
      <trkpt lat="43.4163" lon="6.72841">
        <ele>45</ele>
        <time>2012-10-13T15:17:51Z</time>
      </trkpt>
      <trkpt lat="43.41653" lon="6.72845">
        <ele>48</ele>
        <time>2012-10-13T15:17:57Z</time>
      </trkpt>
      <trkpt lat="43.41676" lon="6.72852">
        <ele>46</ele>
        <time>2012-10-13T15:18:04Z</time>
      </trkpt>
      <trkpt lat="43.41688" lon="6.72864">
        <ele>42</ele>
        <time>2012-10-13T15:18:09Z</time>
      </trkpt>
      <trkpt lat="43.41678" lon="6.72879">
        <ele>42</ele>
        <time>2012-10-13T15:18:15Z</time>
      </trkpt>
      <trkpt lat="43.41637" lon="6.72893">
        <ele>52</ele>
        <time>2012-10-13T15:18:22Z</time>
      </trkpt>
      <trkpt lat="43.41604" lon="6.72906">
        <ele>50</ele>
        <time>2012-10-13T15:18:28Z</time>
      </trkpt>
      <trkpt lat="43.4159" lon="6.72915">
        <ele>58</ele>
        <time>2012-10-13T15:18:35Z</time>
      </trkpt>
      <trkpt lat="43.4159" lon="6.72915">
        <ele>6</ele>
        <time>2012-10-13T15:18:40Z</time>
      </trkpt>
      <trkpt lat="43.4159" lon="6.72915">
        <ele>6</ele>
        <time>2012-10-13T15:18:44Z</time>
      </trkpt>
      <trkpt lat="43.4159" lon="6.7295">
        <ele>57</ele>
        <time>2012-10-13T15:18:44Z</time>
      </trkpt>
      <trkpt lat="43.41575" lon="6.72975">
        <ele>65</ele>
        <time>2012-10-13T15:18:49Z</time>
      </trkpt>
      <trkpt lat="43.4156" lon="6.72985">
        <ele>60</ele>
        <time>2012-10-13T15:18:52Z</time>
      </trkpt>
      <trkpt lat="43.41533" lon="6.72997">
        <ele>54</ele>
        <time>2012-10-13T15:18:57Z</time>
      </trkpt>
      <trkpt lat="43.41505" lon="6.73">
        <ele>50</ele>
        <time>2012-10-13T15:19:02Z</time>
      </trkpt>
      <trkpt lat="43.41493" lon="6.73021">
        <ele>55</ele>
        <time>2012-10-13T15:19:08Z</time>
      </trkpt>
      <trkpt lat="43.41465" lon="6.73054">
        <ele>48</ele>
        <time>2012-10-13T15:19:17Z</time>
      </trkpt>
      <trkpt lat="43.41465" lon="6.73054">
        <ele>4</ele>
        <time>2012-10-13T15:19:27Z</time>
      </trkpt>
      <trkpt lat="43.41465" lon="6.73054">
        <ele>4</ele>
        <time>2012-10-13T15:19:39Z</time>
      </trkpt>
      <trkpt lat="43.41434" lon="6.73072">
        <ele>57</ele>
        <time>2012-10-13T15:19:39Z</time>
      </trkpt>
      <trkpt lat="43.41428" lon="6.73109">
        <ele>51</ele>
        <time>2012-10-13T15:19:46Z</time>
      </trkpt>
      <trkpt lat="43.41439" lon="6.73143">
        <ele>61</ele>
        <time>2012-10-13T15:19:54Z</time>
      </trkpt>
      <trkpt lat="43.41456" lon="6.73159">
        <ele>65</ele>
        <time>2012-10-13T15:20:00Z</time>
      </trkpt>
      <trkpt lat="43.41456" lon="6.73159">
        <ele>4</ele>
        <time>2012-10-13T15:20:09Z</time>
      </trkpt>
      <trkpt lat="43.41456" lon="6.73159">
        <ele>4</ele>
        <time>2012-10-13T15:20:17Z</time>
      </trkpt>
      <trkpt lat="43.41456" lon="6.73203">
        <ele>59</ele>
        <time>2012-10-13T15:20:17Z</time>
      </trkpt>
      <trkpt lat="43.41434" lon="6.73235">
        <ele>61</ele>
        <time>2012-10-13T15:20:23Z</time>
      </trkpt>
      <trkpt lat="43.41421" lon="6.73245">
        <ele>60</ele>
        <time>2012-10-13T15:20:28Z</time>
      </trkpt>
      <trkpt lat="43.414" lon="6.73301">
        <ele>50</ele>
        <time>2012-10-13T15:20:37Z</time>
      </trkpt>
      <trkpt lat="43.41398" lon="6.73334">
        <ele>48</ele>
        <time>2012-10-13T15:20:44Z</time>
      </trkpt>
      <trkpt lat="43.41398" lon="6.73357">
        <ele>45</ele>
        <time>2012-10-13T15:20:49Z</time>
      </trkpt>
      <trkpt lat="43.41401" lon="6.73396">
        <ele>50</ele>
        <time>2012-10-13T15:20:56Z</time>
      </trkpt>
      <trkpt lat="43.41408" lon="6.73414">
        <ele>56</ele>
        <time>2012-10-13T15:20:59Z</time>
      </trkpt>
      <trkpt lat="43.41421" lon="6.73453">
        <ele>54</ele>
        <time>2012-10-13T15:21:05Z</time>
      </trkpt>
      <trkpt lat="43.41428" lon="6.73471">
        <ele>50</ele>
        <time>2012-10-13T15:21:08Z</time>
      </trkpt>
      <trkpt lat="43.41441" lon="6.73487">
        <ele>52</ele>
        <time>2012-10-13T15:21:12Z</time>
      </trkpt>
      <trkpt lat="43.41475" lon="6.73495">
        <ele>52</ele>
        <time>2012-10-13T15:21:19Z</time>
      </trkpt>
      <trkpt lat="43.41489" lon="6.73499">
        <ele>47</ele>
        <time>2012-10-13T15:21:22Z</time>
      </trkpt>
      <trkpt lat="43.41504" lon="6.73503">
        <ele>46</ele>
        <time>2012-10-13T15:21:25Z</time>
      </trkpt>
      <trkpt lat="43.41527" lon="6.73511">
        <ele>44</ele>
        <time>2012-10-13T15:21:30Z</time>
      </trkpt>
      <trkpt lat="43.41552" lon="6.73521">
        <ele>45</ele>
        <time>2012-10-13T15:21:36Z</time>
      </trkpt>
      <trkpt lat="43.41578" lon="6.73528">
        <ele>41</ele>
        <time>2012-10-13T15:21:42Z</time>
      </trkpt>
      <trkpt lat="43.41605" lon="6.73541">
        <ele>40</ele>
        <time>2012-10-13T15:21:49Z</time>
      </trkpt>
      <trkpt lat="43.41599" lon="6.73573">
        <ele>41</ele>
        <time>2012-10-13T15:21:56Z</time>
      </trkpt>
      <trkpt lat="43.41608" lon="6.73611">
        <ele>43</ele>
        <time>2012-10-13T15:22:03Z</time>
      </trkpt>
      <trkpt lat="43.41619" lon="6.73633">
        <ele>42</ele>
        <time>2012-10-13T15:22:07Z</time>
      </trkpt>
      <trkpt lat="43.41629" lon="6.73648">
        <ele>45</ele>
        <time>2012-10-13T15:22:10Z</time>
      </trkpt>
      <trkpt lat="43.41644" lon="6.73672">
        <ele>52</ele>
        <time>2012-10-13T15:22:15Z</time>
      </trkpt>
      <trkpt lat="43.41654" lon="6.73687">
        <ele>50</ele>
        <time>2012-10-13T15:22:20Z</time>
      </trkpt>
      <trkpt lat="43.41643" lon="6.737">
        <ele>49</ele>
        <time>2012-10-13T15:22:28Z</time>
      </trkpt>
      <trkpt lat="43.41625" lon="6.73713">
        <ele>52</ele>
        <time>2012-10-13T15:22:37Z</time>
      </trkpt>
      <trkpt lat="43.41608" lon="6.73737">
        <ele>51</ele>
        <time>2012-10-13T15:22:44Z</time>
      </trkpt>
      <trkpt lat="43.41587" lon="6.73771">
        <ele>52</ele>
        <time>2012-10-13T15:22:51Z</time>
      </trkpt>
      <trkpt lat="43.41559" lon="6.7381">
        <ele>49</ele>
        <time>2012-10-13T15:22:57Z</time>
      </trkpt>
      <trkpt lat="43.41552" lon="6.73839">
        <ele>51</ele>
        <time>2012-10-13T15:23:00Z</time>
      </trkpt>
      <trkpt lat="43.41582" lon="6.73867">
        <ele>50</ele>
        <time>2012-10-13T15:23:05Z</time>
      </trkpt>
      <trkpt lat="43.41582" lon="6.73867">
        <ele>1</ele>
        <time>2012-10-13T15:23:13Z</time>
      </trkpt>
      <trkpt lat="43.41582" lon="6.73867">
        <ele>1</ele>
        <time>2012-10-13T15:24:46Z</time>
      </trkpt>
      <trkpt lat="43.41615" lon="6.7389">
        <ele>44</ele>
        <time>2012-10-13T15:24:46Z</time>
      </trkpt>
      <trkpt lat="43.41615" lon="6.7389">
        <ele>1</ele>
        <time>2012-10-13T15:24:57Z</time>
      </trkpt>
      <trkpt lat="43.41615" lon="6.7389">
        <ele>1</ele>
        <time>2012-10-13T15:27:28Z</time>
      </trkpt>
    </trkseg>
  </trk>
</gpx>